[[{"header":{"parameterUnit":"m.s-1","parameterCategory":1,"la1":31.0,"la2":29.5877,"lo1":-88.7671,"lo2":-86.6584,"dy":0.0162,"dx":0.0185,"nx":115,"ny":88,"refTime":"2023-09-02T06:00:00:Z","depth":0,"parameterNumber":2,"parameterNumberName":"U-component_of_WINDS"},"data":[0.0,0.0,0.0,0.0,0.0,0.0,0.0,0.0,0.0,0.0,0.0,0.0,0.0,0.0,0.0,0.0,0.0,0.0,0.0,0.0,0.0,0.0,0.0,0.0,0.0,0.0,0.0,0.0,0.0,0.0,0.0,0.0,0.0,0.0,0.0,0.0,0.0,0.0,0.0,0.0,0.0,0.0,0.0,0.0,0.0,0.0,0.0,0.0,0.0,0.0,0.0,0.0,0.0,0.0,0.0,0.0,0.0,0.0,0.0,0.0,0.0,0.0,0.0,0.0,0.0,0.0,0.0,0.0,0.0,0.0,0.0,0.0,0.0,0.0,0.0,0.0,0.0,0.0,0.0,0.0,0.0,0.0,0.0,0.0,0.0,0.0,0.0,0.0,0.0,0.0,0.0,0.0,0.0,0.0,0.0,0.0,0.0,0.0,0.0,0.0,0.0,0.0,0.0,0.0,0.0,0.0,0.0,0.0,0.0,0.0,0.0,0.0,0.0,0.0,0.0,0.0,0.0,0.0,0.0,0.0,0.0,0.0,0.0,0.0,0.0,0.0,0.0,0.0,0.0,0.0,0.0,0.0,0.0,0.0,0.0,0.0,0.0,0.0,0.0,0.0,0.0,0.0,0.0,0.0,0.0,0.0,0.0,0.0,0.0,0.0,0.0,0.0,0.0,0.0,0.0,0.0,0.0,0.0,0.0,0.0,0.0,0.0,0.0,0.0,0.0,0.0,0.0,0.0,0.0,0.0,0.0,0.0,0.0,0.0,0.0,0.0,0.0,0.0,0.0,0.0,0.0,0.0,0.0,0.0,0.0,0.0,0.0,0.0,0.0,0.0,0.0,0.0,0.0,0.0,0.0,0.0,0.0,0.0,0.0,0.0,0.0,0.0,0.0,0.0,0.0,0.0,0.0,0.0,0.0,0.0,0.0,0.0,0.0,0.0,0.0,0.0,0.0,0.0,0.0,0.0,0.0,0.0,0.0,0.0,0.0,0.0,0.0,0.0,0.0,0.0,0.0,0.0,0.0,0.0,0.0,0.0,0.0,0.0,0.0,0.0,0.0,0.0,0.0,0.0,0.0,0.0,0.0,0.0,0.0,0.0,0.0,0.0,0.0,0.0,0.0,0.0,0.0,0.0,0.0,0.0,0.0,0.0,0.0,0.0,0.0,0.0,0.0,0.0,0.0,0.0,0.0,0.0,0.0,0.0,0.0,0.0,0.0,0.0,0.0,0.0,0.0,0.0,0.0,0.0,0.0,0.0,0.0,0.0,0.0,0.0,0.0,0.0,0.0,0.0,0.0,0.0,0.0,0.0,0.0,0.0,0.0,0.0,0.0,0.0,0.0,0.0,0.0,0.0,0.0,0.0,0.0,0.0,0.0,0.0,0.0,0.0,0.0,0.0,0.0,0.0,0.0,0.0,0.0,0.0,0.0,0.0,0.0,0.0,0.0,0.0,0.0,0.0,0.0,0.0,0.0,0.0,0.0,0.0,0.0,0.0,0.0,0.0,0.0,0.0,0.0,0.0,0.0,0.0,0.0,0.0,0.0,0.0,0.0,0.0,0.0,0.0,0.0,0.0,0.0,0.0,0.0,0.0,0.0,0.0,0.0,0.0,0.0,0.0,0.0,0.0,0.0,0.0,0.0,0.0,0.0,0.0,0.0,0.0,0.0,0.0,0.0,0.0,0.0,0.0,0.0,0.0,0.0,0.0,0.0,0.0,0.0,0.0,0.0,0.0,0.0,0.0,0.0,0.0,0.0,0.0,0.0,0.0,0.0,0.0,0.0,0.0,0.0,0.0,0.0,0.0,0.0,0.0,0.0,0.0,0.0,0.0,0.0,0.0,0.0,0.0,0.0,0.0,0.0,0.0,0.0,0.0,0.0,0.0,0.0,0.0,0.0,0.0,0.0,0.0,0.0,0.0,0.0,0.0,0.0,0.0,0.0,0.0,0.0,0.0,0.0,0.0,0.0,0.0,0.0,0.0,0.0,0.0,0.0,0.0,0.0,0.0,0.0,0.0,0.0,0.0,0.0,0.0,0.0,0.0,0.0,0.0,0.0,0.0,0.0,0.0,0.0,0.0,0.0,0.0,0.0,0.0,0.0,0.0,0.0,0.0,0.0,0.0,0.0,0.0,0.0,0.0,0.0,0.0,0.0,0.0,0.0,0.0,0.0,0.0,0.0,0.0,0.0,0.0,0.0,0.0,0.0,0.0,0.0,0.0,0.0,0.0,0.0,0.0,0.0,0.0,0.0,0.0,0.0,0.0,0.0,0.0,0.0,0.0,0.0,0.0,0.0,0.0,0.0,0.0,0.0,0.0,0.0,0.0,0.0,0.0,0.0,0.0,0.0,0.0,0.0,0.0,0.0,0.0,0.0,0.0,0.0,0.0,0.0,0.0,0.0,0.0,0.0,0.0,0.0,0.0,0.0,0.0,0.0,0.0,0.0,0.0,0.0,0.0,0.0,0.0,0.0,0.0,0.0,0.0,0.0,0.0,0.0,0.0,0.0,0.0,0.0,0.0,0.0,0.0,0.0,0.0,0.0,0.0,0.0,0.0,0.0,0.0,0.0,0.0,0.0,0.0,0.0,0.0,0.0,0.0,0.0,0.0,0.0,0.0,0.0,0.0,0.0,0.0,0.0,0.0,0.0,0.0,0.0,0.0,0.0,0.0,0.0,0.0,0.0,0.0,0.0,0.0,0.0,0.0,0.0,0.0,0.0,0.0,0.0,0.0,0.0,0.0,0.0,0.0,0.0,0.0,0.0,0.0,0.0,0.0,0.0,0.0,0.0,0.0,0.0,0.0,0.0,0.0,0.0,0.0,0.0,0.0,0.0,0.0,0.0,0.0,0.0,0.0,0.0,0.0,0.0,0.0,0.0,0.0,0.0,0.0,0.0,0.0,0.0,0.0,0.0,0.0,0.0,0.0,0.0,0.0,0.0,0.0,0.0,0.0,0.0,0.0,0.0,0.0,0.0,0.0,0.0,0.0,0.0,0.0,0.0,0.0,0.0,0.0,0.0,0.0,0.0,0.0,0.0,0.0,0.0,0.0,0.0,0.0,0.0,0.0,0.0,0.0,0.0,0.0,0.0,0.0,0.0,0.0,0.0,0.0,0.0,0.0,0.0,0.0,0.0,0.0,0.0,0.0,0.0,0.0,0.0,0.0,0.0,0.0,0.0,0.0,0.0,0.0,0.0,0.0,0.0,0.0,0.0,0.0,0.0,0.0,0.0,0.0,0.0,0.0,0.0,0.0,0.0,0.0,0.0,0.0,0.0,0.0,0.0,0.0,0.0,0.0,0.0,0.0,0.0,0.0,0.0,0.0,0.0,0.0,0.0,0.0,0.0,0.0,0.0,0.0,0.0,0.0,0.0,0.0,0.0,0.0,0.0,0.0,0.0,0.0,0.0,0.0,0.0,0.0,0.0,0.0,0.0,0.0,0.0,0.0,0.0,0.0,0.0,0.0,0.0,0.0,0.0,0.0,0.0,0.0,0.0,0.0,0.0,0.0,0.0,0.0,0.0,0.0,0.0,0.0,0.0,0.0,0.0,0.0,0.0,0.0,0.0,0.0,0.0,0.0,0.0,0.0,0.0,0.0,0.0,0.0,0.0,0.0,0.0,0.0,0.0,0.0,0.0,0.0,0.0,0.0,0.0,0.0,0.0,0.0,0.0,0.0,0.0,0.0,0.0,0.0,0.0,0.0,0.0,0.0,0.0,0.0,0.0,0.0,0.0,0.0,0.0,0.0,0.0,0.0,0.0,0.0,0.0,0.0,0.0,0.0,0.0,0.0,0.0,0.0,0.0,0.0,0.0,0.0,0.0,0.0,0.0,0.0,0.0,0.0,0.0,0.0,0.0,0.0,0.0,0.0,0.0,0.0,0.0,0.0,0.0,0.0,0.0,0.0,0.0,0.0,0.0,0.0,0.0,0.0,0.0,0.0,0.0,0.0,0.0,0.0,0.0,0.0,0.0,0.0,0.0,0.0,0.0,0.0,0.0,0.0,0.0,0.0,0.0,0.0,0.0,0.0,0.0,0.0,0.0,0.0,0.0,0.0,0.0,0.0,0.0,0.0,0.0,0.0,0.0,0.0,0.0,0.0,0.0,0.0,0.0,0.0,0.0,0.0,0.0,0.0,0.0,0.0,0.0,0.0,0.0,0.0,0.0,0.0,0.0,0.0,0.0,0.0,0.0,0.0,0.0,0.0,0.0,0.0,0.0,0.0,0.0,0.0,0.0,0.0,0.0,0.0,0.0,0.0,-3.545,0.0,0.0,0.0,0.0,0.0,0.0,0.0,0.0,0.0,0.0,0.0,0.0,0.0,0.0,0.0,0.0,0.0,0.0,0.0,0.0,0.0,0.0,0.0,0.0,0.0,0.0,0.0,0.0,0.0,0.0,0.0,0.0,0.0,0.0,0.0,0.0,0.0,0.0,0.0,0.0,0.0,0.0,0.0,0.0,0.0,0.0,0.0,0.0,0.0,0.0,0.0,0.0,0.0,0.0,0.0,0.0,0.0,0.0,0.0,0.0,0.0,0.0,0.0,0.0,0.0,0.0,0.0,0.0,0.0,0.0,0.0,0.0,0.0,0.0,0.0,0.0,0.0,0.0,0.0,0.0,0.0,0.0,0.0,0.0,0.0,0.0,0.0,0.0,0.0,0.0,0.0,0.0,0.0,0.0,0.0,0.0,0.0,0.0,0.0,0.0,0.0,0.0,0.0,0.0,0.0,0.0,0.0,0.0,0.0,0.0,-3.5035,-3.5096,-3.5187,-3.5333,-3.5508,0.0,0.0,0.0,0.0,0.0,0.0,0.0,0.0,0.0,0.0,0.0,0.0,0.0,0.0,0.0,0.0,0.0,0.0,0.0,0.0,0.0,0.0,0.0,0.0,0.0,0.0,0.0,0.0,0.0,0.0,0.0,0.0,0.0,0.0,0.0,0.0,0.0,0.0,0.0,0.0,0.0,0.0,0.0,0.0,0.0,0.0,0.0,0.0,0.0,0.0,0.0,0.0,0.0,0.0,0.0,0.0,0.0,0.0,0.0,0.0,0.0,0.0,0.0,0.0,0.0,0.0,0.0,0.0,0.0,0.0,0.0,0.0,0.0,0.0,0.0,0.0,0.0,0.0,0.0,0.0,0.0,0.0,0.0,0.0,0.0,0.0,0.0,0.0,0.0,0.0,0.0,0.0,0.0,0.0,0.0,0.0,0.0,0.0,0.0,0.0,0.0,0.0,0.0,0.0,0.0,0.0,0.0,0.0,0.0,0.0,0.0,0.0,-3.5289,-3.5423,-3.5564,0.0,0.0,0.0,0.0,0.0,0.0,0.0,0.0,0.0,0.0,0.0,0.0,0.0,0.0,0.0,0.0,0.0,0.0,0.0,0.0,0.0,0.0,0.0,0.0,0.0,0.0,0.0,0.0,0.0,0.0,0.0,0.0,0.0,0.0,0.0,0.0,0.0,0.0,0.0,0.0,0.0,0.0,0.0,0.0,0.0,0.0,0.0,0.0,0.0,0.0,0.0,0.0,0.0,0.0,0.0,0.0,0.0,0.0,0.0,0.0,0.0,0.0,0.0,0.0,0.0,0.0,0.0,0.0,0.0,0.0,0.0,0.0,0.0,0.0,0.0,0.0,0.0,0.0,0.0,0.0,0.0,0.0,0.0,0.0,0.0,0.0,0.0,0.0,0.0,0.0,0.0,0.0,0.0,0.0,0.0,0.0,0.0,0.0,0.0,0.0,0.0,0.0,0.0,0.0,0.0,0.0,0.0,0.0,0.0,0.0,-3.5219,-3.5457,-3.547,0.0,-3.5769,0.0,0.0,0.0,0.0,0.0,0.0,0.0,0.0,0.0,0.0,0.0,0.0,0.0,0.0,0.0,0.0,0.0,0.0,0.0,0.0,0.0,0.0,0.0,0.0,0.0,0.0,0.0,0.0,0.0,0.0,0.0,0.0,0.0,0.0,0.0,0.0,0.0,0.0,0.0,0.0,0.0,0.0,0.0,0.0,0.0,0.0,0.0,0.0,0.0,0.0,0.0,0.0,0.0,0.0,0.0,0.0,0.0,0.0,0.0,0.0,0.0,0.0,0.0,0.0,0.0,0.0,0.0,0.0,0.0,0.0,0.0,0.0,0.0,0.0,0.0,0.0,0.0,0.0,0.0,0.0,0.0,0.0,0.0,0.0,0.0,0.0,0.0,0.0,0.0,0.0,0.0,0.0,0.0,0.0,0.0,0.0,0.0,0.0,0.0,0.0,0.0,0.0,0.0,0.0,0.0,0.0,0.0,0.0,0.0,0.0,-3.5395,-3.549,-3.5584,-3.5669,0.0,0.0,0.0,0.0,0.0,0.0,0.0,0.0,0.0,0.0,0.0,0.0,0.0,0.0,0.0,0.0,0.0,0.0,0.0,0.0,0.0,0.0,0.0,0.0,0.0,0.0,0.0,0.0,0.0,0.0,0.0,0.0,0.0,0.0,0.0,0.0,0.0,0.0,0.0,0.0,0.0,0.0,0.0,0.0,0.0,0.0,0.0,0.0,0.0,0.0,0.0,0.0,0.0,0.0,0.0,0.0,0.0,0.0,0.0,0.0,0.0,0.0,0.0,0.0,0.0,0.0,0.0,0.0,0.0,0.0,0.0,0.0,0.0,0.0,0.0,0.0,0.0,0.0,0.0,0.0,0.0,0.0,0.0,0.0,0.0,0.0,0.0,0.0,0.0,0.0,0.0,0.0,0.0,0.0,0.0,0.0,0.0,0.0,0.0,0.0,0.0,0.0,0.0,0.0,0.0,0.0,0.0,0.0,0.0,0.0,-3.545,-3.5527,-3.556,-3.5684,-3.5772,-3.5836,0.0,0.0,0.0,0.0,0.0,0.0,0.0,0.0,0.0,0.0,0.0,0.0,0.0,0.0,0.0,0.0,0.0,0.0,0.0,0.0,0.0,0.0,0.0,0.0,0.0,0.0,0.0,0.0,0.0,0.0,0.0,0.0,0.0,0.0,0.0,0.0,0.0,0.0,0.0,0.0,0.0,0.0,0.0,0.0,0.0,0.0,0.0,0.0,0.0,0.0,0.0,0.0,0.0,0.0,0.0,0.0,0.0,0.0,0.0,0.0,0.0,0.0,0.0,0.0,0.0,0.0,0.0,0.0,0.0,0.0,0.0,0.0,0.0,0.0,0.0,0.0,0.0,0.0,0.0,0.0,0.0,0.0,0.0,0.0,0.0,0.0,0.0,0.0,0.0,0.0,0.0,0.0,0.0,0.0,0.0,0.0,0.0,0.0,0.0,0.0,0.0,0.0,0.0,0.0,0.0,0.0,0.0,0.0,-3.5477,-3.5496,-3.5571,-3.5679,-3.5833,-3.5882,0.0,0.0,0.0,0.0,0.0,0.0,0.0,0.0,0.0,0.0,0.0,0.0,0.0,0.0,0.0,0.0,0.0,0.0,0.0,0.0,0.0,0.0,0.0,0.0,0.0,0.0,0.0,0.0,0.0,0.0,0.0,0.0,0.0,0.0,0.0,0.0,0.0,0.0,0.0,0.0,0.0,0.0,0.0,0.0,0.0,0.0,0.0,0.0,0.0,0.0,0.0,0.0,0.0,0.0,0.0,0.0,0.0,0.0,0.0,0.0,0.0,0.0,0.0,0.0,0.0,0.0,0.0,0.0,0.0,0.0,0.0,0.0,0.0,0.0,0.0,0.0,0.0,0.0,0.0,0.0,0.0,0.0,0.0,0.0,0.0,0.0,0.0,0.0,0.0,0.0,0.0,0.0,0.0,0.0,0.0,0.0,0.0,0.0,0.0,0.0,0.0,0.0,0.0,0.0,0.0,0.0,0.0,0.0,0.0,-3.5618,-3.5664,-3.5745,-3.5839,-3.5829,-3.5869,0.0,0.0,0.0,0.0,0.0,0.0,0.0,0.0,0.0,0.0,0.0,0.0,0.0,0.0,0.0,0.0,0.0,0.0,0.0,0.0,0.0,0.0,0.0,0.0,0.0,0.0,0.0,0.0,0.0,0.0,0.0,0.0,0.0,0.0,0.0,0.0,0.0,0.0,0.0,0.0,0.0,0.0,0.0,0.0,0.0,0.0,0.0,0.0,0.0,0.0,0.0,0.0,0.0,0.0,0.0,0.0,0.0,0.0,0.0,0.0,0.0,0.0,0.0,0.0,0.0,0.0,0.0,0.0,0.0,0.0,0.0,0.0,0.0,0.0,0.0,0.0,0.0,0.0,0.0,0.0,0.0,0.0,0.0,0.0,0.0,0.0,0.0,0.0,0.0,0.0,0.0,0.0,0.0,0.0,0.0,0.0,0.0,0.0,0.0,0.0,0.0,0.0,0.0,0.0,0.0,0.0,0.0,0.0,0.0,-3.5708,0.0,-3.5822,-3.5856,-3.5864,-3.5891,0.0,0.0,0.0,0.0,0.0,0.0,0.0,0.0,0.0,0.0,0.0,0.0,0.0,0.0,0.0,0.0,0.0,0.0,0.0,0.0,0.0,0.0,0.0,0.0,0.0,0.0,0.0,0.0,0.0,0.0,0.0,0.0,0.0,0.0,0.0,0.0,0.0,0.0,0.0,0.0,0.0,0.0,0.0,0.0,0.0,0.0,0.0,0.0,0.0,0.0,0.0,0.0,0.0,0.0,0.0,0.0,0.0,0.0,0.0,0.0,0.0,0.0,0.0,0.0,0.0,0.0,0.0,0.0,0.0,0.0,0.0,0.0,0.0,0.0,0.0,0.0,0.0,0.0,0.0,0.0,0.0,0.0,0.0,0.0,0.0,0.0,0.0,0.0,0.0,0.0,0.0,0.0,0.0,0.0,0.0,0.0,0.0,0.0,0.0,0.0,0.0,0.0,0.0,0.0,0.0,0.0,0.0,0.0,-3.5708,-3.5713,-3.5768,-3.5803,-3.5791,-3.5932,-3.6013,0.0,0.0,0.0,0.0,0.0,0.0,0.0,0.0,0.0,0.0,0.0,0.0,0.0,0.0,0.0,0.0,0.0,0.0,0.0,0.0,0.0,0.0,0.0,0.0,0.0,0.0,0.0,0.0,0.0,0.0,0.0,0.0,0.0,0.0,0.0,0.0,0.0,0.0,0.0,0.0,0.0,0.0,0.0,0.0,0.0,0.0,0.0,0.0,0.0,0.0,0.0,0.0,0.0,0.0,0.0,0.0,0.0,0.0,0.0,0.0,0.0,0.0,0.0,0.0,0.0,0.0,0.0,0.0,0.0,0.0,0.0,0.0,0.0,0.0,0.0,0.0,0.0,0.0,0.0,0.0,0.0,0.0,0.0,0.0,0.0,0.0,0.0,0.0,0.0,0.0,0.0,0.0,0.0,0.0,0.0,0.0,0.0,0.0,0.0,0.0,0.0,0.0,0.0,0.0,0.0,0.0,0.0,0.0,0.0,-3.5764,-3.5821,-3.5892,-3.5916,-3.5973,-3.6021,0.0,0.0,0.0,0.0,0.0,0.0,0.0,0.0,0.0,0.0,0.0,0.0,0.0,0.0,0.0,0.0,0.0,0.0,0.0,0.0,0.0,0.0,0.0,0.0,0.0,0.0,0.0,0.0,0.0,0.0,0.0,0.0,0.0,0.0,0.0,0.0,0.0,0.0,0.0,0.0,0.0,0.0,0.0,0.0,0.0,0.0,0.0,0.0,0.0,0.0,0.0,0.0,0.0,0.0,0.0,0.0,0.0,0.0,0.0,0.0,0.0,0.0,0.0,0.0,0.0,0.0,0.0,0.0,0.0,0.0,0.0,0.0,0.0,0.0,0.0,0.0,0.0,0.0,0.0,0.0,0.0,0.0,0.0,0.0,0.0,0.0,0.0,0.0,0.0,0.0,0.0,0.0,0.0,0.0,0.0,0.0,0.0,0.0,0.0,0.0,0.0,0.0,0.0,0.0,0.0,0.0,0.0,0.0,0.0,-3.5803,-3.5841,-3.5897,-3.5957,-3.599,-3.6018,-3.6012,0.0,0.0,0.0,0.0,0.0,0.0,0.0,0.0,0.0,0.0,0.0,0.0,0.0,0.0,0.0,0.0,0.0,0.0,0.0,0.0,0.0,0.0,0.0,0.0,0.0,0.0,0.0,0.0,0.0,0.0,0.0,0.0,0.0,0.0,0.0,0.0,0.0,0.0,0.0,0.0,0.0,0.0,0.0,0.0,0.0,0.0,0.0,0.0,0.0,0.0,0.0,0.0,0.0,0.0,0.0,0.0,0.0,0.0,0.0,0.0,0.0,0.0,0.0,0.0,0.0,0.0,0.0,0.0,0.0,0.0,0.0,0.0,0.0,0.0,0.0,0.0,0.0,0.0,0.0,0.0,0.0,0.0,0.0,0.0,0.0,0.0,0.0,0.0,0.0,0.0,0.0,0.0,0.0,0.0,0.0,0.0,0.0,0.0,0.0,0.0,0.0,0.0,0.0,0.0,0.0,0.0,0.0,0.0,-3.5868,-3.5877,-3.589,-3.5914,-3.5976,-3.6006,0.0,0.0,0.0,0.0,0.0,0.0,0.0,0.0,0.0,0.0,0.0,0.0,0.0,0.0,0.0,0.0,0.0,0.0,0.0,0.0,0.0,0.0,0.0,0.0,0.0,0.0,0.0,0.0,0.0,0.0,0.0,0.0,0.0,0.0,0.0,0.0,0.0,0.0,0.0,0.0,0.0,0.0,0.0,0.0,0.0,0.0,0.0,0.0,0.0,0.0,0.0,0.0,0.0,0.0,0.0,0.0,0.0,0.0,0.0,0.0,0.0,0.0,0.0,0.0,0.0,0.0,0.0,0.0,0.0,0.0,0.0,0.0,0.0,0.0,0.0,0.0,0.0,0.0,0.0,0.0,0.0,0.0,0.0,0.0,0.0,0.0,0.0,0.0,0.0,0.0,0.0,0.0,0.0,0.0,0.0,0.0,0.0,0.0,0.0,0.0,0.0,0.0,0.0,0.0,0.0,0.0,0.0,0.0,0.0,-3.6729,-3.6771,-3.6508,-3.5995,-3.5987,-3.6019,0.0,0.0,0.0,0.0,0.0,0.0,0.0,0.0,0.0,0.0,0.0,0.0,0.0,0.0,0.0,0.0,0.0,0.0,0.0,0.0,0.0,0.0,0.0,0.0,0.0,0.0,0.0,0.0,0.0,0.0,0.0,0.0,0.0,0.0,0.0,0.0,0.0,0.0,0.0,0.0,0.0,0.0,0.0,0.0,0.0,0.0,0.0,0.0,0.0,0.0,0.0,0.0,0.0,0.0,0.0,0.0,0.0,0.0,0.0,0.0,0.0,0.0,0.0,0.0,0.0,0.0,0.0,0.0,0.0,0.0,0.0,0.0,0.0,0.0,0.0,0.0,0.0,0.0,0.0,0.0,0.0,0.0,0.0,0.0,0.0,0.0,0.0,0.0,0.0,0.0,0.0,0.0,0.0,0.0,0.0,0.0,0.0,0.0,0.0,0.0,0.0,0.0,0.0,0.0,0.0,0.0,0.0,0.0,-3.6144,-3.708,-3.711,-3.7099,-3.7089,-3.6732,-3.6376,0.0,0.0,0.0,0.0,0.0,0.0,0.0,0.0,0.0,0.0,0.0,0.0,0.0,0.0,0.0,0.0,0.0,0.0,0.0,0.0,0.0,0.0,0.0,0.0,0.0,0.0,0.0,0.0,0.0,0.0,0.0,0.0,0.0,0.0,0.0,0.0,0.0,0.0,0.0,0.0,0.0,0.0,0.0,0.0,0.0,0.0,0.0,0.0,0.0,0.0,0.0,0.0,0.0,0.0,0.0,0.0,0.0,0.0,0.0,0.0,0.0,0.0,0.0,0.0,0.0,0.0,0.0,0.0,0.0,0.0,0.0,0.0,0.0,0.0,0.0,0.0,0.0,0.0,0.0,0.0,0.0,0.0,0.0,0.0,0.0,0.0,0.0,0.0,0.0,0.0,0.0,0.0,0.0,0.0,0.0,0.0,0.0,0.0,0.0,0.0,0.0,0.0,0.0,0.0,0.0,0.0,0.0,0.0,-3.6279,-3.7197,-3.7327,-3.7821,-3.8652,-3.7812,-3.693,0.0,0.0,0.0,0.0,0.0,0.0,0.0,0.0,0.0,0.0,0.0,0.0,0.0,0.0,0.0,0.0,0.0,0.0,0.0,0.0,0.0,0.0,0.0,0.0,0.0,0.0,0.0,0.0,0.0,0.0,0.0,0.0,0.0,0.0,0.0,0.0,0.0,0.0,0.0,0.0,0.0,0.0,0.0,0.0,0.0,0.0,0.0,0.0,0.0,0.0,0.0,0.0,0.0,0.0,0.0,0.0,0.0,0.0,0.0,0.0,0.0,0.0,0.0,0.0,0.0,0.0,0.0,0.0,0.0,0.0,0.0,0.0,0.0,0.0,0.0,0.0,0.0,0.0,0.0,0.0,0.0,0.0,0.0,0.0,0.0,0.0,0.0,0.0,0.0,0.0,0.0,0.0,0.0,0.0,0.0,0.0,0.0,0.0,0.0,0.0,0.0,0.0,0.0,0.0,0.0,0.0,0.0,0.0,-3.7138,-3.8099,-3.8801,-3.9297,-3.959,-3.8104,-3.7222,0.0,0.0,0.0,0.0,0.0,0.0,0.0,0.0,0.0,0.0,0.0,0.0,0.0,0.0,0.0,0.0,0.0,0.0,0.0,0.0,0.0,0.0,0.0,0.0,0.0,0.0,0.0,0.0,0.0,0.0,0.0,0.0,0.0,0.0,0.0,0.0,0.0,0.0,0.0,0.0,0.0,0.0,0.0,0.0,0.0,0.0,0.0,0.0,-3.6014,0.0,0.0,0.0,0.0,0.0,0.0,0.0,0.0,0.0,0.0,0.0,0.0,0.0,0.0,0.0,0.0,0.0,0.0,0.0,0.0,0.0,0.0,0.0,0.0,0.0,0.0,0.0,0.0,0.0,0.0,0.0,0.0,0.0,0.0,0.0,0.0,0.0,0.0,0.0,0.0,0.0,0.0,0.0,0.0,0.0,0.0,0.0,0.0,0.0,0.0,0.0,0.0,0.0,0.0,0.0,0.0,0.0,0.0,0.0,-3.7385,-3.8372,-3.9246,-3.9958,-4.041,-3.8827,-3.7713,0.0,0.0,0.0,0.0,0.0,0.0,0.0,0.0,0.0,0.0,0.0,0.0,0.0,0.0,0.0,0.0,0.0,0.0,0.0,0.0,0.0,0.0,0.0,0.0,0.0,0.0,0.0,0.0,0.0,0.0,0.0,0.0,0.0,0.0,0.0,0.0,0.0,0.0,0.0,0.0,0.0,0.0,0.0,0.0,0.0,0.0,0.0,0.0,0.0,0.0,0.0,0.0,0.0,0.0,0.0,0.0,0.0,0.0,0.0,0.0,0.0,0.0,0.0,0.0,0.0,0.0,0.0,0.0,0.0,0.0,0.0,0.0,0.0,0.0,0.0,0.0,0.0,0.0,0.0,0.0,0.0,0.0,0.0,0.0,0.0,0.0,0.0,0.0,0.0,0.0,0.0,0.0,0.0,0.0,0.0,0.0,0.0,0.0,0.0,0.0,0.0,0.0,0.0,0.0,0.0,0.0,0.0,-3.6632,-3.7516,-3.8374,-3.9379,-4.0305,-4.1132,-3.9512,-3.8242,-3.7519,0.0,0.0,0.0,0.0,0.0,0.0,0.0,0.0,0.0,0.0,0.0,0.0,0.0,0.0,0.0,0.0,0.0,0.0,0.0,0.0,0.0,0.0,0.0,0.0,0.0,0.0,0.0,0.0,0.0,0.0,0.0,0.0,0.0,0.0,0.0,0.0,0.0,0.0,-3.54,-3.5637,0.0,0.0,0.0,0.0,0.0,0.0,0.0,0.0,-3.7866,0.0,0.0,0.0,0.0,0.0,0.0,0.0,0.0,0.0,0.0,0.0,0.0,0.0,0.0,0.0,0.0,0.0,0.0,0.0,0.0,0.0,0.0,0.0,0.0,0.0,0.0,0.0,0.0,0.0,0.0,0.0,0.0,0.0,0.0,0.0,0.0,0.0,0.0,0.0,0.0,0.0,0.0,0.0,0.0,0.0,0.0,0.0,0.0,0.0,0.0,0.0,0.0,0.0,0.0,0.0,0.0,-3.5704,-3.7193,-3.8097,-3.8338,-3.9935,-4.0891,-4.1056,-3.949,-3.8535,-3.834,0.0,0.0,0.0,0.0,0.0,0.0,0.0,0.0,0.0,0.0,0.0,0.0,0.0,0.0,0.0,0.0,0.0,0.0,0.0,0.0,0.0,0.0,0.0,0.0,0.0,0.0,0.0,0.0,0.0,0.0,0.0,0.0,0.0,0.0,0.0,0.0,0.0,0.0,0.0,-3.6529,-3.6978,0.0,0.0,0.0,0.0,0.0,0.0,0.0,0.0,-3.8152,0.0,0.0,0.0,0.0,0.0,0.0,0.0,0.0,0.0,0.0,0.0,0.0,0.0,0.0,0.0,0.0,0.0,0.0,0.0,0.0,0.0,0.0,0.0,0.0,0.0,0.0,0.0,0.0,0.0,0.0,0.0,0.0,0.0,0.0,0.0,0.0,0.0,0.0,0.0,0.0,0.0,0.0,0.0,0.0,0.0,0.0,0.0,0.0,0.0,0.0,0.0,0.0,0.0,0.0,0.0,-3.5781,-3.7348,-3.8222,-3.8352,-4.0042,-4.099,-4.1015,-3.9414,-3.8548,0.0,0.0,0.0,0.0,0.0,0.0,0.0,0.0,0.0,0.0,0.0,0.0,0.0,0.0,0.0,0.0,0.0,0.0,0.0,0.0,0.0,0.0,0.0,0.0,0.0,0.0,0.0,0.0,0.0,0.0,0.0,0.0,0.0,0.0,0.0,0.0,0.0,0.0,0.0,0.0,-3.7065,-3.7796,-3.8692,0.0,0.0,0.0,0.0,0.0,0.0,-3.9944,-3.9078,0.0,0.0,0.0,0.0,0.0,0.0,0.0,0.0,0.0,0.0,0.0,0.0,0.0,0.0,0.0,0.0,0.0,0.0,0.0,0.0,0.0,0.0,0.0,0.0,0.0,0.0,0.0,0.0,0.0,0.0,0.0,0.0,0.0,0.0,0.0,0.0,0.0,0.0,0.0,0.0,0.0,0.0,0.0,0.0,0.0,0.0,0.0,0.0,0.0,0.0,0.0,0.0,0.0,0.0,0.0,-3.5767,-3.7348,-3.8225,-3.834,-3.999,-4.0924,-4.0951,-3.9353,-3.8482,0.0,0.0,0.0,0.0,0.0,0.0,0.0,0.0,0.0,0.0,0.0,0.0,0.0,0.0,0.0,0.0,0.0,0.0,0.0,0.0,0.0,0.0,0.0,0.0,0.0,0.0,0.0,0.0,0.0,0.0,0.0,0.0,0.0,0.0,0.0,0.0,0.0,0.0,0.0,0.0,0.0,-3.867,-3.9646,-4.075,0.0,0.0,0.0,0.0,-4.2612,-4.1254,0.0,0.0,0.0,0.0,0.0,0.0,0.0,0.0,0.0,0.0,0.0,0.0,0.0,0.0,0.0,0.0,0.0,0.0,0.0,0.0,0.0,0.0,0.0,0.0,0.0,0.0,0.0,0.0,0.0,0.0,0.0,0.0,0.0,0.0,0.0,0.0,0.0,0.0,0.0,0.0,0.0,0.0,0.0,0.0,0.0,0.0,0.0,0.0,0.0,0.0,0.0,0.0,0.0,0.0,0.0,0.0,-3.5767,-3.7348,-3.8205,-3.828,-3.9966,-4.0893,-4.0887,-3.9292,-3.8434,0.0,0.0,0.0,0.0,0.0,0.0,0.0,0.0,0.0,0.0,0.0,0.0,0.0,0.0,0.0,0.0,0.0,0.0,0.0,0.0,0.0,0.0,0.0,0.0,0.0,0.0,0.0,0.0,0.0,0.0,0.0,0.0,0.0,0.0,0.0,0.0,0.0,0.0,0.0,0.0,0.0,-3.9734,-4.0614,-4.2242,-4.3413,0.0,0.0,-4.4411,-4.3656,-4.2674,0.0,0.0,0.0,0.0,0.0,0.0,0.0,0.0,0.0,0.0,0.0,0.0,0.0,0.0,0.0,0.0,0.0,0.0,0.0,0.0,0.0,0.0,0.0,0.0,0.0,0.0,0.0,0.0,0.0,0.0,0.0,0.0,0.0,0.0,0.0,0.0,0.0,0.0,0.0,0.0,0.0,0.0,0.0,0.0,0.0,0.0,0.0,0.0,0.0,0.0,0.0,0.0,0.0,0.0,0.0,-3.5704,-3.5767,-3.7367,-3.8212,-3.8251,-3.9915,-4.0602,-4.0123,-3.8954,-3.812,0.0,0.0,0.0,0.0,0.0,0.0,0.0,0.0,0.0,0.0,0.0,0.0,0.0,0.0,0.0,0.0,0.0,0.0,0.0,0.0,0.0,0.0,0.0,0.0,0.0,0.0,0.0,0.0,0.0,0.0,0.0,0.0,0.0,0.0,0.0,0.0,0.0,0.0,0.0,0.0,0.0,0.0,-4.2155,-4.3065,0.0,0.0,0.0,-4.4139,-4.3762,0.0,0.0,0.0,0.0,0.0,0.0,0.0,0.0,0.0,0.0,0.0,0.0,0.0,0.0,0.0,0.0,0.0,0.0,0.0,0.0,0.0,0.0,0.0,0.0,0.0,0.0,0.0,0.0,0.0,0.0,0.0,0.0,0.0,0.0,0.0,0.0,0.0,0.0,0.0,0.0,0.0,0.0,0.0,0.0,0.0,0.0,0.0,0.0,0.0,0.0,0.0,0.0,0.0,0.0,0.0,0.0,0.0,-3.5723,-3.7324,-3.815,-3.8251,-3.9901,-4.039,-3.9507,-3.8708,0.0,0.0,0.0,0.0,0.0,0.0,0.0,0.0,0.0,0.0,0.0,0.0,0.0,0.0,0.0,0.0,0.0,0.0,0.0,0.0,0.0,0.0,0.0,0.0,0.0,0.0,0.0,-3.5182,0.0,0.0,0.0,0.0,0.0,0.0,0.0,0.0,0.0,0.0,0.0,0.0,0.0,0.0,-4.0767,-4.2957,-4.3537,-4.4059,0.0,0.0,-4.4201,-4.3766,-4.2555,-4.1355,0.0,0.0,0.0,0.0,0.0,0.0,0.0,0.0,0.0,0.0,0.0,0.0,0.0,0.0,0.0,0.0,0.0,0.0,0.0,0.0,0.0,0.0,0.0,0.0,0.0,0.0,0.0,0.0,0.0,0.0,0.0,0.0,0.0,0.0,0.0,0.0,0.0,0.0,0.0,0.0,0.0,0.0,0.0,0.0,0.0,0.0,0.0,0.0,0.0,0.0,0.0,0.0,0.0,0.0,0.0,-3.5756,-3.7225,-3.8067,-3.8251,-3.9901,-4.039,-3.9501,-3.8649,-3.7815,0.0,0.0,0.0,0.0,0.0,0.0,0.0,0.0,0.0,0.0,0.0,0.0,0.0,0.0,0.0,0.0,0.0,0.0,0.0,0.0,0.0,0.0,0.0,0.0,0.0,0.0,0.0,0.0,0.0,0.0,0.0,0.0,0.0,0.0,0.0,0.0,0.0,0.0,0.0,0.0,0.0,-4.1916,-4.2241,-4.3684,-4.477,0.0,0.0,-4.556,-4.3941,-4.3535,-4.3123,-4.2254,0.0,0.0,0.0,0.0,0.0,0.0,0.0,0.0,0.0,0.0,0.0,0.0,0.0,0.0,0.0,0.0,0.0,0.0,0.0,0.0,0.0,0.0,0.0,0.0,0.0,0.0,0.0,0.0,0.0,0.0,0.0,0.0,0.0,0.0,0.0,0.0,0.0,0.0,0.0,0.0,0.0,0.0,0.0,0.0,0.0,0.0,0.0,0.0,0.0,0.0,0.0,0.0,0.0,-3.522,-3.5336,-3.7002,-3.7908,-3.801,-3.9779,-4.0314,-3.9444,-3.8632,-3.779,0.0,0.0,0.0,0.0,0.0,0.0,0.0,0.0,0.0,0.0,0.0,0.0,0.0,0.0,0.0,0.0,0.0,0.0,0.0,0.0,0.0,0.0,0.0,0.0,0.0,0.0,0.0,0.0,-3.5182,-3.5182,-3.5182,0.0,0.0,0.0,0.0,0.0,0.0,0.0,0.0,0.0,0.0,-4.1955,-4.4199,-4.463,0.0,0.0,-4.5631,-4.5277,-4.46,-4.4004,-4.3297,-4.2435,-4.1529,0.0,0.0,0.0,0.0,0.0,0.0,0.0,0.0,0.0,0.0,0.0,0.0,0.0,0.0,0.0,0.0,0.0,0.0,0.0,0.0,0.0,0.0,0.0,0.0,0.0,0.0,0.0,0.0,0.0,0.0,0.0,0.0,0.0,0.0,0.0,0.0,0.0,0.0,0.0,0.0,0.0,0.0,0.0,0.0,0.0,0.0,0.0,0.0,0.0,0.0,0.0,0.0,-3.5006,-3.5064,-3.6787,-3.7681,-3.7734,-3.9511,-3.9934,-3.8876,-3.8281,-3.7467,0.0,0.0,0.0,0.0,0.0,0.0,0.0,0.0,0.0,0.0,0.0,0.0,0.0,0.0,0.0,0.0,0.0,0.0,0.0,0.0,0.0,0.0,0.0,0.0,0.0,0.0,0.0,0.0,-3.5182,-3.5182,-3.5182,0.0,0.0,0.0,0.0,0.0,0.0,0.0,0.0,0.0,0.0,-4.2563,-4.5115,-4.5193,-4.525,-4.6084,-4.5733,-4.5291,-4.5047,-4.4433,-4.3797,-4.3192,0.0,0.0,0.0,0.0,0.0,0.0,0.0,0.0,0.0,0.0,0.0,0.0,0.0,0.0,0.0,0.0,0.0,0.0,0.0,0.0,0.0,0.0,0.0,0.0,0.0,0.0,0.0,0.0,0.0,0.0,-3.9182,0.0,0.0,0.0,0.0,0.0,0.0,0.0,0.0,0.0,0.0,0.0,0.0,0.0,0.0,0.0,0.0,0.0,0.0,0.0,0.0,0.0,0.0,-3.4742,-3.5027,-3.651,-3.7373,-3.7538,-3.9089,-3.9175,-3.7661,-3.7537,-3.6757,-3.5138,0.0,0.0,0.0,0.0,0.0,0.0,0.0,0.0,0.0,0.0,0.0,0.0,0.0,0.0,0.0,0.0,0.0,0.0,0.0,0.0,0.0,0.0,0.0,0.0,0.0,0.0,-3.5193,-3.5182,-3.5201,0.0,0.0,0.0,0.0,0.0,0.0,0.0,0.0,0.0,0.0,-4.2996,-4.4077,-4.4344,-4.5162,-4.5814,-4.5982,-4.6134,-4.5976,-4.5146,-4.4935,-4.4863,0.0,0.0,0.0,0.0,0.0,0.0,0.0,0.0,0.0,0.0,0.0,0.0,0.0,0.0,0.0,0.0,0.0,0.0,0.0,0.0,0.0,0.0,0.0,0.0,0.0,0.0,0.0,-4.0182,-4.0528,0.0,0.0,0.0,0.0,0.0,0.0,0.0,0.0,0.0,0.0,0.0,-3.7504,-3.765,0.0,0.0,0.0,0.0,0.0,0.0,0.0,0.0,0.0,0.0,0.0,0.0,-3.4528,-3.4674,-3.626,-3.7114,-3.7187,-3.8947,-3.9381,-3.8327,-3.7766,-3.6719,-3.5073,0.0,0.0,0.0,0.0,0.0,0.0,0.0,0.0,0.0,0.0,0.0,0.0,0.0,0.0,0.0,0.0,0.0,0.0,0.0,0.0,0.0,0.0,0.0,0.0,0.0,-3.5084,0.0,0.0,0.0,0.0,0.0,0.0,0.0,0.0,0.0,0.0,0.0,-4.2259,-4.3042,-4.3713,-4.4336,-4.4994,-4.5508,-4.5838,0.0,0.0,0.0,0.0,0.0,0.0,0.0,0.0,0.0,0.0,0.0,0.0,0.0,0.0,-3.8598,-3.6948,-3.6154,-3.5699,-3.5713,0.0,0.0,0.0,0.0,0.0,0.0,0.0,0.0,0.0,0.0,0.0,0.0,0.0,0.0,0.0,0.0,-3.7956,0.0,0.0,0.0,0.0,0.0,0.0,0.0,0.0,-3.6612,-3.6776,-3.6939,-3.7167,-3.693,0.0,-3.6001,-3.5185,0.0,0.0,0.0,0.0,0.0,0.0,0.0,0.0,-3.4328,-3.4403,-3.6028,-3.6899,-3.6955,-3.8684,-3.9097,-3.8025,-3.6925,-3.5831,-3.4772,-3.4822,-3.4822,0.0,0.0,0.0,0.0,0.0,0.0,0.0,0.0,0.0,0.0,0.0,0.0,0.0,0.0,0.0,0.0,0.0,0.0,0.0,0.0,0.0,0.0,0.0,-3.4927,0.0,0.0,0.0,0.0,0.0,0.0,0.0,0.0,0.0,-4.0329,-4.2011,-4.3405,-4.393,-4.4315,-4.4748,-4.535,0.0,0.0,0.0,0.0,0.0,0.0,0.0,-4.6245,-4.6227,-4.5741,-4.5058,-4.4139,-4.2769,-4.1796,-4.1816,0.0,0.0,-3.8743,-3.7894,-3.7475,-3.7478,-3.7475,-3.7276,-3.6564,-3.6871,-3.708,0.0,0.0,0.0,0.0,0.0,0.0,0.0,0.0,-3.9175,-3.9434,0.0,-3.7962,0.0,0.0,0.0,0.0,0.0,0.0,0.0,0.0,-3.5815,-3.6075,-3.6118,-3.6673,-3.6527,-3.5808,-3.5981,-3.5386,-3.4142,-3.3773,0.0,0.0,0.0,0.0,0.0,0.0,-3.4185,-3.4228,-3.5795,-3.6649,-3.6668,-3.8204,-3.826,-3.6731,-3.5083,-3.4258,-3.4221,-3.4461,-3.4582,-3.4582,-3.4704,0.0,0.0,0.0,0.0,0.0,0.0,0.0,0.0,0.0,0.0,0.0,0.0,0.0,0.0,0.0,0.0,0.0,0.0,0.0,0.0,-3.4691,0.0,0.0,0.0,0.0,0.0,0.0,0.0,0.0,0.0,0.0,-4.2822,-4.3529,-4.4045,-4.4064,0.0,0.0,0.0,0.0,-4.5574,-4.5769,-4.5906,-4.6067,-4.625,-4.6282,-4.6288,-4.63,0.0,0.0,-4.5079,-4.42,-4.3588,-4.3588,-4.2941,-4.2024,-4.1147,-4.0767,-4.0629,-4.0642,-4.0565,-4.0338,-3.9248,-3.8885,-3.8642,-3.7564,0.0,0.0,0.0,0.0,-3.7644,-3.7528,-3.7103,-3.6952,-3.7347,-3.8005,-3.6727,0.0,0.0,0.0,0.0,0.0,0.0,-3.5316,-3.5201,-3.5385,-3.5459,-3.5459,-3.5941,-3.574,-3.4981,-3.5442,-3.5189,-3.4266,-3.3912,-3.372,-3.3689,0.0,0.0,0.0,0.0,-3.378,-3.3848,-3.4952,-3.5568,-3.5568,-3.675,-3.6904,-3.5863,-3.4773,-3.4216,-3.4216,-3.4293,-3.4356,-3.4465,-3.4498,0.0,0.0,0.0,0.0,0.0,0.0,0.0,0.0,0.0,0.0,0.0,0.0,0.0,0.0,0.0,0.0,0.0,0.0,0.0,-3.4321,-3.5079,-3.5453,0.0,0.0,0.0,0.0,0.0,0.0,0.0,0.0,0.0,-4.4315,-4.4741,-4.4914,0.0,0.0,-4.5277,-4.5277,-4.541,-4.5516,-4.5583,0.0,0.0,0.0,-4.6095,-4.6128,-4.6275,-4.6245,-4.6113,-4.5877,-4.5587,-4.5414,-4.5352,-4.5138,-4.485,-4.4408,-4.2404,-4.0967,-4.0809,-4.0797,-4.0649,-4.0181,-4.0362,-4.0348,-3.6527,-3.6814,-3.6662,-3.6542,-3.6417,-3.6869,-3.6841,-3.6464,-3.6279,-3.6582,-3.7145,-3.6013,-3.5892,-3.6506,-3.5916,0.0,0.0,0.0,-3.492,-3.4778,-3.492,-3.4991,-3.5031,-3.5402,-3.529,-3.489,-3.5301,-3.5156,-3.452,-3.4414,-3.4076,-3.3568,0.0,0.0,-3.3605,-3.3605,-3.3605,-3.3642,-3.4513,-3.5,-3.4986,-3.5602,-3.5707,-3.5209,-3.4397,-3.3959,-3.3959,-3.3959,-3.3998,-3.4086,-3.4086,-3.408,0.0,0.0,0.0,0.0,0.0,0.0,0.0,0.0,0.0,0.0,0.0,-3.445,0.0,0.0,0.0,0.0,-3.4883,-3.4964,-3.4843,-3.5836,0.0,0.0,0.0,0.0,0.0,0.0,0.0,-4.2932,-4.3028,-4.3467,-4.482,-4.5042,-4.5129,-4.5267,-4.5277,-4.5277,-4.5277,0.0,-4.5447,-4.5481,-4.5607,-4.5743,-4.5894,-4.5968,-4.6056,-4.6273,-4.6257,-4.6245,-4.6246,-4.623,-4.6177,-4.6156,-4.6147,-4.6098,-4.5983,-4.4253,-4.2878,-4.2795,-4.2789,-4.2626,-4.2121,-4.1996,-4.1618,-3.5538,-3.5567,-3.5843,-3.5677,-3.5342,-3.6017,-3.6314,-3.6314,-3.6536,-3.6681,-3.6662,-3.5728,-3.5289,-3.5218,-3.4857,0.0,-3.4101,-3.4472,-3.4431,-3.4126,-3.4489,-3.4643,-3.4667,-3.5008,-3.5155,-3.5155,-3.538,-3.5292,-3.4941,-3.505,-3.4567,-3.3509,-3.3247,-3.3274,-3.3502,-3.3534,-3.3516,-3.3549,-3.4287,-3.4681,-3.4695,-3.4695,-3.4695,-3.4692,-3.4002,-3.3605,-3.3605,-3.3605,-3.3605,-3.3605,-3.3605,-3.3605,-3.3573,0.0,0.0,0.0,0.0,0.0,0.0,0.0,0.0,0.0,0.0,0.0,0.0,0.0,0.0,0.0,-3.591,0.0,-3.5908,-3.69,0.0,0.0,0.0,-3.9517,-4.0325,-4.1148,-4.1969,-4.2853,0.0,0.0,-4.458,0.0,-4.4814,-4.5181,-4.5275,-4.5277,-4.5277,-4.5307,-4.535,-4.5455,-4.5463,-4.5566,-4.5764,-4.5899,-4.6029,-4.6211,-4.6275,-4.6257,-4.6142,-4.6105,-4.6093,-4.5898,-4.5969,-4.5917,-4.5864,-4.5601,-4.5827,-4.5389,-4.5492,-4.5307,-4.4341,-4.3347,-4.2316,-3.5652,-3.57,-3.6152,-3.5831,-3.5039,-3.5411,-3.5446,-3.5258,-3.5559,-3.5843,-3.6126,-3.6115,-3.5967,-3.5642,-3.4999,-3.4491,-3.4101,-3.4201,-3.4201,-3.4126,-3.4201,-3.425,-3.4275,-3.4643,-3.4835,-3.4818,-3.5131,-3.5221,-3.5121,-3.4769,-3.4172,-3.3356,-3.2829,-3.2651,-3.2834,-3.2832,-3.2912,-3.3055,-3.3403,-3.3687,-3.3897,-3.3879,-3.3879,-3.3879,-3.3715,-3.3605,-3.3605,-3.3605,-3.3605,-3.3605,-3.3605,-3.3502,-3.3309,-3.3512,0.0,0.0,0.0,0.0,0.0,0.0,0.0,0.0,0.0,-3.382,-3.3815,0.0,-3.4564,0.0,-3.5981,-3.6785,-3.6723,-3.823,0.0,0.0,-4.0636,-4.168,-4.1426,-4.2307,-4.3043,-4.326,-4.3511,-4.3781,-4.4136,-4.4299,-4.443,-4.4557,-4.4976,-4.5277,-4.5277,-4.5277,-4.5317,-4.533,-4.5351,-4.5438,-4.5576,-4.5814,-4.5935,-4.5987,-4.6072,-4.593,-4.5264,-4.5213,-4.5049,-4.4394,-4.4218,-4.4189,-4.4182,-4.4114,-4.4098,-4.403,-4.4451,-4.4814,-4.4559,-4.3571,-4.2421,-3.535,-3.5382,-3.5655,-3.544,-3.4942,-3.5561,-3.5741,-3.5591,-3.5324,-3.5461,-3.5892,-3.5902,-3.5799,-3.5542,-3.5145,-3.467,-3.4216,-3.42,-3.4024,-3.3761,-3.3848,-3.3924,-3.3924,-3.4259,-3.4423,-3.4448,-3.4626,-3.4802,-3.4934,-3.4351,-3.3756,-3.3152,-3.2536,-3.2113,-3.1948,-3.2179,-3.2437,-3.2753,-3.2864,-3.307,-3.3283,-3.3301,-3.3283,-3.3265,-3.3283,-3.3283,-3.3283,-3.3283,-3.3283,-3.3301,-3.3301,-3.3223,-3.3086,-3.3208,-3.3324,0.0,0.0,0.0,0.0,0.0,0.0,0.0,0.0,0.0,0.0,0.0,-3.4916,-3.5963,-3.7562,-3.8554,-3.8554,-3.9813,-4.0575,-4.0437,-4.1843,-4.2643,-4.2267,-4.2796,-4.3178,-4.3178,-4.3195,-4.337,-4.3717,-4.3878,-4.405,-4.426,-4.4623,-4.4898,-4.5076,-4.5194,-4.5277,-4.5277,-4.5277,-4.5208,-4.5062,-4.5163,-4.5165,-4.487,-4.485,-4.4737,-4.4338,-4.4315,-4.4198,-4.3761,-4.3628,-4.3613,-4.3564,-4.3546,-4.3531,-4.3479,-4.3462,-4.366,-4.3937,-4.3088,-4.2056,-3.4776,-3.4776,-3.4876,-3.4924,-3.4975,-3.5879,-3.6289,-3.6243,-3.5415,-3.5355,-3.5763,-3.5395,-3.5227,-3.5177,-3.5083,-3.4717,-3.4144,-3.4105,-3.377,-3.324,-3.3503,-3.3658,-3.3642,-3.3873,-3.4025,-3.405,-3.3953,-3.4104,-3.4454,-3.3747,-3.3168,-3.2734,-3.2138,-3.1578,-3.1078,-3.1471,-3.1949,-3.2437,-3.2505,-3.2621,-3.2802,-3.2802,-3.2818,-3.2818,-3.2752,-3.2719,-3.2737,-3.2703,-3.2703,-3.2721,-3.2719,-3.2719,-3.2719,-3.2792,-3.3165,0.0,-3.3966,0.0,0.0,0.0,0.0,0.0,0.0,0.0,0.0,-3.4427,-3.5554,-3.7882,-3.9572,-4.0528,-4.0528,-4.1342,-4.185,-4.1868,-4.2466,-4.2919,-4.2919,-4.2919,-4.2919,-4.2919,-4.2919,-4.305,-4.3352,-4.3439,-4.3638,-4.4004,-4.4188,-4.4355,-4.4637,-4.4988,-4.5224,-4.5235,-4.5191,-4.4863,-4.4281,-4.4225,-4.4111,-4.353,-4.3495,-4.336,-4.3386,-4.3419,-4.3392,-4.3318,-4.3235,-4.3266,-4.3281,-4.3242,-4.3196,-4.3044,-4.2521,-4.2344,-4.2866,-4.2297,-4.1525,-3.424,-3.4274,-3.471,-3.4924,-3.4924,-3.5106,-3.5219,-3.5204,-3.5005,-3.4978,-3.5091,-3.5021,-3.4775,-3.4483,-3.397,-3.3515,-3.3093,-3.298,-3.2878,-3.2753,-3.3171,-3.3372,-3.3372,-3.3424,-3.3581,-3.3739,-3.3168,-3.3045,-3.3397,-3.2682,-3.1974,-3.1287,-3.1157,-3.0964,-3.0699,0.0,0.0,0.0,-3.2004,-3.2231,-3.223,-3.2352,-3.242,-3.2403,-3.1986,0.0,-3.1771,-3.1716,-3.1678,-3.1679,-3.1735,0.0,0.0,0.0,0.0,0.0,0.0,0.0,0.0,0.0,0.0,0.0,-3.4953,-3.4587,-3.3776,-3.5052,-3.6658,-3.8405,-3.9852,-4.0686,-4.0746,-4.1853,-4.2606,-4.2683,-4.281,-4.2919,-4.2919,-4.29,-4.2919,-4.2919,-4.2919,-4.292,-4.2995,-4.3105,-4.3214,-4.3375,-4.3662,-4.3899,-4.3971,-4.4476,-4.4861,-4.4884,-4.4503,-4.4049,-4.3279,-4.3233,-4.325,-4.315,-4.3188,-4.295,-4.2396,-4.2419,-4.2241,-4.1755,-4.1556,-4.1636,-4.1607,-4.1578,-4.166,-4.1513,-4.1317,-4.1386,-4.2135,-4.147,-4.068,-3.3687,0.0,-3.3997,-3.4099,0.0,-3.4099,-3.4099,-3.4133,-3.439,-3.4509,-3.4509,-3.4776,-3.4797,-3.4572,-3.3966,-3.3405,-3.2886,-3.2477,-3.2125,-3.1836,-3.2437,-3.2683,-3.2711,-3.3091,-3.3198,-3.3004,-3.2628,-3.2354,-3.2135,-3.1598,-3.1114,-3.0776,-3.0519,-3.0369,-3.0258,-3.0151,-3.0477,-3.1225,-3.1475,-3.1678,-3.1735,-3.1824,-3.186,-3.1824,0.0,0.0,0.0,0.0,0.0,0.0,0.0,0.0,0.0,0.0,0.0,-3.3587,-3.3919,-3.4482,-3.5301,-3.5048,-3.4901,-3.5002,-3.5198,-3.5162,-3.4836,-3.6783,-3.8364,-3.9153,-4.025,-4.0906,-4.0967,-4.1556,-4.1994,-4.2098,-4.2118,-4.2218,-4.2498,-4.2537,-4.2555,-4.2595,-4.2768,-4.2807,-4.2595,-4.2843,-4.303,-4.3068,-4.2957,-4.2871,-4.2971,-4.3538,-4.3894,-4.3523,-4.3396,-4.299,-4.2277,-4.2258,-4.2174,-4.1945,-4.1844,-4.1721,-4.1377,-4.1424,-4.1367,-4.1052,-4.1039,-4.1064,-4.1088,-4.1101,-4.1071,-4.1015,-4.0662,-4.0454,-4.0825,-4.0732,-4.0591,-3.3276,-3.3276,-3.3276,-3.3276,-3.3276,-3.3276,-3.3276,-3.3312,0.0,0.0,0.0,-3.4423,-3.4566,-3.4438,-3.3823,-3.3211,-3.2535,-3.1967,-3.1424,-3.0911,-3.158,-3.1905,-3.1934,-3.2451,-3.2473,-3.1992,-3.1726,-3.1394,-3.0912,-3.0442,-3.0266,-3.0304,-2.9994,-2.9836,-2.9896,-2.9896,-3.0215,-3.0865,-3.0968,-3.1086,-3.1244,-3.1283,-3.1302,-3.1283,-3.1206,-3.1147,-3.1147,-3.1147,-3.1128,-3.1128,-3.1147,-3.145,-3.2124,-3.2273,-3.2966,-3.4307,-3.4518,-3.4895,-3.5554,-3.4931,-3.4618,-3.4836,-3.538,-3.5937,-3.6505,-3.8374,-3.9576,-3.9714,-4.0458,-4.0903,-4.0949,-4.1041,-4.111,-4.1241,-4.1281,-4.1464,-4.1931,-4.2032,-4.2053,-4.2095,-4.2378,-4.2518,-4.2139,-4.2334,-4.2589,-4.2592,-4.2105,-4.1614,-4.1696,-4.231,-4.2616,-4.2045,-4.203,-4.1867,-4.116,-4.1089,-4.1054,-4.0619,-4.0501,-4.0495,-4.0602,-4.0559,-4.0544,-4.0606,-4.0639,-4.0488,-4.0565,-4.0521,-4.065,-4.0664,-4.0095,-3.9532,-3.9487,-3.9908,-4.0203,-3.3276,-3.3276,-3.3276,-3.3276,-3.3276,-3.3276,-3.3276,-3.3276,-3.3396,-3.3417,-3.3417,-3.3472,-3.3245,-3.2721,-3.2113,-3.149,-3.0839,-3.0621,-3.0489,0.0,-3.094,-3.1175,-3.1131,-3.0741,-3.061,-3.0649,-2.9592,-2.9297,-2.9685,-2.9112,-2.8967,-2.9303,-2.9473,-2.9665,-2.9896,-2.9896,-2.9946,-3.006,-3.0456,-3.0686,-3.071,-3.0828,-3.0871,-3.0848,-3.0435,-3.0177,-3.0194,-3.0151,-3.0103,-3.0124,-3.0189,-3.0522,-3.1265,-3.1888,-3.2571,-3.3357,-3.39,-3.4293,-3.4496,-3.3824,-3.3756,-3.4534,-3.5753,-3.6909,-3.786,-3.8202,-3.8687,-3.9296,-3.9876,-4.0194,-4.0317,-4.0685,-4.0926,-4.1047,-4.1093,-4.1178,-4.1198,-4.1265,-4.1332,-4.1314,-4.1552,-4.1668,-4.148,-4.1354,-4.128,-4.125,-4.0959,-4.0615,-4.0225,-4.0917,-4.1352,-4.1027,-4.0917,-4.0609,-4.003,-3.9783,-3.9927,-4.007,-4.0053,-4.0109,-4.023,-3.986,-3.9585,-3.9611,-3.9267,-3.8942,-3.8906,-3.8865,-3.9057,-3.9109,-3.8886,-3.8684,-3.8629,-3.8709,-3.8654,-3.2295,-3.2381,-3.2789,-3.2717,-3.2331,-3.2561,-3.2775,-3.2966,-3.2966,-3.3122,-3.3262,-3.2974,-3.2679,-3.2328,-3.1387,-3.0811,-3.0488,-3.0089,-2.9943,-2.996,-3.0417,-3.0424,-3.0148,-3.0088,-2.9799,-2.9226,-2.8646,-2.8312,-2.8233,-2.804,-2.8076,-2.8247,-2.8496,-2.8732,-2.8919,-2.8919,-2.8982,-2.9051,-2.9815,-3.0236,-3.0236,-3.0279,-3.0305,-3.03,-3.006,-2.9946,-2.9946,-2.9902,-2.9896,-2.9896,-2.994,-3.0449,-3.1514,-3.1911,-3.2553,-3.3608,-3.3947,-3.4126,-3.4176,-3.3941,-3.3966,-3.4399,-3.5454,-3.6465,-3.7317,-3.8154,-3.8828,-3.9265,-3.9504,-3.9644,-3.9705,-3.9902,-3.9951,-3.9649,-3.9623,-3.9597,-3.9531,-3.9577,-3.964,-3.973,-4.0014,-4.0123,-3.9948,-4.0018,-4.0076,-4.0025,-3.9677,-3.9027,-3.833,-3.8653,-3.9172,-3.942,-3.9667,-3.9677,-3.9343,-3.9414,-3.9366,-3.9164,-3.9113,-3.9048,-3.8954,-3.8561,-3.8549,-3.864,-3.8389,-3.8294,-3.8303,-3.84,-3.8436,-3.8434,-3.8022,-3.7807,-3.7752,-3.7404,-3.7085,-3.123,-3.1318,-3.1905,-3.1796,-3.1267,-3.1563,-3.1856,-3.2123,-3.2037,-3.2162,-3.237,-3.2132,-3.1923,-3.1642,-3.0694,-3.0285,-3.0231,-2.9796,-2.9602,-2.962,-2.9848,-2.9716,-2.9258,-2.9363,-2.8833,-2.7956,-2.7752,-2.7428,-2.7037,-2.7185,-2.7363,-2.7515,-2.7715,-2.7898,-2.8055,-2.8055,-2.8128,-2.8288,-2.9074,-2.9515,-2.9538,-2.9554,-2.9554,-2.9538,-2.9538,-2.9538,-2.9538,-2.9538,-2.9538,-2.9538,-2.9538,-3.0225,-3.1701,-3.183,-3.2507,-3.3881,-3.4101,-3.3969,-3.3724,-3.3928,-3.3993,-3.3899,-3.463,-3.5418,-3.6243,-3.7454,-3.8368,-3.8642,-3.8682,-3.8715,-3.8709,-3.8752,-3.8595,-3.8151,-3.811,-3.8129,-3.8001,-3.7982,-3.8029,-3.8185,-3.8508,-3.8671,-3.8525,-3.8651,-3.88,-3.8661,-3.8222,-3.7607,-3.7103,-3.6876,-3.7129,-3.7708,-3.8227,-3.8483,-3.8617,-3.8544,-3.8351,-3.7926,-3.7941,-3.7863,-3.7583,-3.7405,-3.7304,-3.7509,-3.7475,-3.7342,-3.7541,-3.7625,-3.7615,-3.7556,-3.7177,-3.6861,-3.6894,-3.6431,-3.6008,-3.043,-3.043,-3.0493,-3.0506,-3.0468,-3.0455,-3.0506,-3.0517,-3.0038,-2.9805,-2.9939,-3.0542,-3.0408,-2.9792,-2.9635,-2.9568,-2.9635,-2.9631,-2.954,-2.9456,-2.9087,-2.8822,-2.8581,-2.7639,-2.706,-2.6863,-2.6452,-2.6372,-2.6537,-2.659,-2.689,-2.7439,-2.754,-2.7625,-2.7874,-2.7898,-2.7972,-2.8128,-2.8225,-2.8336,-2.8448,-2.8448,-2.8448,-2.8448,-2.8472,-2.8448,-2.8519,-2.8432,-2.8432,-2.8448,-2.848,-2.9309,-3.0979,-3.1258,-3.2116,-3.3905,-3.4059,-3.3609,-3.2593,-3.2954,-3.3108,-3.2676,-3.3258,-3.3979,-3.4789,-3.5502,-3.6195,-3.6741,-3.7018,-3.7169,-3.7122,-3.7265,-3.729,-3.7107,-3.7151,-3.7202,-3.7087,-3.7311,-3.7377,-3.7418,-3.7453,-3.7687,-3.7658,-3.753,-3.7339,-3.7123,-3.6988,-3.6779,-3.6556,-3.6143,-3.5906,-3.6147,-3.6328,-3.6726,-3.7163,-3.6611,-3.6552,-3.6753,-3.6851,-3.6812,-3.6738,-3.6415,-3.6119,-3.6225,-3.5938,-3.5755,-3.5791,-3.5759,-3.6015,-3.611,-3.6018,-3.5966,-3.6066,-3.584,-3.5715,-2.925,-2.9289,-2.9768,-3.0101,-3.0241,-2.9794,-2.9717,-2.9897,-2.9377,-2.8699,-2.8015,-2.8023,-2.819,-2.8473,-2.8144,-2.8034,-2.8163,-2.8195,-2.8072,-2.789,-2.7633,-2.7359,-2.6996,-2.6541,-2.6271,-2.6245,-2.6006,-2.5961,-2.6123,-2.615,-2.627,-2.6537,-2.6549,-2.6654,-2.6837,-2.6837,-2.6916,-2.703,-2.703,-2.7071,-2.721,-2.7913,-2.8288,-2.8288,-2.8288,-2.8288,-2.8288,-2.8288,-2.8288,-2.8288,-2.8216,-2.8719,-2.994,-2.9921,-3.0612,-3.2222,-3.2824,-3.2855,-3.2349,-3.2594,-3.2641,-3.2425,-3.2656,-3.2977,-3.3293,-3.3562,-3.3838,-3.4248,-3.5423,-3.612,-3.5803,-3.613,-3.6176,-3.5566,-3.5678,-3.5645,-3.4856,-3.5189,-3.5415,-3.5482,-3.5833,-3.6124,-3.6256,-3.6236,-3.5985,-3.5616,-3.549,-3.5352,-3.494,-3.4585,-3.4552,-3.4646,-3.4385,-3.4636,-3.5641,-3.5883,-3.5602,-3.5458,-3.557,-3.5692,-3.5384,-3.5195,-3.4936,-3.5124,-3.4993,-3.4952,-3.5246,-3.5225,-3.5335,-3.5057,-3.4443,-3.4319,-3.4378,-3.4376,-3.4336,-2.8139,-2.8219,-2.8791,-2.9186,-2.9395,-2.8846,-2.8694,-2.876,-2.8258,-2.7392,-2.6336,-2.5849,-2.6093,-2.6704,-2.6653,-2.6782,-2.7098,-2.7131,-2.6913,-2.6557,-2.6355,-2.6025,-2.5593,-2.5394,-2.5343,-2.5383,-2.5342,-2.5356,-2.5398,-2.5398,-2.5467,-2.5605,-2.5647,-2.577,-2.6002,-2.6056,-2.6125,-2.626,-2.626,-2.626,-2.6433,-2.7236,-2.775,-2.7765,-2.7765,-2.775,-2.775,-2.7765,-2.775,-2.7765,-2.766,-2.8001,-2.8844,-2.8783,-2.9436,-3.0937,-3.1646,-3.1989,-3.2018,-3.202,-3.1949,-3.1794,-3.1766,-3.1794,-3.1836,-3.1949,-3.202,-3.2083,-3.3553,-3.4387,-3.4403,-3.475,-3.4652,-3.3884,-3.4224,-3.409,-3.3388,-3.3594,-3.386,-3.3743,-3.4048,-3.4279,-3.4232,-3.4267,-3.4172,-3.3835,-3.374,-3.3645,-3.3131,-3.3,-3.2988,-3.3131,-3.2544,-3.2936,-3.4306,-3.4422,-3.4368,-3.4271,-3.4213,-3.4254,-3.3987,-3.3974,-3.3833,-3.4062,-3.4223,-3.4148,-3.3893,-3.4065,-3.4404,-3.3947,-3.3442,-3.3134,-3.3482,-3.3327,-3.3347,-2.7272,-2.726,-2.7313,-2.7423,-2.7353,-2.7342,-2.7065,-2.6825,-2.6174,-2.5566,-2.507,-2.4574,-2.4344,-2.4561,-2.5429,-2.6214,-2.6815,-2.679,-2.6458,-2.5953,-2.5454,-2.506,-2.4719,-2.4157,-2.3972,-2.4208,-2.4224,-2.4195,-2.4166,-2.4137,-2.4423,-2.4991,-2.5033,-2.5314,-2.5729,-2.5784,-2.5948,-2.5948,-2.5975,-2.6111,-2.626,-2.6353,-2.6418,-2.6486,-2.6433,-2.6486,-2.6459,-2.642,-2.6433,-2.6433,-2.6459,-2.6958,-2.8071,-2.8213,-2.8991,-3.0546,-3.0885,-3.094,-3.1011,-3.1013,-3.0837,-3.0372,-3.0372,-3.0341,-3.0583,-3.094,-3.0999,-3.0747,-3.1367,-3.2004,-3.2419,-3.2874,-3.2975,-3.2816,-3.2926,-3.2986,-3.2944,-3.2893,-3.2902,-3.2437,-3.2406,-3.2398,-3.1839,-3.1694,-3.2029,-3.205,-3.2001,-3.195,-3.1949,-3.1792,-3.1583,-3.1319,-3.1316,-3.1792,-3.3142,-3.323,-3.2772,-3.2778,-3.3057,-3.2975,-3.319,-3.3288,-3.3077,-3.2948,-3.3029,-3.2873,-3.2422,-3.2392,-3.2724,-3.2671,-3.2634,-3.2559,-3.2454,-3.3014,-3.2981,-2.719,-2.719,-2.719,-2.719,-2.719,-2.719,-2.6932,-2.6455,-2.5934,-2.5417,-2.4889,-2.4407,-2.4189,-2.4189,-2.4611,-2.4981,-2.5322,-2.5031,-2.4641,-2.4232,-2.3721,-2.3427,-2.3358,-2.3133,-2.3284,-2.3627,-2.3686,-2.3758,-2.3846,-2.3875,-2.4034,-2.4308,-2.4352,-2.4509,-2.4639,-2.4667,-2.4724,-2.4739,-2.4739,-2.4992,-2.5425,-2.5481,-2.5647,-2.6029,-2.6206,-2.6313,-2.6313,-2.6313,-2.6313,-2.6313,-2.6233,-2.6372,-2.6816,-2.7272,-2.7744,-2.8414,-2.8906,-2.92,-2.9262,-2.9594,-2.9751,-2.96,-2.9911,-3.0038,-3.0083,-2.9934,-2.9721,-2.969,-2.9872,-3.011,-3.0134,-3.1135,-3.1918,-3.1577,-3.1594,-3.1512,-3.1232,-3.1133,-3.1051,-3.0902,-3.1123,-3.1399,-3.1235,-3.1414,-3.1334,-3.1051,-3.1024,-3.0824,-3.0461,-3.0362,-3.032,-3.0178,-3.0196,-3.0336,-3.0316,-3.1517,-3.1969,-3.2073,-3.2169,-3.2026,-3.212,-3.1799,-3.1534,-3.1547,-3.1657,-3.177,-3.137,-3.1382,-3.16,-3.1618,-3.1587,-3.145,-3.1258,-3.1749,-3.1759,-2.719,-2.719,-2.719,-2.719,-2.7179,-2.7047,-2.6691,-2.6226,-2.5681,-2.5164,-2.4682,-2.4338,-2.4189,-2.4189,-2.4189,-2.4273,-2.4324,-2.3873,-2.3387,-2.2989,-2.2533,-2.2285,-2.2216,-2.2237,-2.2482,-2.2847,-2.2907,-2.2997,-2.31,-2.313,-2.331,-2.3623,-2.3653,-2.38,-2.3933,-2.3992,-2.3992,-2.3992,-2.3992,-2.425,-2.4637,-2.4666,-2.4865,-2.5245,-2.5439,-2.5797,-2.6111,-2.6002,-2.5893,-2.5839,-2.5605,-2.5412,-2.5467,-2.5855,-2.63,-2.6693,-2.7186,-2.7538,-2.7749,-2.8186,-2.8336,-2.8156,-2.8474,-2.8756,-2.8756,-2.8343,-2.8128,-2.8173,-2.8281,-2.815,-2.8099,-2.9111,-3.0017,-3.0075,-3.0208,-3.0108,-2.9773,-2.9734,-2.9537,-2.9187,-2.9034,-2.9327,-2.9697,-2.9606,-2.945,-2.9316,-2.9445,-2.9186,-2.8834,-2.8912,-2.9042,-2.8898,-2.893,-2.8796,-2.8771,-2.9459,-3.0153,-3.0345,-3.0612,-3.0659,-3.079,-3.0406,-3.0187,-3.0177,-3.0278,-3.0464,-3.052,-3.0514,-3.0527,-3.0562,-3.0486,-3.0388,-3.0349,-3.0419,-3.0661,-2.719,-2.719,-2.719,-2.7156,-2.7064,-2.6714,-2.6237,-2.567,-2.5138,-2.4728,-2.4315,-2.42,-2.4189,-2.4189,-2.4189,-2.42,-2.4145,-2.3615,-2.3121,-2.2718,-2.2144,-2.1735,-2.1506,-2.1514,-2.16,-2.1831,-2.1761,-2.1749,-2.1862,-2.1894,-2.2211,-2.2768,-2.2889,-2.3148,-2.3904,-2.3758,-2.3846,-2.3816,-2.3758,-2.3875,-2.3992,-2.4005,-2.4063,-2.4108,-2.4166,-2.4696,-2.577,-2.53,-2.502,-2.4935,-2.4439,-2.405,-2.4166,-2.4247,-2.4646,-2.5641,-2.5891,-2.6192,-2.6641,-2.678,-2.6607,-2.6312,-2.606,-2.641,-2.6591,-2.637,-2.6326,-2.6472,-2.6537,-2.6417,-2.6421,-2.6769,-2.7436,-2.8426,-2.8723,-2.8735,-2.8791,-2.8915,-2.8598,-2.7518,-2.6714,-2.603,-2.6299,-2.6656,-2.6761,-2.7111,-2.7174,-2.7166,-2.714,-2.7342,-2.7442,-2.7342,-2.7306,-2.7183,-2.7259,-2.7488,-2.7925,-2.8317,-2.8667,-2.8878,-2.935,-2.9253,-2.9026,-2.8986,-2.9176,-2.9341,-2.9426,-2.9421,-2.9553,-2.9572,-2.9447,-2.9587,-2.9834,-3.0025,-3.017,-2.719,-2.719,-2.719,-2.7013,-2.6714,-2.657,-2.5991,-2.5138,-2.4958,-2.4636,-2.4258,-2.4189,-2.4189,-2.4189,-2.4189,-2.42,-2.412,-2.3339,-2.2834,-2.2559,-2.1801,-2.1374,-2.1288,-2.1273,-2.1316,-2.1328,-2.136,-2.1423,-2.1474,-2.1506,-2.1726,-2.2018,-2.208,-2.2192,-2.2457,-2.2519,-2.2537,-2.2567,-2.2567,-2.2798,-2.3297,-2.3297,-2.3463,-2.3933,-2.3992,-2.4224,-2.4553,-2.441,-2.4295,-2.4295,-2.4108,-2.3992,-2.3992,-2.3992,-2.42,-2.4519,-2.4588,-2.4657,-2.4882,-2.5296,-2.5474,-2.5371,-2.5616,-2.5888,-2.587,-2.5444,-2.521,-2.5299,-2.5388,-2.5347,-2.5021,-2.5404,-2.6134,-2.7122,-2.7009,-2.6903,-2.6918,-2.6595,-2.6204,-2.5953,-2.5536,-2.5495,-2.5646,-2.5577,-2.5645,-2.5874,-2.5845,-2.5704,-2.5681,-2.5633,-2.564,-2.5705,-2.5634,-2.5546,-2.5599,-2.5605,-2.579,-2.6414,-2.6883,-2.7458,-2.7904,-2.8101,-2.7891,-2.7973,-2.814,-2.8319,-2.8367,-2.8516,-2.873,-2.8904,-2.9023,-2.9272,-2.956,-2.9736,-2.9848,-2.6693,-2.664,-2.6162,-2.5795,-2.5502,-2.5181,-2.4826,-2.4423,-2.4269,-2.4169,-2.4198,-2.4189,-2.4189,-2.4116,-2.3897,-2.3751,-2.3602,-2.2445,-2.185,-2.1843,-2.1487,-2.1213,-2.1201,-2.1201,-2.1201,-2.1201,-2.1201,-2.1253,-2.1336,-2.1336,-2.1443,-2.158,-2.1592,-2.1655,-2.1698,-2.1792,-2.1812,-2.1812,-2.1843,-2.2068,-2.2445,-2.2476,-2.2689,-2.31,-2.3177,-2.3237,-2.322,-2.331,-2.3416,-2.3564,-2.3475,-2.3339,-2.3339,-2.3297,-2.3429,-2.3623,-2.3669,-2.3682,-2.3708,-2.4073,-2.4163,-2.4101,-2.4295,-2.4504,-2.4423,-2.4016,-2.3859,-2.3859,-2.3928,-2.386,-2.3579,-2.3865,-2.4529,-2.4949,-2.5314,-2.5362,-2.5353,-2.4995,-2.475,-2.4765,-2.4624,-2.4709,-2.4922,-2.4623,-2.4736,-2.4833,-2.4622,-2.4403,-2.4277,-2.4176,-2.4232,-2.4206,-2.4022,-2.3931,-2.3849,-2.3807,-2.374,-2.4402,-2.5152,-2.595,-2.6621,-2.6728,-2.6655,-2.7127,-2.7395,-2.7829,-2.7932,-2.8139,-2.8363,-2.848,-2.8597,-2.877,-2.8968,-2.9292,-2.9439,-2.5714,-2.5554,-2.4429,-2.4001,-2.3803,-2.3092,-2.3105,-2.3444,-2.3134,-2.332,-2.3849,-2.3813,-2.3934,-2.3813,-2.3187,-2.2931,-2.2624,-2.132,-2.0575,-2.0647,-2.0721,-2.0828,-2.0828,-2.0807,-2.0796,-2.0871,-2.0903,-2.0999,-2.1031,-2.0924,-2.1221,-2.1368,-2.1305,-2.1454,-2.1561,-2.1667,-2.1655,-2.1667,-2.1698,-2.1718,-2.1781,-2.1749,-2.1761,-2.1843,-2.1987,-2.2037,-2.2111,-2.2235,-2.25,-2.2902,-2.2519,-2.2309,-2.2216,-2.2197,-2.25,-2.298,-2.3027,-2.3027,-2.3027,-2.306,-2.2916,-2.2517,-2.248,-2.2197,-2.2485,-2.2608,-2.2546,-2.249,-2.2466,-2.2375,-2.237,-2.2543,-2.2659,-2.2647,-2.3722,-2.4332,-2.4525,-2.4234,-2.4031,-2.393,-2.3662,-2.3535,-2.4019,-2.3342,-2.328,-2.3456,-2.3286,-2.3068,-2.3009,-2.2963,-2.3024,-2.2883,-2.2652,-2.2696,-2.2751,-2.2644,-2.2642,-2.3207,-2.3878,-2.4601,-2.5481,-2.5677,-2.5982,-2.6437,-2.6757,-2.7191,-2.7485,-2.7631,-2.7848,-2.8025,-2.8121,-2.8192,-2.8435,-2.8787,-2.9004,-2.4672,-2.4377,-2.4044,-2.3493,-2.2912,-2.26,-2.2358,-2.2296,-2.217,-2.222,-2.2446,-2.2435,-2.2483,-2.2397,-2.2258,-2.1987,-2.1476,-2.0597,-2.0066,-1.991,-1.9525,-1.9518,-1.9573,-1.9606,-1.9639,-1.9671,-1.9726,-1.9879,-2.0302,-1.9933,-2.0193,-2.121,-2.0688,-2.0752,-2.1233,-2.1348,-2.1463,-2.1474,-2.1474,-2.1549,-2.1667,-2.1549,-2.1549,-2.1698,-2.1686,-2.1718,-2.1761,-2.1792,-2.1937,-2.2161,-2.1999,-2.1824,-2.1855,-2.1855,-2.1999,-2.2192,-2.2254,-2.2223,-2.2254,-2.2254,-2.2111,-2.1917,-2.1874,-2.1987,-2.1987,-2.2123,-2.2166,-2.2197,-2.2197,-2.2135,-2.2197,-2.2185,-2.2216,-2.2309,-2.275,-2.3173,-2.3275,-2.3228,-2.3241,-2.3173,-2.2803,-2.2744,-2.2584,-2.2315,-2.2015,-2.2109,-2.1938,-2.1694,-2.1681,-2.156,-2.1502,-2.1656,-2.1594,-2.1684,-2.1701,-2.1582,-2.1712,-2.2198,-2.2791,-2.337,-2.4307,-2.5056,-2.5561,-2.6106,-2.6229,-2.6556,-2.6757,-2.6922,-2.7192,-2.7497,-2.7648,-2.7736,-2.8061,-2.8379,-2.8506,-2.312,-2.2742,-2.219,-2.1672,-2.1172,-2.0996,-2.0918,-2.0982,-2.0981,-2.1211,-2.1431,-2.1507,-2.1507,-2.1469,-2.1163,-2.0769,-2.0302,-1.9434,-1.8834,-1.8549,-1.8086,-1.8307,-1.8811,-1.9011,-1.9011,-1.9011,-1.9011,-1.9276,-1.9507,-1.9177,-1.9529,-1.9998,-1.9835,-1.9868,-2.0172,-2.0355,-2.0581,-2.0773,-2.088,-2.1019,-2.1434,-2.138,-2.1146,-2.1126,-2.1094,-2.1063,-2.0828,-2.072,-2.0999,-2.158,-2.1761,-2.171,-2.171,-2.171,-2.1761,-2.1812,-2.1812,-2.18,-2.1812,-2.1812,-2.1792,-2.1655,-2.1549,-2.1368,-2.1293,-2.1293,-2.1187,-2.1123,-2.1273,-2.1316,-2.1316,-2.1305,-2.1305,-2.1273,-2.1494,-2.1882,-2.2463,-2.2531,-2.2396,-2.2219,-2.2038,-2.1719,-2.136,-2.0864,-2.0652,-2.0484,-2.0185,-2.0176,-2.0236,-2.0104,-2.0118,-2.0372,-2.0623,-2.0784,-2.0981,-2.0957,-2.1068,-2.1506,-2.186,-2.2406,-2.3267,-2.4266,-2.4851,-2.5338,-2.5598,-2.5854,-2.6052,-2.628,-2.6607,-2.6871,-2.7067,-2.721,-2.7404,-2.7805,-2.7935,-2.1372,-2.0985,-1.9815,-1.9283,-1.9276,-1.8892,-1.9298,-1.9726,-1.9825,-2.0168,-2.0653,-2.0836,-2.0691,-2.0797,-2.008,-1.9561,-1.9052,-1.8154,-1.7458,-1.7126,-1.695,-1.7345,-1.8341,-1.8432,-1.8509,-1.8576,-1.8734,-1.8767,-1.8777,-1.8777,-1.8877,-1.9077,-1.9044,-1.8977,-1.9243,-1.9177,-1.9408,-1.9901,-1.9998,-2.0258,-2.0656,-2.072,-2.0495,-2.0128,-2.0172,-2.0031,-1.9683,-1.9519,-1.9933,-2.1328,-2.1434,-2.1244,-2.1308,-2.1371,-2.1371,-2.1296,-2.1221,-2.1253,-2.136,-2.1233,-2.1328,-2.1126,-2.0677,-2.0462,-2.0398,-2.0193,-2.002,-2.0096,-1.9987,-2.0226,-2.0291,-2.0193,-2.0291,-2.0323,-2.0193,-2.0709,-2.1671,-2.1885,-2.1523,-2.1122,-2.1164,-2.0647,-1.9948,-1.9212,-1.8899,-1.9416,-1.9122,-1.9188,-1.9289,-1.9285,-1.9305,-1.9422,-1.9669,-1.9901,-2.0156,-2.0372,-2.0573,-2.0847,-2.114,-2.1643,-2.2415,-2.3274,-2.3897,-2.4389,-2.4697,-2.507,-2.5433,-2.5711,-2.5928,-2.6072,-2.6162,-2.6264,-2.6436,-2.6985,-2.728,-2.0066,-1.9705,-1.9427,-1.9131,-1.8842,-1.8736,-1.8812,-1.8962,-1.8962,-1.9112,-1.9231,-1.9262,-1.9262,-1.9262,-1.9058,-1.8584,-1.8001,-1.7402,-1.6928,-1.6333,-1.6369,-1.6473,-1.695,-1.7157,-1.7251,-1.7364,-1.7217,-1.7516,-1.7935,-1.7799,-1.7935,-1.8744,-1.8375,-1.8465,-1.8834,-1.88,-1.9044,-1.921,-1.9233,-1.9342,-1.9529,-1.9606,-1.9507,-1.9276,-1.9266,-1.9243,-1.9177,-1.9067,-1.9233,-1.9474,-1.9606,-1.9639,-1.977,-1.9737,-1.9835,-1.9933,-1.9901,-1.9901,-1.9857,-1.9933,-1.977,-1.977,-1.9694,-1.9584,-1.9584,-1.9541,-1.9596,-1.9759,-1.9835,-1.9781,-1.9901,-2.0063,-1.9966,-1.9835,-1.954,-1.9573,-2.03,-2.0371,-2.0195,-1.9984,-1.9636,-1.92,-1.8954,-1.8469,-1.8263,-1.8308,-1.8305,-1.8336,-1.8379,-1.8456,-1.8536,-1.8563,-1.891,-1.92,-1.9436,-1.9759,-2.008,-2.0233,-2.0485,-2.0758,-2.1534,-2.2216,-2.2825,-2.3362,-2.3837,-2.4246,-2.4701,-2.4725,-2.4867,-2.5041,-2.5271,-2.5491,-2.5784,-2.6248,-2.664,-1.9049,-1.8717,-1.8667,-1.8545,-1.8388,-1.8371,-1.8371,-1.8371,-1.8371,-1.8371,-1.8371,-1.8362,-1.8371,-1.8353,-1.817,-1.78,-1.7238,-1.6746,-1.6371,-1.606,-1.614,-1.6202,-1.6237,-1.6307,-1.6447,-1.6595,-1.6542,-1.6811,-1.6959,-1.6925,-1.7019,-1.7662,-1.7457,-1.7448,-1.7857,-1.8003,-1.8182,-1.8476,-1.8543,-1.8677,-1.8944,-1.9011,-1.8777,-1.8509,-1.824,-1.8012,-1.7988,-1.7978,-1.8003,-1.8003,-1.8037,-1.8365,-1.8911,-1.9011,-1.9044,-1.9133,-1.9166,-1.9166,-1.9177,-1.9144,-1.9166,-1.8977,-1.8844,-1.871,-1.86,-1.8556,-1.8445,-1.858,-1.8623,-1.8777,-1.8977,-1.9077,-1.9121,-1.9054,-1.8798,-1.8764,-1.9005,-1.9158,-1.9088,-1.889,-1.8511,-1.7933,-1.7556,-1.7428,-1.7289,-1.7188,-1.7283,-1.7318,-1.7473,-1.754,-1.7705,-1.787,-1.8224,-1.8509,-1.8762,-1.9107,-1.9539,-1.9694,-1.9823,-2.0055,-2.0496,-2.1099,-2.1687,-2.2294,-2.2958,-2.3493,-2.3891,-2.3876,-2.393,-2.4277,-2.4581,-2.4804,-2.5096,-2.5456,-2.5855,-1.8323,-1.7991,-1.7991,-1.7991,-1.7991,-1.8031,-1.8031,-1.804,-1.7991,-1.808,-1.7991,-1.7991,-1.808,-1.7963,-1.7694,-1.7261,-1.673,-1.6244,-1.5875,-1.5893,-1.6,-1.6035,-1.607,-1.607,-1.614,-1.6202,-1.6272,-1.6342,-1.6377,-1.6307,-1.6482,-1.6412,-1.6508,-1.6707,-1.6682,-1.676,-1.7166,-1.7628,-1.7662,-1.7867,-1.8273,-1.8365,-1.8128,-1.7765,-1.7329,-1.7028,-1.7028,-1.6968,-1.6899,-1.683,-1.6864,-1.7501,-1.8273,-1.8677,-1.8687,-1.8643,-1.8543,-1.8476,-1.8442,-1.8543,-1.8543,-1.8643,-1.8206,-1.7876,-1.7774,-1.7569,-1.7467,-1.7432,-1.7579,-1.7759,-1.7681,-1.7964,-1.8042,-1.8008,-1.7974,-1.794,-1.7997,-1.8258,-1.8216,-1.7884,-1.7567,-1.7089,-1.6601,-1.6306,-1.6153,-1.6095,-1.623,-1.6374,-1.6534,-1.6733,-1.6948,-1.7162,-1.7512,-1.7815,-1.8061,-1.8371,-1.8827,-1.8987,-1.9105,-1.933,-1.954,-1.9953,-2.0582,-2.1462,-2.2123,-2.256,-2.2846,-2.2817,-2.304,-2.3485,-2.3822,-2.4023,-2.4318,-2.4657,-2.5047,-1.8051,-1.7991,-1.7991,-1.7991,-1.7991,-1.7991,-1.7991,-1.7991,-1.7991,-1.7991,-1.7991,-1.7991,-1.7991,-1.7929,-1.7638,-1.709,-1.6447,-1.5985,-1.5805,-1.5805,-1.5867,-1.5867,-1.5867,-1.5903,-1.5903,-1.5938,-1.6035,-1.6167,-1.6237,-1.6307,-1.6246,-1.6281,-1.6342,-1.6333,-1.6377,-1.6412,-1.6517,-1.6751,-1.6786,-1.6881,-1.6985,-1.7019,-1.7044,-1.6915,-1.6751,-1.6682,-1.6612,-1.6508,-1.6473,-1.6603,-1.6647,-1.689,-1.727,-1.7373,-1.7373,-1.7442,-1.7476,-1.751,-1.7476,-1.7373,-1.7304,-1.7245,-1.721,-1.7176,-1.7107,-1.7047,-1.7072,-1.7176,-1.7348,-1.7495,-1.7529,-1.7598,-1.7598,-1.7598,-1.7623,-1.7681,-1.7673,-1.758,-1.7376,-1.6931,-1.6624,-1.6407,-1.5979,-1.5615,-1.5536,-1.5526,-1.5613,-1.571,-1.5845,-1.6085,-1.6363,-1.6563,-1.679,-1.706,-1.7329,-1.7661,-1.8002,-1.8127,-1.829,-1.8572,-1.8774,-1.8893,-1.9462,-2.0257,-2.0805,-2.1148,-2.1414,-2.17,-2.1997,-2.2354,-2.2756,-2.3187,-2.3485,-2.3776,-2.4215,-1.7991,-1.7991,-1.7991,-1.7991,-1.7991,-1.7991,-1.7991,-1.7991,-1.7991,-1.7991,-1.7991,-1.7991,-1.7991,-1.7846,-1.7415,-1.6773,-1.6129,-1.5908,-1.5805,-1.5805,-1.5805,-1.5805,-1.5805,-1.5805,-1.5805,-1.5841,-1.5903,-1.5973,-1.6044,-1.6044,-1.6044,-1.607,-1.6132,-1.6202,-1.6202,-1.6272,-1.6272,-1.6272,-1.6281,-1.6281,-1.6272,-1.6272,-1.6377,-1.6412,-1.6447,-1.6447,-1.6447,-1.6377,-1.6342,-1.6412,-1.6447,-1.6577,-1.6682,-1.6751,-1.6786,-1.6874,-1.6908,-1.6908,-1.6908,-1.6908,-1.6943,-1.6943,-1.6908,-1.6908,-1.6908,-1.6943,-1.6943,-1.7038,-1.721,-1.7348,-1.7348,-1.7401,-1.747,-1.7426,-1.7192,-1.7044,-1.6973,-1.6688,-1.6386,-1.609,-1.615,-1.5951,-1.5519,-1.5229,-1.5048,-1.5021,-1.5011,-1.507,-1.5119,-1.5342,-1.5633,-1.5807,-1.5999,-1.6428,-1.6701,-1.7022,-1.7217,-1.7301,-1.7468,-1.7744,-1.7936,-1.8073,-1.8398,-1.8951,-1.9385,-1.9736,-2.0434,-2.0879,-2.1053,-2.1237,-2.169,-2.2146,-2.2543,-2.2928,-2.3362,-1.7991,-1.7991,-1.7991,-1.7991,-1.7991,-1.7991,-1.7991,-1.8,-1.791,-1.787,-1.787,-1.774,-1.7658,-1.7462,-1.6872,-1.6173,-1.561,-1.5584,-1.5655,-1.5655,-1.577,-1.5805,-1.5805,-1.5805,-1.5805,-1.5805,-1.5797,-1.5805,-1.5841,-1.5841,-1.5841,-1.5876,-1.6,-1.6035,-1.6026,-1.6105,-1.6167,-1.6211,-1.6211,-1.6211,-1.6211,-1.6237,-1.6272,-1.6272,-1.6237,-1.6272,-1.6272,-1.6175,-1.6202,-1.6237,-1.6272,-1.6342,-1.6508,-1.6542,-1.6612,-1.676,-1.6804,-1.683,-1.6804,-1.683,-1.683,-1.6786,-1.6864,-1.6908,-1.6908,-1.6908,-1.6908,-1.6943,-1.7038,-1.7141,-1.7141,-1.7107,-1.7107,-1.6934,-1.6464,-1.6062,-1.607,-1.5922,-1.5687,-1.5594,-1.5748,-1.5442,-1.491,-1.4711,-1.4517,-1.4312,-1.4293,-1.4344,-1.4403,-1.454,-1.4736,-1.4913,-1.5235,-1.5758,-1.6104,-1.6389,-1.6503,-1.6531,-1.6662,-1.6888,-1.7067,-1.7234,-1.7529,-1.771,-1.7922,-1.8362,-1.9206,-2.0029,-2.0308,-2.0559,-2.0807,-2.1161,-2.1643,-2.2081,-2.2506,-1.7991,-1.7991,-1.7991,-1.7991,-1.7951,-1.7951,-1.7951,-1.791,-1.7595,-1.7473,-1.7432,-1.7041,-1.6758,-1.6395,-1.5821,-1.5206,-1.4989,-1.5141,-1.5284,-1.5319,-1.5584,-1.5735,-1.577,-1.5805,-1.577,-1.577,-1.577,-1.5805,-1.577,-1.577,-1.5805,-1.5805,-1.5841,-1.5832,-1.5867,-1.5903,-1.5832,-1.5867,-1.5867,-1.5867,-1.5903,-1.6035,-1.6096,-1.6132,-1.6132,-1.6061,-1.5956,-1.585,-1.5823,-1.5921,-1.6017,-1.6158,-1.6307,-1.6307,-1.6351,-1.6412,-1.6517,-1.6577,-1.6377,-1.6333,-1.635,-1.635,-1.6533,-1.683,-1.6656,-1.6656,-1.6656,-1.6908,-1.6864,-1.683,-1.6691,-1.6333,-1.6114,-1.5824,-1.5498,-1.518,-1.5108,-1.4895,-1.4699,-1.4803,-1.4841,-1.4582,-1.4162,-1.407,-1.3967,-1.3756,-1.3606,-1.3597,-1.3627,-1.3674,-1.4013,-1.4261,-1.444,-1.4932,-1.541,-1.57,-1.5806,-1.5777,-1.5921,-1.6083,-1.6293,-1.6436,-1.6255,-1.6433,-1.6694,-1.7241,-1.8197,-1.8967,-1.9489,-1.9888,-2.0105,-2.0459,-2.0845,-2.1248,-2.168,-1.7261,-1.7261,-1.7261,-1.727,-1.727,-1.7261,-1.7261,-1.7229,-1.7066,-1.6984,-1.6976,-1.6812,-1.6396,-1.5841,-1.5393,-1.5011,-1.4697,-1.4776,-1.4848,-1.4955,-1.5248,-1.547,-1.5497,-1.5655,-1.5726,-1.5541,-1.5647,-1.5611,-1.5611,-1.5655,-1.5805,-1.5805,-1.5805,-1.5805,-1.5805,-1.5805,-1.5805,-1.5805,-1.5805,-1.5805,-1.5841,-1.5867,-1.5903,-1.5903,-1.5894,-1.5665,-1.5338,-1.5196,-1.4911,-1.476,-1.4617,-1.4689,-1.4796,-1.4796,-1.4788,-1.4796,-1.4859,-1.5152,-1.5551,-1.5357,-1.5269,-1.519,-1.534,-1.5392,-1.5534,-1.5683,-1.5903,-1.6263,-1.5824,-1.5824,-1.6044,-1.5534,-1.5251,-1.4931,-1.4537,-1.4358,-1.415,-1.3789,-1.365,-1.3786,-1.3925,-1.3719,-1.3559,-1.3469,-1.3268,-1.2932,-1.2694,-1.259,-1.2605,-1.262,-1.3108,-1.3692,-1.3833,-1.4073,-1.4558,-1.4971,-1.5059,-1.5089,-1.5206,-1.5371,-1.5613,-1.5642,-1.5478,-1.5623,-1.6063,-1.6676,-1.7346,-1.777,-1.8205,-1.8794,-1.9423,-1.967,-1.994,-2.0459,-2.0794,-1.6368,-1.6368,-1.6615,-1.6689,-1.6689,-1.6689,-1.6599,-1.6484,-1.6525,-1.636,-1.6044,-1.5825,-1.5533,-1.5272,-1.4883,-1.4491,-1.4333,-1.4418,-1.4453,-1.4605,-1.4848,-1.5026,-1.5133,-1.5319,-1.5319,-1.5026,-1.4999,-1.5026,-1.5026,-1.5098,-1.5284,-1.577,-1.5647,-1.5691,-1.5761,-1.5691,-1.5655,-1.5805,-1.5805,-1.5805,-1.577,-1.5584,-1.5505,-1.5426,-1.5284,-1.4955,-1.443,-1.4322,-1.3998,-1.3745,-1.368,-1.3781,-1.3825,-1.389,-1.389,-1.3818,-1.3745,-1.3709,-1.4142,-1.4171,-1.3947,-1.3975,-1.4119,-1.4522,-1.4593,-1.453,-1.4716,-1.5471,-1.5144,-1.5108,-1.5144,-1.478,-1.4422,-1.4063,-1.3665,-1.3499,-1.3361,-1.3178,-1.2996,-1.3077,-1.3179,-1.31,-1.2958,-1.2901,-1.2615,-1.2148,-1.186,-1.1709,-1.176,-1.1925,-1.2328,-1.2995,-1.3086,-1.3238,-1.3571,-1.3992,-1.4172,-1.435,-1.444,-1.4469,-1.4588,-1.4726,-1.4688,-1.4972,-1.5294,-1.5574,-1.5938,-1.6415,-1.6905,-1.7495,-1.8058,-1.8581,-1.9006,-1.958,-2.008,-1.5514,-1.5548,-1.6319,-1.6607,-1.6607,-1.6689,-1.6304,-1.567,-1.5948,-1.5296,-1.4386,-1.3918,-1.3995,-1.3943,-1.3778,-1.3579,-1.3557,-1.3956,-1.3912,-1.4093,-1.4418,-1.4446,-1.4482,-1.4489,-1.4597,-1.4446,-1.4266,-1.4078,-1.4034,-1.4034,-1.4732,-1.5576,-1.5284,-1.547,-1.547,-1.5284,-1.5284,-1.5399,-1.5434,-1.5478,-1.5319,-1.5026,-1.4681,-1.4545,-1.4078,-1.3608,-1.3571,-1.3528,-1.3346,-1.3164,-1.3091,-1.3127,-1.3091,-1.3127,-1.3127,-1.3018,-1.2659,-1.2622,-1.2725,-1.3164,-1.3593,-1.3738,-1.3766,-1.3759,-1.3867,-1.4163,-1.4422,-1.453,-1.4243,-1.4378,-1.435,-1.4063,-1.3564,-1.3346,-1.3025,-1.2886,-1.2776,-1.2776,-1.2629,-1.2489,-1.2535,-1.264,-1.2715,-1.2677,-1.2587,-1.2193,-1.1826,-1.1671,-1.1646,-1.1751,-1.1863,-1.2182,-1.2243,-1.239,-1.2574,-1.2881,-1.3177,-1.3359,-1.345,-1.3398,-1.3338,-1.3511,-1.3863,-1.3893,-1.4094,-1.4302,-1.4579,-1.5148,-1.5689,-1.6187,-1.6743,-1.7457,-1.8178,-1.8806,-1.9399,-1.4153,-1.4195,-1.4524,-1.4901,-1.5269,-1.5276,-1.4894,-1.4349,-1.4398,-1.4067,-1.337,-1.3026,-1.285,-1.2833,-1.2564,-1.2378,-1.2415,-1.2519,-1.2659,-1.2725,-1.2945,-1.3157,-1.323,-1.3419,-1.3411,-1.3266,-1.3157,-1.3047,-1.2931,-1.304,-1.3382,-1.397,-1.4446,-1.4856,-1.4892,-1.4589,-1.4474,-1.4366,-1.4258,-1.4114,-1.4114,-1.3998,-1.3738,-1.3673,-1.3564,-1.2945,-1.2505,-1.2439,-1.2181,-1.1996,-1.1959,-1.2027,-1.2137,-1.2137,-1.2174,-1.2174,-1.1774,-1.1669,-1.1632,-1.1959,-1.2137,-1.2285,-1.2352,-1.2528,-1.2821,-1.2755,-1.3157,-1.3273,-1.3266,-1.3222,-1.3593,-1.3055,-1.2549,-1.2519,-1.2445,-1.2342,-1.2342,-1.2415,-1.2409,-1.2378,-1.2415,-1.2512,-1.2551,-1.2592,-1.2466,-1.2283,-1.1935,-1.1667,-1.1607,-1.1558,-1.1672,-1.1731,-1.1778,-1.1934,-1.2151,-1.2243,-1.2305,-1.2428,-1.2574,-1.2644,-1.2705,-1.2736,-1.2995,-1.2972,-1.3064,-1.345,-1.3803,-1.4094,-1.4649,-1.5429,-1.5987,-1.6528,-1.7246,-1.8,-1.8486,-1.3398,-1.3398,-1.3398,-1.3688,-1.4062,-1.4104,-1.3724,-1.3203,-1.3283,-1.3083,-1.2739,-1.2324,-1.2104,-1.1961,-1.1852,-1.1744,-1.1818,-1.1818,-1.1744,-1.1885,-1.21,-1.2094,-1.2204,-1.2352,-1.2469,-1.2211,-1.2094,-1.2094,-1.2013,-1.2168,-1.2315,-1.2645,-1.3237,-1.3651,-1.397,-1.3753,-1.3455,-1.3339,-1.3157,-1.2974,-1.3157,-1.2872,-1.2762,-1.2652,-1.2432,-1.2027,-1.1515,-1.1372,-1.1223,-1.0999,-1.0887,-1.085,-1.0925,-1.0962,-1.1005,-1.1037,-1.1074,-1.1111,-1.1117,-1.1117,-1.1192,-1.1477,-1.144,-1.1515,-1.1558,-1.1632,-1.2181,-1.2579,-1.2144,-1.1996,-1.2769,-1.2291,-1.2114,-1.2187,-1.2261,-1.2157,-1.2268,-1.2342,-1.2342,-1.2305,-1.2378,-1.2378,-1.2402,-1.2471,-1.2425,-1.2305,-1.2031,-1.1734,-1.1581,-1.1511,-1.1453,-1.1476,-1.1498,-1.1654,-1.1817,-1.184,-1.1895,-1.205,-1.2174,-1.2336,-1.2398,-1.2367,-1.2451,-1.2666,-1.2789,-1.2858,-1.3094,-1.3442,-1.4124,-1.4894,-1.5381,-1.5815,-1.633,-1.7024,-1.7379,-1.3313,-1.3398,-1.33,-1.333,-1.3317,-1.3428,-1.3033,-1.2457,-1.2694,-1.2565,-1.2072,-1.1513,-1.1401,-1.1534,-1.1422,-1.1372,-1.1422,-1.1509,-1.1534,-1.1515,-1.1552,-1.1664,-1.1671,-1.1696,-1.169,-1.1558,-1.139,-1.125,-1.1184,-1.1206,-1.117,-1.1315,-1.189,-1.2365,-1.2849,-1.2908,-1.2901,-1.2908,-1.2776,-1.2609,-1.2516,-1.2029,-1.1774,-1.1626,-1.1254,-1.0881,-1.0738,-1.0631,-1.055,-1.055,-1.0513,-1.055,-1.0625,-1.0738,-1.0775,-1.0812,-1.0999,-1.1074,-1.1117,-1.1117,-1.1111,-1.1149,-1.1186,-1.126,-1.1366,-1.1446,-1.1521,-1.1959,-1.17,-1.1669,-1.1781,-1.1781,-1.1818,-1.1898,-1.1935,-1.204,-1.212,-1.2157,-1.212,-1.2194,-1.2268,-1.2305,-1.2305,-1.2345,-1.2356,-1.226,-1.2061,-1.1865,-1.1656,-1.1298,-1.1177,-1.1048,-1.1006,-1.0828,-1.0955,-1.13,-1.149,-1.1646,-1.1709,-1.1709,-1.1833,-1.1825,-1.2011,-1.2328,-1.2359,-1.2297,-1.2513,-1.2789,-1.3442,-1.4034,-1.4649,-1.5148,-1.5613,-1.6083,-1.651,-1.1989,-1.2015,-1.1891,-1.1817,-1.1859,-1.2278,-1.2074,-1.1562,-1.1419,-1.1249,-1.0952,-1.0673,-1.0528,-1.0549,-1.0567,-1.0611,-1.059,-1.0741,-1.0775,-1.0831,-1.0979,-1.097,-1.0998,-1.1036,-1.102,-1.0937,-1.074,-1.0706,-1.0768,-1.0695,-1.0723,-1.0824,-1.0996,-1.1348,-1.1771,-1.183,-1.1571,-1.1595,-1.1313,-1.099,-1.1291,-1.1006,-1.0767,-1.0778,-1.0483,-1.03,-1.0236,-1.0209,-1.0247,-1.0355,-1.036,-1.0387,-1.0494,-1.0602,-1.0628,-1.0648,-1.0793,-1.0962,-1.1043,-1.1117,-1.1117,-1.1135,-1.1117,-1.1155,-1.1186,-1.1186,-1.1298,-1.1409,-1.1409,-1.1409,-1.1484,-1.1515,-1.1558,-1.1595,-1.1669,-1.1781,-1.1855,-1.1855,-1.1892,-1.2003,-1.2083,-1.2194,-1.2231,-1.2231,-1.2271,-1.2227,-1.2041,-1.2011,-1.1868,-1.1131,-1.0736,-1.0539,-1.0378,-1.0087,-1.006,-1.0425,-1.0532,-1.0544,-1.0638,-1.0755,-1.0912,-1.1163,-1.1233,-1.1358,-1.1545,-1.174,-1.1919,-1.2135,-1.2574,-1.3117,-1.3765,-1.4362,-1.4835,-1.5303,-1.5806,-1.1182,-1.1192,-1.0966,-1.0864,-1.0947,-1.1359,-1.1191,-1.077,-1.0573,-1.0385,-1.0196,-1.0159,-1.0078,-0.997,-1.0008,-1.0051,-1.0078,-1.0293,-1.0412,-1.0433,-1.0546,-1.0665,-1.0646,-1.0613,-1.0694,-1.0603,-1.0603,-1.0616,-1.063,-1.0581,-1.0606,-1.0635,-1.0597,-1.0926,-1.1144,-1.1037,-1.0873,-1.093,-1.0679,-1.0512,-1.0645,-1.0523,-1.0423,-1.0429,-1.0351,-1.0307,-1.0219,-1.0164,-1.0197,-1.0308,-1.0346,-1.0385,-1.05,-1.0583,-1.0622,-1.0704,-1.082,-1.0985,-1.1118,-1.1156,-1.1192,-1.1295,-1.1181,-1.1123,-1.1117,-1.1111,-1.1186,-1.1223,-1.1167,-1.121,-1.1297,-1.1328,-1.1378,-1.1428,-1.1515,-1.1627,-1.1695,-1.1732,-1.1744,-1.1855,-1.1929,-1.2003,-1.2077,-1.215,-1.2154,-1.2095,-1.2065,-1.2024,-1.1904,-1.116,-1.0382,-1.0107,-0.988,-0.9593,-0.9495,-0.9595,-0.9616,-0.9474,-0.9659,-0.9912,-1.0148,-1.0401,-1.0376,-1.0415,-1.0661,-1.0944,-1.117,-1.1483,-1.1919,-1.2382,-1.2964,-1.3532,-1.4022,-1.449,-1.4962,-1.0972,-1.0939,-1.0719,-1.0587,-1.0587,-1.064,-1.0482,-1.0299,-1.0283,-1.0159,-0.9922,-0.9997,-0.9986,-1.004,-1.0207,-1.0293,-1.0347,-1.0506,-1.0581,-1.063,-1.071,-1.0694,-1.0699,-1.0705,-1.0753,-1.0689,-1.0689,-1.078,-1.0656,-1.0737,-1.0726,-1.0683,-1.0742,-1.0876,-1.0878,-1.0862,-1.0776,-1.0754,-1.0627,-1.0557,-1.064,-1.0573,-1.0509,-1.0503,-1.0509,-1.0514,-1.0474,-1.0485,-1.0506,-1.0562,-1.0579,-1.0554,-1.0651,-1.0789,-1.0869,-1.0933,-1.1061,-1.1112,-1.1175,-1.1192,-1.1249,-1.136,-1.1245,-1.1163,-1.117,-1.1254,-1.1285,-1.1304,-1.131,-1.125,-1.1214,-1.127,-1.1332,-1.1383,-1.1427,-1.1527,-1.1621,-1.1676,-1.1645,-1.1706,-1.1744,-1.1781,-1.1855,-1.1892,-1.1966,-1.1866,-1.1771,-1.1554,-1.1379,-1.0973,-1.027,-0.974,-0.9444,-0.9127,-0.904,-0.8848,-0.8831,-0.8687,-0.9031,-0.9304,-0.9503,-0.9586,-0.9566,-0.963,-0.9881,-1.018,-1.0559,-1.0912,-1.1226,-1.1725,-1.2097,-1.275,-1.3238,-1.3511,-1.3953,-1.0699,-1.0667,-1.0487,-1.0396,-1.0363,-1.0207,-1.005,-1.003,-1.003,-1.0056,-1.0191,-1.0186,-1.0217,-1.0394,-1.0509,-1.053,-1.0622,-1.0746,-1.0853,-1.0929,-1.0973,-1.1059,-1.1085,-1.1059,-1.1091,-1.108,-1.1075,-1.1043,-1.1085,-1.1085,-1.1075,-1.1112,-1.1032,-1.1053,-1.1064,-1.1091,-1.0973,-1.0891,-1.0726,-1.0753,-1.0805,-1.0721,-1.0683,-1.0662,-1.0662,-1.0662,-1.0662,-1.0651,-1.0651,-1.063,-1.0613,-1.0603,-1.0597,-1.0673,-1.0708,-1.0869,-1.0945,-1.1025,-1.1152,-1.1197,-1.1272,-1.1341,-1.122,-1.1463,-1.1494,-1.1543,-1.1453,-1.1426,-1.1447,-1.1385,-1.1418,-1.1507,-1.1546,-1.1605,-1.1595,-1.1598,-1.165,-1.1582,-1.1577,-1.159,-1.1621,-1.1632,-1.1676,-1.1706,-1.1737,-1.1626,-1.1415,-1.1101,-1.0726,-1.0279,-0.9939,-0.9406,-0.8797,-0.8411,-0.8082,-0.7914,-0.7946,-0.8011,-0.8343,-0.8615,-0.8724,-0.8788,-0.8739,-0.8918,-0.9221,-0.9656,-1.011,-1.037,-1.0566,-1.0724,-1.1101,-1.1825,-1.2451,-1.2781,-1.3033,-1.0463,-1.0466,-1.0245,-1.0148,-1.0137,-1.0094,-1.0067,-1.0067,-1.0073,-1.0207,-1.0372,-1.0388,-1.0469,-1.0576,-1.0713,-1.0772,-1.0794,-1.1009,-1.1133,-1.1128,-1.1236,-1.1252,-1.13,-1.1311,-1.1278,-1.1311,-1.1311,-1.1252,-1.1311,-1.1311,-1.1295,-1.1278,-1.1311,-1.1311,-1.1284,-1.1246,-1.1203,-1.1085,-1.1,-1.0984,-1.0957,-1.0935,-1.0903,-1.0855,-1.0849,-1.0849,-1.0855,-1.0855,-1.0866,-1.0871,-1.0876,-1.0876,-1.0887,-1.0887,-1.0887,-1.107,-1.108,-1.1128,-1.1216,-1.1247,-1.1302,-1.1321,-1.131,-1.1498,-1.1589,-1.1584,-1.1531,-1.1449,-1.1552,-1.161,-1.1708,-1.1794,-1.1828,-1.1902,-1.1799,-1.1691,-1.1612,-1.1534,-1.1502,-1.1494,-1.1483,-1.1478,-1.1521,-1.1564,-1.1372,-1.1037,-1.0582,-1.0147,-0.9745,-0.9316,-0.9118,-0.8843,-0.8173,-0.758,-0.736,-0.7359,-0.7471,-0.7632,-0.7769,-0.7966,-0.8009,-0.8157,-0.8297,-0.843,-0.8629,-0.9006,-0.9306,-0.9632,-0.9837,-0.9996,-1.0186,-1.078,-1.1531,-1.2228,-1.2413,-1.0261,-1.0245,-1.0013,-0.9965,-0.9948,-1.0191,-1.0309,-1.0347,-1.0369,-1.0471,-1.0638,-1.0619,-1.0656,-1.0774,-1.0939,-1.1009,-1.1058,-1.1171,-1.1241,-1.1295,-1.1289,-1.1311,-1.1311,-1.1311,-1.1311,-1.1311,-1.1311,-1.1311,-1.1311,-1.1311,-1.1311,-1.1311,-1.1311,-1.1311,-1.1311,-1.1311,-1.1278,-1.1241,-1.1214,-1.1219,-1.1252,-1.1284,-1.1311,-1.1273,-1.1262,-1.1268,-1.1273,-1.1289,-1.1311,-1.13,-1.1284,-1.1257,-1.1241,-1.1236,-1.1241,-1.1241,-1.1241,-1.1241,-1.1267,-1.1267,-1.1385,-1.1455,-1.1472,-1.1525,-1.1539,-1.1572,-1.1552,-1.16,-1.1664,-1.1705,-1.1799,-1.1917,-1.1993,-1.1992,-1.1949,-1.1866,-1.18,-1.1692,-1.1633,-1.1611,-1.1485,-1.1482,-1.1414,-1.142,-1.108,-1.0519,-0.9873,-0.9377,-0.8803,-0.8347,-0.8228,-0.8194,-0.7787,-0.7339,-0.7357,-0.733,-0.7277,-0.7339,-0.7462,-0.7461,-0.7628,-0.7748,-0.7894,-0.8034,-0.8195,-0.8171,-0.8365,-0.8723,-0.9026,-0.9204,-0.9422,-0.9799,-1.0458,-1.1288,-1.1725,-1.0013,-1.0008,-0.9943,-1.0024,-1.0202,-1.0266,-1.0509,-1.081,-1.0821,-1.0848,-1.0896,-1.0912,-1.0957,-1.1091,-1.1139,-1.1187,-1.123,-1.1252,-1.13,-1.1305,-1.1311,-1.1311,-1.1311,-1.1311,-1.1311,-1.1311,-1.1311,-1.1311,-1.1311,-1.1311,-1.1311,-1.1311,-1.1311,-1.1311,-1.1311,-1.1311,-1.1311,-1.1219,-1.1311,-1.1267,-1.1219,-1.1267,-1.1311,-1.1311,-1.1311,-1.1311,-1.1311,-1.1311,-1.1311,-1.1305,-1.1311,-1.1305,-1.1305,-1.1311,-1.1311,-1.1311,-1.1311,-1.1311,-1.1311,-1.1311,-1.1354,-1.1354,-1.1354,-1.1397,-1.1434,-1.1518,-1.1595,-1.1705,-1.1784,-1.1815,-1.1851,-1.2014,-1.208,-1.2105,-1.2094,-1.2035,-1.1975,-1.1868,-1.1806,-1.1678,-1.1537,-1.1435,-1.1369,-1.1103,-1.0715,-1.0099,-0.9344,-0.8699,-0.7974,-0.7476,-0.7357,-0.7361,-0.7484,-0.7238,-0.7276,-0.7294,-0.7227,-0.7303,-0.743,-0.7397,-0.7286,-0.7507,-0.7717,-0.7735,-0.7771,-0.7842,-0.7889,-0.7928,-0.8199,-0.8481,-0.8679,-0.9053,-0.9426,-1.011,-1.0611,-1.0195,-1.0201,-1.0239,-1.0158,-1.0131,-1.023,-1.0464,-1.0679,-1.0794,-1.0969,-1.1102,-1.1112,-1.1182,-1.1305,-1.1311,-1.1311,-1.1311,-1.1311,-1.1311,-1.1311,-1.1311,-1.1311,-1.1311,-1.1267,-1.1311,-1.1311,-1.1311,-1.1311,-1.1267,-1.1311,-1.1311,-1.1267,-1.1267,-1.1267,-1.1267,-1.1311,-1.1176,-1.0992,-1.1176,-1.1176,-1.1084,-1.1176,-1.1267,-1.1311,-1.1311,-1.1311,-1.1311,-1.1311,-1.1311,-1.1311,-1.1311,-1.1311,-1.1311,-1.1311,-1.1311,-1.1311,-1.1311,-1.1311,-1.1311,-1.1311,-1.1311,-1.1311,-1.1311,-1.1354,-1.1354,-1.1407,-1.1402,-1.1519,-1.1525,-1.1562,-1.1733,-1.1855,-1.1983,-1.1991,-1.201,-1.2018,-1.1925,-1.1839,-1.1735,-1.163,-1.1576,-1.1536,-1.148,-1.1408,-1.0868,-0.9678,-0.8928,-0.8072,-0.7304,-0.6868,-0.6714,-0.6676,-0.6911,-0.7026,-0.7053,-0.713,-0.7191,-0.728,-0.7369,-0.7381,-0.7363,-0.7447,-0.7523,-0.7552,-0.7618,-0.7717,-0.7707,-0.766,-0.7826,-0.8186,-0.826,-0.8309,-0.8685,-0.9032,-0.947,-1.0536,-1.0516,-1.0506,-1.0243,-0.9927,-1.0096,-1.0243,-1.0309,-1.0421,-1.0722,-1.0977,-1.1068,-1.1176,-1.1267,-1.1311,-1.1311,-1.1311,-1.1311,-1.1311,-1.1311,-1.1311,-1.1176,-1.1176,-1.1219,-1.1267,-1.1219,-1.1176,-1.1176,-1.1132,-1.1046,-1.1003,-1.1176,-1.1219,-1.1219,-1.1267,-1.1176,-1.0997,-1.0819,-1.0819,-1.0824,-1.0911,-1.1041,-1.1219,-1.1311,-1.1311,-1.1311,-1.1311,-1.1311,-1.1311,-1.1219,-1.1176,-1.1046,-1.1046,-1.1046,-1.1132,-1.1132,-1.1262,-1.1267,-1.1311,-1.1311,-1.1311,-1.1311,-1.1311,-1.1311,-1.1311,-1.1311,-1.1305,-1.1305,-1.1348,-1.1397,-1.157,-1.1742,-1.1828,-1.1871,-1.1903,-1.1977,-1.1832,-1.1784,-1.1716,-1.1642,-1.1611,-1.1601,-1.1558,-1.1524,-1.0651,-0.9478,-0.8486,-0.7577,-0.6902,-0.669,-0.6486,-0.6486,-0.6606,-0.6718,-0.683,-0.6942,-0.7022,-0.7099,-0.7176,-0.7292,-0.7391,-0.7462,-0.7438,-0.7401,-0.7475,-0.755,-0.7577,-0.7566,-0.7753,-0.7894,-0.7903,-0.7942,-0.8131,-0.8436,-0.8488,-1.039,-1.0024,-1.0029,-0.9884,-0.9661,-0.9719,-0.9866,-1.0053,-1.0096,-1.0168,-1.0299,-1.0342,-1.0564,-1.1267,-1.1311,-1.1224,-1.1089,-1.1132,-1.1267,-1.1311,-1.1132,-1.0949,-1.0906,-1.0954,-1.1224,-1.1132,-1.0906,-1.0771,-1.0733,-1.0477,-1.0434,-1.0733,-1.0727,-1.0857,-1.117,-1.0992,-1.0641,-1.0463,-1.0342,-1.0299,-1.0472,-1.0694,-1.1219,-1.1311,-1.1311,-1.1311,-1.1311,-1.1311,-1.1311,-1.1176,-1.0954,-1.0646,-1.0559,-1.0646,-1.0733,-1.0862,-1.0997,-1.1176,-1.1176,-1.1267,-1.1267,-1.1311,-1.1311,-1.1311,-1.1311,-1.1311,-1.1311,-1.1311,-1.1311,-1.1311,-1.144,-1.1613,-1.1699,-1.1613,-1.1607,-1.1693,-1.1686,-1.175,-1.177,-1.168,-1.1609,-1.1585,-1.1552,-1.1142,-1.0246,-0.9195,-0.828,-0.7402,-0.6615,-0.6431,-0.6278,-0.6313,-0.6394,-0.6486,-0.6637,-0.6788,-0.6865,-0.6945,-0.6984,-0.7099,-0.7253,-0.7407,-0.7397,-0.7349,-0.7341,-0.7413,-0.7443,-0.7425,-0.7475,-0.7568,-0.7584,-0.7632,-0.7762,-0.7852,-0.7957]},{"header":{"parameterUnit":"m.s-1","parameterCategory":1,"la1":31.0,"la2":29.5877,"lo1":-88.7671,"lo2":-86.6584,"dy":0.0162,"dx":0.0185,"nx":115,"ny":88,"refTime":"2023-09-02T06:00:00:Z","depth":0,"parameterNumber":3,"parameterNumberName":"V-component_of_WINDS"},"data":[0.0,0.0,0.0,0.0,0.0,0.0,0.0,0.0,0.0,0.0,0.0,0.0,0.0,0.0,0.0,0.0,0.0,0.0,0.0,0.0,0.0,0.0,0.0,0.0,0.0,0.0,0.0,0.0,0.0,0.0,0.0,0.0,0.0,0.0,0.0,0.0,0.0,0.0,0.0,0.0,0.0,0.0,0.0,0.0,0.0,0.0,0.0,0.0,0.0,0.0,0.0,0.0,0.0,0.0,0.0,0.0,0.0,0.0,0.0,0.0,0.0,0.0,0.0,0.0,0.0,0.0,0.0,0.0,0.0,0.0,0.0,0.0,0.0,0.0,0.0,0.0,0.0,0.0,0.0,0.0,0.0,0.0,0.0,0.0,0.0,0.0,0.0,0.0,0.0,0.0,0.0,0.0,0.0,0.0,0.0,0.0,0.0,0.0,0.0,0.0,0.0,0.0,0.0,0.0,0.0,0.0,0.0,0.0,0.0,0.0,0.0,0.0,0.0,0.0,0.0,0.0,0.0,0.0,0.0,0.0,0.0,0.0,0.0,0.0,0.0,0.0,0.0,0.0,0.0,0.0,0.0,0.0,0.0,0.0,0.0,0.0,0.0,0.0,0.0,0.0,0.0,0.0,0.0,0.0,0.0,0.0,0.0,0.0,0.0,0.0,0.0,0.0,0.0,0.0,0.0,0.0,0.0,0.0,0.0,0.0,0.0,0.0,0.0,0.0,0.0,0.0,0.0,0.0,0.0,0.0,0.0,0.0,0.0,0.0,0.0,0.0,0.0,0.0,0.0,0.0,0.0,0.0,0.0,0.0,0.0,0.0,0.0,0.0,0.0,0.0,0.0,0.0,0.0,0.0,0.0,0.0,0.0,0.0,0.0,0.0,0.0,0.0,0.0,0.0,0.0,0.0,0.0,0.0,0.0,0.0,0.0,0.0,0.0,0.0,0.0,0.0,0.0,0.0,0.0,0.0,0.0,0.0,0.0,0.0,0.0,0.0,0.0,0.0,0.0,0.0,0.0,0.0,0.0,0.0,0.0,0.0,0.0,0.0,0.0,0.0,0.0,0.0,0.0,0.0,0.0,0.0,0.0,0.0,0.0,0.0,0.0,0.0,0.0,0.0,0.0,0.0,0.0,0.0,0.0,0.0,0.0,0.0,0.0,0.0,0.0,0.0,0.0,0.0,0.0,0.0,0.0,0.0,0.0,0.0,0.0,0.0,0.0,0.0,0.0,0.0,0.0,0.0,0.0,0.0,0.0,0.0,0.0,0.0,0.0,0.0,0.0,0.0,0.0,0.0,0.0,0.0,0.0,0.0,0.0,0.0,0.0,0.0,0.0,0.0,0.0,0.0,0.0,0.0,0.0,0.0,0.0,0.0,0.0,0.0,0.0,0.0,0.0,0.0,0.0,0.0,0.0,0.0,0.0,0.0,0.0,0.0,0.0,0.0,0.0,0.0,0.0,0.0,0.0,0.0,0.0,0.0,0.0,0.0,0.0,0.0,0.0,0.0,0.0,0.0,0.0,0.0,0.0,0.0,0.0,0.0,0.0,0.0,0.0,0.0,0.0,0.0,0.0,0.0,0.0,0.0,0.0,0.0,0.0,0.0,0.0,0.0,0.0,0.0,0.0,0.0,0.0,0.0,0.0,0.0,0.0,0.0,0.0,0.0,0.0,0.0,0.0,0.0,0.0,0.0,0.0,0.0,0.0,0.0,0.0,0.0,0.0,0.0,0.0,0.0,0.0,0.0,0.0,0.0,0.0,0.0,0.0,0.0,0.0,0.0,0.0,0.0,0.0,0.0,0.0,0.0,0.0,0.0,0.0,0.0,0.0,0.0,0.0,0.0,0.0,0.0,0.0,0.0,0.0,0.0,0.0,0.0,0.0,0.0,0.0,0.0,0.0,0.0,0.0,0.0,0.0,0.0,0.0,0.0,0.0,0.0,0.0,0.0,0.0,0.0,0.0,0.0,0.0,0.0,0.0,0.0,0.0,0.0,0.0,0.0,0.0,0.0,0.0,0.0,0.0,0.0,0.0,0.0,0.0,0.0,0.0,0.0,0.0,0.0,0.0,0.0,0.0,0.0,0.0,0.0,0.0,0.0,0.0,0.0,0.0,0.0,0.0,0.0,0.0,0.0,0.0,0.0,0.0,0.0,0.0,0.0,0.0,0.0,0.0,0.0,0.0,0.0,0.0,0.0,0.0,0.0,0.0,0.0,0.0,0.0,0.0,0.0,0.0,0.0,0.0,0.0,0.0,0.0,0.0,0.0,0.0,0.0,0.0,0.0,0.0,0.0,0.0,0.0,0.0,0.0,0.0,0.0,0.0,0.0,0.0,0.0,0.0,0.0,0.0,0.0,0.0,0.0,0.0,0.0,0.0,0.0,0.0,0.0,0.0,0.0,0.0,0.0,0.0,0.0,0.0,0.0,0.0,0.0,0.0,0.0,0.0,0.0,0.0,0.0,0.0,0.0,0.0,0.0,0.0,0.0,0.0,0.0,0.0,0.0,0.0,0.0,0.0,0.0,0.0,0.0,0.0,0.0,0.0,0.0,0.0,0.0,0.0,0.0,0.0,0.0,0.0,0.0,0.0,0.0,0.0,0.0,0.0,0.0,0.0,0.0,0.0,0.0,0.0,0.0,0.0,0.0,0.0,0.0,0.0,0.0,0.0,0.0,0.0,0.0,0.0,0.0,0.0,0.0,0.0,0.0,0.0,0.0,0.0,0.0,0.0,0.0,0.0,0.0,0.0,0.0,0.0,0.0,0.0,0.0,0.0,0.0,0.0,0.0,0.0,0.0,0.0,0.0,0.0,0.0,0.0,0.0,0.0,0.0,0.0,0.0,0.0,0.0,0.0,0.0,0.0,0.0,0.0,0.0,0.0,0.0,0.0,0.0,0.0,0.0,0.0,0.0,0.0,0.0,0.0,0.0,0.0,0.0,0.0,0.0,0.0,0.0,0.0,0.0,0.0,0.0,0.0,0.0,0.0,0.0,0.0,0.0,0.0,0.0,0.0,0.0,0.0,0.0,0.0,0.0,0.0,0.0,0.0,0.0,0.0,0.0,0.0,0.0,0.0,0.0,0.0,0.0,0.0,0.0,0.0,0.0,0.0,0.0,0.0,0.0,0.0,0.0,0.0,0.0,0.0,0.0,0.0,0.0,0.0,0.0,0.0,0.0,0.0,0.0,0.0,0.0,0.0,0.0,0.0,0.0,0.0,0.0,0.0,0.0,0.0,0.0,0.0,0.0,0.0,0.0,0.0,0.0,0.0,0.0,0.0,0.0,0.0,0.0,0.0,0.0,0.0,0.0,0.0,0.0,0.0,0.0,0.0,0.0,0.0,0.0,0.0,0.0,0.0,0.0,0.0,0.0,0.0,0.0,0.0,0.0,0.0,0.0,0.0,0.0,0.0,0.0,0.0,0.0,0.0,0.0,0.0,0.0,0.0,0.0,0.0,0.0,0.0,0.0,0.0,0.0,0.0,0.0,0.0,0.0,0.0,0.0,0.0,0.0,0.0,0.0,0.0,0.0,0.0,0.0,0.0,0.0,0.0,0.0,0.0,0.0,0.0,0.0,0.0,0.0,0.0,0.0,0.0,0.0,0.0,0.0,0.0,0.0,0.0,0.0,0.0,0.0,0.0,0.0,0.0,0.0,0.0,0.0,0.0,0.0,0.0,0.0,0.0,0.0,0.0,0.0,0.0,0.0,0.0,0.0,0.0,0.0,0.0,0.0,0.0,0.0,0.0,0.0,0.0,0.0,0.0,0.0,0.0,0.0,0.0,0.0,0.0,0.0,0.0,0.0,0.0,0.0,0.0,0.0,0.0,0.0,0.0,0.0,0.0,0.0,0.0,0.0,0.0,0.0,0.0,0.0,0.0,0.0,0.0,0.0,0.0,0.0,0.0,0.0,0.0,0.0,0.0,0.0,0.0,0.0,0.0,0.0,0.0,0.0,0.0,0.0,0.0,0.0,0.0,0.0,0.0,0.0,0.0,0.0,0.0,0.0,0.0,0.0,0.0,0.0,0.0,0.0,0.0,0.0,0.0,0.0,0.0,0.0,0.0,0.0,0.0,0.0,0.0,0.0,0.0,0.0,0.0,0.0,0.0,0.0,0.0,0.0,0.0,0.0,0.0,0.0,0.0,0.0,0.0,0.0,0.0,0.0,0.0,0.0,0.0,0.0,0.0,0.0,0.0,0.0,0.0,0.0,0.0,0.0,0.0,0.0,0.0,0.0,0.0,0.0,0.0,0.0,0.0,0.0,0.5654,0.0,0.0,0.0,0.0,0.0,0.0,0.0,0.0,0.0,0.0,0.0,0.0,0.0,0.0,0.0,0.0,0.0,0.0,0.0,0.0,0.0,0.0,0.0,0.0,0.0,0.0,0.0,0.0,0.0,0.0,0.0,0.0,0.0,0.0,0.0,0.0,0.0,0.0,0.0,0.0,0.0,0.0,0.0,0.0,0.0,0.0,0.0,0.0,0.0,0.0,0.0,0.0,0.0,0.0,0.0,0.0,0.0,0.0,0.0,0.0,0.0,0.0,0.0,0.0,0.0,0.0,0.0,0.0,0.0,0.0,0.0,0.0,0.0,0.0,0.0,0.0,0.0,0.0,0.0,0.0,0.0,0.0,0.0,0.0,0.0,0.0,0.0,0.0,0.0,0.0,0.0,0.0,0.0,0.0,0.0,0.0,0.0,0.0,0.0,0.0,0.0,0.0,0.0,0.0,0.0,0.0,0.0,0.0,0.0,0.0,0.8089,0.7821,0.7399,0.6668,0.5664,0.0,0.0,0.0,0.0,0.0,0.0,0.0,0.0,0.0,0.0,0.0,0.0,0.0,0.0,0.0,0.0,0.0,0.0,0.0,0.0,0.0,0.0,0.0,0.0,0.0,0.0,0.0,0.0,0.0,0.0,0.0,0.0,0.0,0.0,0.0,0.0,0.0,0.0,0.0,0.0,0.0,0.0,0.0,0.0,0.0,0.0,0.0,0.0,0.0,0.0,0.0,0.0,0.0,0.0,0.0,0.0,0.0,0.0,0.0,0.0,0.0,0.0,0.0,0.0,0.0,0.0,0.0,0.0,0.0,0.0,0.0,0.0,0.0,0.0,0.0,0.0,0.0,0.0,0.0,0.0,0.0,0.0,0.0,0.0,0.0,0.0,0.0,0.0,0.0,0.0,0.0,0.0,0.0,0.0,0.0,0.0,0.0,0.0,0.0,0.0,0.0,0.0,0.0,0.0,0.0,0.0,0.0,0.0,0.0,0.0,0.0,0.0,0.6899,0.6286,0.5434,0.0,0.0,0.0,0.0,0.0,0.0,0.0,0.0,0.0,0.0,0.0,0.0,0.0,0.0,0.0,0.0,0.0,0.0,0.0,0.0,0.0,0.0,0.0,0.0,0.0,0.0,0.0,0.0,0.0,0.0,0.0,0.0,0.0,0.0,0.0,0.0,0.0,0.0,0.0,0.0,0.0,0.0,0.0,0.0,0.0,0.0,0.0,0.0,0.0,0.0,0.0,0.0,0.0,0.0,0.0,0.0,0.0,0.0,0.0,0.0,0.0,0.0,0.0,0.0,0.0,0.0,0.0,0.0,0.0,0.0,0.0,0.0,0.0,0.0,0.0,0.0,0.0,0.0,0.0,0.0,0.0,0.0,0.0,0.0,0.0,0.0,0.0,0.0,0.0,0.0,0.0,0.0,0.0,0.0,0.0,0.0,0.0,0.0,0.0,0.0,0.0,0.0,0.0,0.0,0.0,0.0,0.0,0.0,0.0,0.0,0.7246,0.6093,0.6015,0.0,0.4036,0.0,0.0,0.0,0.0,0.0,0.0,0.0,0.0,0.0,0.0,0.0,0.0,0.0,0.0,0.0,0.0,0.0,0.0,0.0,0.0,0.0,0.0,0.0,0.0,0.0,0.0,0.0,0.0,0.0,0.0,0.0,0.0,0.0,0.0,0.0,0.0,0.0,0.0,0.0,0.0,0.0,0.0,0.0,0.0,0.0,0.0,0.0,0.0,0.0,0.0,0.0,0.0,0.0,0.0,0.0,0.0,0.0,0.0,0.0,0.0,0.0,0.0,0.0,0.0,0.0,0.0,0.0,0.0,0.0,0.0,0.0,0.0,0.0,0.0,0.0,0.0,0.0,0.0,0.0,0.0,0.0,0.0,0.0,0.0,0.0,0.0,0.0,0.0,0.0,0.0,0.0,0.0,0.0,0.0,0.0,0.0,0.0,0.0,0.0,0.0,0.0,0.0,0.0,0.0,0.0,0.0,0.0,0.0,0.0,0.0,0.644,0.5899,0.5556,0.4696,0.0,0.0,0.0,0.0,0.0,0.0,0.0,0.0,0.0,0.0,0.0,0.0,0.0,0.0,0.0,0.0,0.0,0.0,0.0,0.0,0.0,0.0,0.0,0.0,0.0,0.0,0.0,0.0,0.0,0.0,0.0,0.0,0.0,0.0,0.0,0.0,0.0,0.0,0.0,0.0,0.0,0.0,0.0,0.0,0.0,0.0,0.0,0.0,0.0,0.0,0.0,0.0,0.0,0.0,0.0,0.0,0.0,0.0,0.0,0.0,0.0,0.0,0.0,0.0,0.0,0.0,0.0,0.0,0.0,0.0,0.0,0.0,0.0,0.0,0.0,0.0,0.0,0.0,0.0,0.0,0.0,0.0,0.0,0.0,0.0,0.0,0.0,0.0,0.0,0.0,0.0,0.0,0.0,0.0,0.0,0.0,0.0,0.0,0.0,0.0,0.0,0.0,0.0,0.0,0.0,0.0,0.0,0.0,0.0,0.0,0.6131,0.5667,0.5196,0.4579,0.3641,0.2427,0.0,0.0,0.0,0.0,0.0,0.0,0.0,0.0,0.0,0.0,0.0,0.0,0.0,0.0,0.0,0.0,0.0,0.0,0.0,0.0,0.0,0.0,0.0,0.0,0.0,0.0,0.0,0.0,0.0,0.0,0.0,0.0,0.0,0.0,0.0,0.0,0.0,0.0,0.0,0.0,0.0,0.0,0.0,0.0,0.0,0.0,0.0,0.0,0.0,0.0,0.0,0.0,0.0,0.0,0.0,0.0,0.0,0.0,0.0,0.0,0.0,0.0,0.0,0.0,0.0,0.0,0.0,0.0,0.0,0.0,0.0,0.0,0.0,0.0,0.0,0.0,0.0,0.0,0.0,0.0,0.0,0.0,0.0,0.0,0.0,0.0,0.0,0.0,0.0,0.0,0.0,0.0,0.0,0.0,0.0,0.0,0.0,0.0,0.0,0.0,0.0,0.0,0.0,0.0,0.0,0.0,0.0,0.0,0.5977,0.586,0.5118,0.3593,0.2741,0.1998,0.0,0.0,0.0,0.0,0.0,0.0,0.0,0.0,0.0,0.0,0.0,0.0,0.0,0.0,0.0,0.0,0.0,0.0,0.0,0.0,0.0,0.0,0.0,0.0,0.0,0.0,0.0,0.0,0.0,0.0,0.0,0.0,0.0,0.0,0.0,0.0,0.0,0.0,0.0,0.0,0.0,0.0,0.0,0.0,0.0,0.0,0.0,0.0,0.0,0.0,0.0,0.0,0.0,0.0,0.0,0.0,0.0,0.0,0.0,0.0,0.0,0.0,0.0,0.0,0.0,0.0,0.0,0.0,0.0,0.0,0.0,0.0,0.0,0.0,0.0,0.0,0.0,0.0,0.0,0.0,0.0,0.0,0.0,0.0,0.0,0.0,0.0,0.0,0.0,0.0,0.0,0.0,0.0,0.0,0.0,0.0,0.0,0.0,0.0,0.0,0.0,0.0,0.0,0.0,0.0,0.0,0.0,0.0,0.0,0.4927,0.4261,0.3521,0.2663,0.2231,0.1448,0.0,0.0,0.0,0.0,0.0,0.0,0.0,0.0,0.0,0.0,0.0,0.0,0.0,0.0,0.0,0.0,0.0,0.0,0.0,0.0,0.0,0.0,0.0,0.0,0.0,0.0,0.0,0.0,0.0,0.0,0.0,0.0,0.0,0.0,0.0,0.0,0.0,0.0,0.0,0.0,0.0,0.0,0.0,0.0,0.0,0.0,0.0,0.0,0.0,0.0,0.0,0.0,0.0,0.0,0.0,0.0,0.0,0.0,0.0,0.0,0.0,0.0,0.0,0.0,0.0,0.0,0.0,0.0,0.0,0.0,0.0,0.0,0.0,0.0,0.0,0.0,0.0,0.0,0.0,0.0,0.0,0.0,0.0,0.0,0.0,0.0,0.0,0.0,0.0,0.0,0.0,0.0,0.0,0.0,0.0,0.0,0.0,0.0,0.0,0.0,0.0,0.0,0.0,0.0,0.0,0.0,0.0,0.0,0.0,0.4384,0.0,0.2623,0.2115,0.1566,0.0705,0.0,0.0,0.0,0.0,0.0,0.0,0.0,0.0,0.0,0.0,0.0,0.0,0.0,0.0,0.0,0.0,0.0,0.0,0.0,0.0,0.0,0.0,0.0,0.0,0.0,0.0,0.0,0.0,0.0,0.0,0.0,0.0,0.0,0.0,0.0,0.0,0.0,0.0,0.0,0.0,0.0,0.0,0.0,0.0,0.0,0.0,0.0,0.0,0.0,0.0,0.0,0.0,0.0,0.0,0.0,0.0,0.0,0.0,0.0,0.0,0.0,0.0,0.0,0.0,0.0,0.0,0.0,0.0,0.0,0.0,0.0,0.0,0.0,0.0,0.0,0.0,0.0,0.0,0.0,0.0,0.0,0.0,0.0,0.0,0.0,0.0,0.0,0.0,0.0,0.0,0.0,0.0,0.0,0.0,0.0,0.0,0.0,0.0,0.0,0.0,0.0,0.0,0.0,0.0,0.0,0.0,0.0,0.0,0.4384,0.4345,0.3483,0.2621,0.1876,0.0627,-0.0393,0.0,0.0,0.0,0.0,0.0,0.0,0.0,0.0,0.0,0.0,0.0,0.0,0.0,0.0,0.0,0.0,0.0,0.0,0.0,0.0,0.0,0.0,0.0,0.0,0.0,0.0,0.0,0.0,0.0,0.0,0.0,0.0,0.0,0.0,0.0,0.0,0.0,0.0,0.0,0.0,0.0,0.0,0.0,0.0,0.0,0.0,0.0,0.0,0.0,0.0,0.0,0.0,0.0,0.0,0.0,0.0,0.0,0.0,0.0,0.0,0.0,0.0,0.0,0.0,0.0,0.0,0.0,0.0,0.0,0.0,0.0,0.0,0.0,0.0,0.0,0.0,0.0,0.0,0.0,0.0,0.0,0.0,0.0,0.0,0.0,0.0,0.0,0.0,0.0,0.0,0.0,0.0,0.0,0.0,0.0,0.0,0.0,0.0,0.0,0.0,0.0,0.0,0.0,0.0,0.0,0.0,0.0,0.0,0.0,0.3326,0.2348,0.1371,0.0392,-0.0471,-0.1022,0.0,0.0,0.0,0.0,0.0,0.0,0.0,0.0,0.0,0.0,0.0,0.0,0.0,0.0,0.0,0.0,0.0,0.0,0.0,0.0,0.0,0.0,0.0,0.0,0.0,0.0,0.0,0.0,0.0,0.0,0.0,0.0,0.0,0.0,0.0,0.0,0.0,0.0,0.0,0.0,0.0,0.0,0.0,0.0,0.0,0.0,0.0,0.0,0.0,0.0,0.0,0.0,0.0,0.0,0.0,0.0,0.0,0.0,0.0,0.0,0.0,0.0,0.0,0.0,0.0,0.0,0.0,0.0,0.0,0.0,0.0,0.0,0.0,0.0,0.0,0.0,0.0,0.0,0.0,0.0,0.0,0.0,0.0,0.0,0.0,0.0,0.0,0.0,0.0,0.0,0.0,0.0,0.0,0.0,0.0,0.0,0.0,0.0,0.0,0.0,0.0,0.0,0.0,0.0,0.0,0.0,0.0,0.0,0.0,0.2621,0.2035,0.1214,0.0039,-0.0667,-0.11,-0.1297,0.0,0.0,0.0,0.0,0.0,0.0,0.0,0.0,0.0,0.0,0.0,0.0,0.0,0.0,0.0,0.0,0.0,0.0,0.0,0.0,0.0,0.0,0.0,0.0,0.0,0.0,0.0,0.0,0.0,0.0,0.0,0.0,0.0,0.0,0.0,0.0,0.0,0.0,0.0,0.0,0.0,0.0,0.0,0.0,0.0,0.0,0.0,0.0,0.0,0.0,0.0,0.0,0.0,0.0,0.0,0.0,0.0,0.0,0.0,0.0,0.0,0.0,0.0,0.0,0.0,0.0,0.0,0.0,0.0,0.0,0.0,0.0,0.0,0.0,0.0,0.0,0.0,0.0,0.0,0.0,0.0,0.0,0.0,0.0,0.0,0.0,0.0,0.0,0.0,0.0,0.0,0.0,0.0,0.0,0.0,0.0,0.0,0.0,0.0,0.0,0.0,0.0,0.0,0.0,0.0,0.0,0.0,0.0,0.2233,0.2391,0.1842,0.0549,-0.0235,-0.0825,0.0,0.0,0.0,0.0,0.0,0.0,0.0,0.0,0.0,0.0,0.0,0.0,0.0,0.0,0.0,0.0,0.0,0.0,0.0,0.0,0.0,0.0,0.0,0.0,0.0,0.0,0.0,0.0,0.0,0.0,0.0,0.0,0.0,0.0,0.0,0.0,0.0,0.0,0.0,0.0,0.0,0.0,0.0,0.0,0.0,0.0,0.0,0.0,0.0,0.0,0.0,0.0,0.0,0.0,0.0,0.0,0.0,0.0,0.0,0.0,0.0,0.0,0.0,0.0,0.0,0.0,0.0,0.0,0.0,0.0,0.0,0.0,0.0,0.0,0.0,0.0,0.0,0.0,0.0,0.0,0.0,0.0,0.0,0.0,0.0,0.0,0.0,0.0,0.0,0.0,0.0,0.0,0.0,0.0,0.0,0.0,0.0,0.0,0.0,0.0,0.0,0.0,0.0,0.0,0.0,0.0,0.0,0.0,0.0,0.2528,0.2491,0.1594,-0.0236,-0.0825,-0.1061,0.0,0.0,0.0,0.0,0.0,0.0,0.0,0.0,0.0,0.0,0.0,0.0,0.0,0.0,0.0,0.0,0.0,0.0,0.0,0.0,0.0,0.0,0.0,0.0,0.0,0.0,0.0,0.0,0.0,0.0,0.0,0.0,0.0,0.0,0.0,0.0,0.0,0.0,0.0,0.0,0.0,0.0,0.0,0.0,0.0,0.0,0.0,0.0,0.0,0.0,0.0,0.0,0.0,0.0,0.0,0.0,0.0,0.0,0.0,0.0,0.0,0.0,0.0,0.0,0.0,0.0,0.0,0.0,0.0,0.0,0.0,0.0,0.0,0.0,0.0,0.0,0.0,0.0,0.0,0.0,0.0,0.0,0.0,0.0,0.0,0.0,0.0,0.0,0.0,0.0,0.0,0.0,0.0,0.0,0.0,0.0,0.0,0.0,0.0,0.0,0.0,0.0,0.0,0.0,0.0,0.0,0.0,0.0,0.4198,0.2552,0.2392,0.1498,-0.0283,-0.0681,-0.0873,0.0,0.0,0.0,0.0,0.0,0.0,0.0,0.0,0.0,0.0,0.0,0.0,0.0,0.0,0.0,0.0,0.0,0.0,0.0,0.0,0.0,0.0,0.0,0.0,0.0,0.0,0.0,0.0,0.0,0.0,0.0,0.0,0.0,0.0,0.0,0.0,0.0,0.0,0.0,0.0,0.0,0.0,0.0,0.0,0.0,0.0,0.0,0.0,0.0,0.0,0.0,0.0,0.0,0.0,0.0,0.0,0.0,0.0,0.0,0.0,0.0,0.0,0.0,0.0,0.0,0.0,0.0,0.0,0.0,0.0,0.0,0.0,0.0,0.0,0.0,0.0,0.0,0.0,0.0,0.0,0.0,0.0,0.0,0.0,0.0,0.0,0.0,0.0,0.0,0.0,0.0,0.0,0.0,0.0,0.0,0.0,0.0,0.0,0.0,0.0,0.0,0.0,0.0,0.0,0.0,0.0,0.0,0.0,0.4214,0.256,0.2365,0.1527,0.0084,-0.0206,-0.0524,0.0,0.0,0.0,0.0,0.0,0.0,0.0,0.0,0.0,0.0,0.0,0.0,0.0,0.0,0.0,0.0,0.0,0.0,0.0,0.0,0.0,0.0,0.0,0.0,0.0,0.0,0.0,0.0,0.0,0.0,0.0,0.0,0.0,0.0,0.0,0.0,0.0,0.0,0.0,0.0,0.0,0.0,0.0,0.0,0.0,0.0,0.0,0.0,0.0,0.0,0.0,0.0,0.0,0.0,0.0,0.0,0.0,0.0,0.0,0.0,0.0,0.0,0.0,0.0,0.0,0.0,0.0,0.0,0.0,0.0,0.0,0.0,0.0,0.0,0.0,0.0,0.0,0.0,0.0,0.0,0.0,0.0,0.0,0.0,0.0,0.0,0.0,0.0,0.0,0.0,0.0,0.0,0.0,0.0,0.0,0.0,0.0,0.0,0.0,0.0,0.0,0.0,0.0,0.0,0.0,0.0,0.0,0.0,0.4272,0.2539,0.2586,0.1759,0.0043,-0.0374,-0.0568,0.0,0.0,0.0,0.0,0.0,0.0,0.0,0.0,0.0,0.0,0.0,0.0,0.0,0.0,0.0,0.0,0.0,0.0,0.0,0.0,0.0,0.0,0.0,0.0,0.0,0.0,0.0,0.0,0.0,0.0,0.0,0.0,0.0,0.0,0.0,0.0,0.0,0.0,0.0,0.0,0.0,0.0,0.0,0.0,0.0,0.0,0.0,0.0,-0.0354,0.0,0.0,0.0,0.0,0.0,0.0,0.0,0.0,0.0,0.0,0.0,0.0,0.0,0.0,0.0,0.0,0.0,0.0,0.0,0.0,0.0,0.0,0.0,0.0,0.0,0.0,0.0,0.0,0.0,0.0,0.0,0.0,0.0,0.0,0.0,0.0,0.0,0.0,0.0,0.0,0.0,0.0,0.0,0.0,0.0,0.0,0.0,0.0,0.0,0.0,0.0,0.0,0.0,0.0,0.0,0.0,0.0,0.0,0.0,0.4342,0.2557,0.2658,0.1832,0.0088,-0.0212,-0.037,0.0,0.0,0.0,0.0,0.0,0.0,0.0,0.0,0.0,0.0,0.0,0.0,0.0,0.0,0.0,0.0,0.0,0.0,0.0,0.0,0.0,0.0,0.0,0.0,0.0,0.0,0.0,0.0,0.0,0.0,0.0,0.0,0.0,0.0,0.0,0.0,0.0,0.0,0.0,0.0,0.0,0.0,0.0,0.0,0.0,0.0,0.0,0.0,0.0,0.0,0.0,0.0,0.0,0.0,0.0,0.0,0.0,0.0,0.0,0.0,0.0,0.0,0.0,0.0,0.0,0.0,0.0,0.0,0.0,0.0,0.0,0.0,0.0,0.0,0.0,0.0,0.0,0.0,0.0,0.0,0.0,0.0,0.0,0.0,0.0,0.0,0.0,0.0,0.0,0.0,0.0,0.0,0.0,0.0,0.0,0.0,0.0,0.0,0.0,0.0,0.0,0.0,0.0,0.0,0.0,0.0,0.0,0.5148,0.4399,0.281,0.2711,0.1936,0.0269,0.0043,-0.0083,-0.0246,0.0,0.0,0.0,0.0,0.0,0.0,0.0,0.0,0.0,0.0,0.0,0.0,0.0,0.0,0.0,0.0,0.0,0.0,0.0,0.0,0.0,0.0,0.0,0.0,0.0,0.0,0.0,0.0,0.0,0.0,0.0,0.0,0.0,0.0,0.0,0.0,0.0,0.0,0.7525,0.6083,0.0,0.0,0.0,0.0,0.0,0.0,0.0,0.0,-0.1819,0.0,0.0,0.0,0.0,0.0,0.0,0.0,0.0,0.0,0.0,0.0,0.0,0.0,0.0,0.0,0.0,0.0,0.0,0.0,0.0,0.0,0.0,0.0,0.0,0.0,0.0,0.0,0.0,0.0,0.0,0.0,0.0,0.0,0.0,0.0,0.0,0.0,0.0,0.0,0.0,0.0,0.0,0.0,0.0,0.0,0.0,0.0,0.0,0.0,0.0,0.0,0.0,0.0,0.0,0.0,0.0,0.5018,0.5227,0.4804,0.3692,0.3143,0.2322,0.121,0.0431,0.0,-0.0084,0.0,0.0,0.0,0.0,0.0,0.0,0.0,0.0,0.0,0.0,0.0,0.0,0.0,0.0,0.0,0.0,0.0,0.0,0.0,0.0,0.0,0.0,0.0,0.0,0.0,0.0,0.0,0.0,0.0,0.0,0.0,0.0,0.0,0.0,0.0,0.0,0.0,0.0,0.0,0.6195,0.5074,0.0,0.0,0.0,0.0,0.0,0.0,0.0,0.0,-0.2626,0.0,0.0,0.0,0.0,0.0,0.0,0.0,0.0,0.0,0.0,0.0,0.0,0.0,0.0,0.0,0.0,0.0,0.0,0.0,0.0,0.0,0.0,0.0,0.0,0.0,0.0,0.0,0.0,0.0,0.0,0.0,0.0,0.0,0.0,0.0,0.0,0.0,0.0,0.0,0.0,0.0,0.0,0.0,0.0,0.0,0.0,0.0,0.0,0.0,0.0,0.0,0.0,0.0,0.0,0.0,0.5029,0.5249,0.4905,0.3946,0.3723,0.3181,0.2194,0.1247,0.0715,0.0,0.0,0.0,0.0,0.0,0.0,0.0,0.0,0.0,0.0,0.0,0.0,0.0,0.0,0.0,0.0,0.0,0.0,0.0,0.0,0.0,0.0,0.0,0.0,0.0,0.0,0.0,0.0,0.0,0.0,0.0,0.0,0.0,0.0,0.0,0.0,0.0,0.0,0.0,0.0,0.6536,0.5564,0.4922,0.0,0.0,0.0,0.0,0.0,0.0,-0.17,-0.2818,0.0,0.0,0.0,0.0,0.0,0.0,0.0,0.0,0.0,0.0,0.0,0.0,0.0,0.0,0.0,0.0,0.0,0.0,0.0,0.0,0.0,0.0,0.0,0.0,0.0,0.0,0.0,0.0,0.0,0.0,0.0,0.0,0.0,0.0,0.0,0.0,0.0,0.0,0.0,0.0,0.0,0.0,0.0,0.0,0.0,0.0,0.0,0.0,0.0,0.0,0.0,0.0,0.0,0.0,0.0,0.4987,0.5249,0.5032,0.4241,0.4247,0.3941,0.3178,0.2192,0.1596,0.0,0.0,0.0,0.0,0.0,0.0,0.0,0.0,0.0,0.0,0.0,0.0,0.0,0.0,0.0,0.0,0.0,0.0,0.0,0.0,0.0,0.0,0.0,0.0,0.0,0.0,0.0,0.0,0.0,0.0,0.0,0.0,0.0,0.0,0.0,0.0,0.0,0.0,0.0,0.0,0.0,0.5521,0.4517,0.37,0.0,0.0,0.0,0.0,-0.0651,-0.1711,0.0,0.0,0.0,0.0,0.0,0.0,0.0,0.0,0.0,0.0,0.0,0.0,0.0,0.0,0.0,0.0,0.0,0.0,0.0,0.0,0.0,0.0,0.0,0.0,0.0,0.0,0.0,0.0,0.0,0.0,0.0,0.0,0.0,0.0,0.0,0.0,0.0,0.0,0.0,0.0,0.0,0.0,0.0,0.0,0.0,0.0,0.0,0.0,0.0,0.0,0.0,0.0,0.0,0.0,0.0,0.0,0.4987,0.5249,0.5327,0.521,0.4642,0.4253,0.4117,0.3092,0.2182,0.0,0.0,0.0,0.0,0.0,0.0,0.0,0.0,0.0,0.0,0.0,0.0,0.0,0.0,0.0,0.0,0.0,0.0,0.0,0.0,0.0,0.0,0.0,0.0,0.0,0.0,0.0,0.0,0.0,0.0,0.0,0.0,0.0,0.0,0.0,0.0,0.0,0.0,0.0,0.0,0.0,0.387,0.3464,0.263,0.1943,0.0,0.0,0.1405,0.1191,-0.0372,0.0,0.0,0.0,0.0,0.0,0.0,0.0,0.0,0.0,0.0,0.0,0.0,0.0,0.0,0.0,0.0,0.0,0.0,0.0,0.0,0.0,0.0,0.0,0.0,0.0,0.0,0.0,0.0,0.0,0.0,0.0,0.0,0.0,0.0,0.0,0.0,0.0,0.0,0.0,0.0,0.0,0.0,0.0,0.0,0.0,0.0,0.0,0.0,0.0,0.0,0.0,0.0,0.0,0.0,0.0,0.5018,0.4987,0.5252,0.5413,0.5418,0.5211,0.5075,0.4971,0.4008,0.3293,0.0,0.0,0.0,0.0,0.0,0.0,0.0,0.0,0.0,0.0,0.0,0.0,0.0,0.0,0.0,0.0,0.0,0.0,0.0,0.0,0.0,0.0,0.0,0.0,0.0,0.0,0.0,0.0,0.0,0.0,0.0,0.0,0.0,0.0,0.0,0.0,0.0,0.0,0.0,0.0,0.0,0.0,0.3318,0.32,0.0,0.0,0.0,0.1349,0.0812,0.0,0.0,0.0,0.0,0.0,0.0,0.0,0.0,0.0,0.0,0.0,0.0,0.0,0.0,0.0,0.0,0.0,0.0,0.0,0.0,0.0,0.0,0.0,0.0,0.0,0.0,0.0,0.0,0.0,0.0,0.0,0.0,0.0,0.0,0.0,0.0,0.0,0.0,0.0,0.0,0.0,0.0,0.0,0.0,0.0,0.0,0.0,0.0,0.0,0.0,0.0,0.0,0.0,0.0,0.0,0.0,0.0,0.5021,0.5412,0.5574,0.5418,0.5608,0.5632,0.5464,0.4796,0.0,0.0,0.0,0.0,0.0,0.0,0.0,0.0,0.0,0.0,0.0,0.0,0.0,0.0,0.0,0.0,0.0,0.0,0.0,0.0,0.0,0.0,0.0,0.0,0.0,0.0,0.0,0.7518,0.0,0.0,0.0,0.0,0.0,0.0,0.0,0.0,0.0,0.0,0.0,0.0,0.0,0.0,0.5322,0.3334,0.3665,0.3516,0.0,0.0,0.1254,0.0573,-0.0557,-0.1625,0.0,0.0,0.0,0.0,0.0,0.0,0.0,0.0,0.0,0.0,0.0,0.0,0.0,0.0,0.0,0.0,0.0,0.0,0.0,0.0,0.0,0.0,0.0,0.0,0.0,0.0,0.0,0.0,0.0,0.0,0.0,0.0,0.0,0.0,0.0,0.0,0.0,0.0,0.0,0.0,0.0,0.0,0.0,0.0,0.0,0.0,0.0,0.0,0.0,0.0,0.0,0.0,0.0,0.0,0.0,0.5065,0.5813,0.5987,0.5418,0.5608,0.5632,0.5508,0.5389,0.4853,0.0,0.0,0.0,0.0,0.0,0.0,0.0,0.0,0.0,0.0,0.0,0.0,0.0,0.0,0.0,0.0,0.0,0.0,0.0,0.0,0.0,0.0,0.0,0.0,0.0,0.0,0.0,0.0,0.0,0.0,0.0,0.0,0.0,0.0,0.0,0.0,0.0,0.0,0.0,0.0,0.0,0.4776,0.3464,0.3294,0.2885,0.0,0.0,0.1541,0.1438,-0.0142,-0.1365,-0.1614,0.0,0.0,0.0,0.0,0.0,0.0,0.0,0.0,0.0,0.0,0.0,0.0,0.0,0.0,0.0,0.0,0.0,0.0,0.0,0.0,0.0,0.0,0.0,0.0,0.0,0.0,0.0,0.0,0.0,0.0,0.0,0.0,0.0,0.0,0.0,0.0,0.0,0.0,0.0,0.0,0.0,0.0,0.0,0.0,0.0,0.0,0.0,0.0,0.0,0.0,0.0,0.0,0.0,0.7046,0.6549,0.6774,0.6812,0.6574,0.6167,0.589,0.5763,0.5515,0.5185,0.0,0.0,0.0,0.0,0.0,0.0,0.0,0.0,0.0,0.0,0.0,0.0,0.0,0.0,0.0,0.0,0.0,0.0,0.0,0.0,0.0,0.0,0.0,0.0,0.0,0.0,0.0,0.0,0.7518,0.7518,0.7518,0.0,0.0,0.0,0.0,0.0,0.0,0.0,0.0,0.0,0.0,0.543,0.3721,0.3954,0.0,0.0,0.1743,0.1779,0.1606,-0.0144,-0.1417,-0.1482,-0.3041,0.0,0.0,0.0,0.0,0.0,0.0,0.0,0.0,0.0,0.0,0.0,0.0,0.0,0.0,0.0,0.0,0.0,0.0,0.0,0.0,0.0,0.0,0.0,0.0,0.0,0.0,0.0,0.0,0.0,0.0,0.0,0.0,0.0,0.0,0.0,0.0,0.0,0.0,0.0,0.0,0.0,0.0,0.0,0.0,0.0,0.0,0.0,0.0,0.0,0.0,0.0,0.0,0.8042,0.7693,0.7861,0.7881,0.772,0.7278,0.6907,0.6724,0.6492,0.627,0.0,0.0,0.0,0.0,0.0,0.0,0.0,0.0,0.0,0.0,0.0,0.0,0.0,0.0,0.0,0.0,0.0,0.0,0.0,0.0,0.0,0.0,0.0,0.0,0.0,0.0,0.0,0.0,0.7518,0.7518,0.7518,0.0,0.0,0.0,0.0,0.0,0.0,0.0,0.0,0.0,0.0,0.6694,0.4991,0.4999,0.4457,0.2516,0.2097,0.1928,0.1671,0.0097,-0.1003,-0.099,0.0,0.0,0.0,0.0,0.0,0.0,0.0,0.0,0.0,0.0,0.0,0.0,0.0,0.0,0.0,0.0,0.0,0.0,0.0,0.0,0.0,0.0,0.0,0.0,0.0,0.0,0.0,0.0,0.0,0.0,1.911,0.0,0.0,0.0,0.0,0.0,0.0,0.0,0.0,0.0,0.0,0.0,0.0,0.0,0.0,0.0,0.0,0.0,0.0,0.0,0.0,0.0,0.0,0.9268,0.8127,0.9061,0.9232,0.8623,0.8935,0.8909,0.8522,0.8537,0.8359,0.7991,0.0,0.0,0.0,0.0,0.0,0.0,0.0,0.0,0.0,0.0,0.0,0.0,0.0,0.0,0.0,0.0,0.0,0.0,0.0,0.0,0.0,0.0,0.0,0.0,0.0,0.0,0.7561,0.7518,0.7522,0.0,0.0,0.0,0.0,0.0,0.0,0.0,0.0,0.0,0.0,0.8894,0.8568,0.7421,0.6347,0.5068,0.372,0.267,0.1907,0.1626,0.0735,0.0049,0.0,0.0,0.0,0.0,0.0,0.0,0.0,0.0,0.0,0.0,0.0,0.0,0.0,0.0,0.0,0.0,0.0,0.0,0.0,0.0,0.0,0.0,0.0,0.0,0.0,0.0,0.0,2.1817,2.1834,0.0,0.0,0.0,0.0,0.0,0.0,0.0,0.0,0.0,0.0,0.0,1.6796,1.6419,0.0,0.0,0.0,0.0,0.0,0.0,0.0,0.0,0.0,0.0,0.0,0.0,1.0105,0.9738,1.0013,1.0075,0.9877,0.962,0.9318,0.9025,0.8762,0.8435,0.8097,0.0,0.0,0.0,0.0,0.0,0.0,0.0,0.0,0.0,0.0,0.0,0.0,0.0,0.0,0.0,0.0,0.0,0.0,0.0,0.0,0.0,0.0,0.0,0.0,0.0,0.814,0.0,0.0,0.0,0.0,0.0,0.0,0.0,0.0,0.0,0.0,0.0,0.8982,0.9149,0.9092,0.8668,0.7681,0.6548,0.5375,0.0,0.0,0.0,0.0,0.0,0.0,0.0,0.0,0.0,0.0,0.0,0.0,0.0,0.0,-0.4568,-0.421,-0.4279,-0.4462,-0.4662,0.0,0.0,0.0,0.0,0.0,0.0,0.0,0.0,0.0,0.0,0.0,0.0,0.0,0.0,0.0,0.0,2.1914,0.0,0.0,0.0,0.0,0.0,0.0,0.0,0.0,1.8705,1.8336,1.7917,1.7529,1.6927,0.0,1.5607,1.4529,0.0,0.0,0.0,0.0,0.0,0.0,0.0,0.0,1.07,1.0723,1.0886,1.0974,1.099,1.0773,1.0522,1.0144,0.9722,0.935,0.9155,0.8803,0.8803,0.0,0.0,0.0,0.0,0.0,0.0,0.0,0.0,0.0,0.0,0.0,0.0,0.0,0.0,0.0,0.0,0.0,0.0,0.0,0.0,0.0,0.0,0.0,0.8627,0.0,0.0,0.0,0.0,0.0,0.0,0.0,0.0,0.0,0.8572,0.893,0.9226,0.9388,0.9268,0.9002,0.8354,0.0,0.0,0.0,0.0,0.0,0.0,0.0,0.0656,0.0555,-0.0299,-0.1327,-0.2313,-0.3225,-0.3841,-0.3842,0.0,0.0,-0.45,-0.4695,-0.4892,-0.5017,-0.5183,-0.5737,-0.7397,-0.7837,-0.8433,0.0,0.0,0.0,0.0,0.0,0.0,0.0,0.0,2.3539,2.3753,0.0,2.2866,0.0,0.0,0.0,0.0,0.0,0.0,0.0,0.0,2.0109,1.9638,1.9559,1.8585,1.7914,1.7562,1.7114,1.6266,1.4934,1.3645,0.0,0.0,0.0,0.0,0.0,0.0,1.1149,1.1204,1.163,1.1908,1.1914,1.2367,1.2385,1.1846,1.1357,1.1049,1.1037,1.0126,0.9631,0.9631,0.9258,0.0,0.0,0.0,0.0,0.0,0.0,0.0,0.0,0.0,0.0,0.0,0.0,0.0,0.0,0.0,0.0,0.0,0.0,0.0,0.0,0.9458,0.0,0.0,0.0,0.0,0.0,0.0,0.0,0.0,0.0,0.0,0.9151,0.9302,0.9412,0.9416,0.0,0.0,0.0,0.0,0.7524,0.6229,0.5129,0.3879,0.2323,0.2071,0.192,0.1617,0.0,0.0,-0.1279,-0.2268,-0.3,-0.3,-0.3757,-0.451,-0.4961,-0.5322,-0.562,-0.5667,-0.5656,-0.6254,-0.7718,-0.8132,-0.87,2.4278,0.0,0.0,0.0,0.0,2.2675,2.3053,2.3694,2.3202,2.3564,2.4387,2.3229,0.0,0.0,0.0,0.0,0.0,0.0,2.1011,2.1203,2.0895,2.0731,2.0731,1.9923,1.9355,1.8993,1.8205,1.7449,1.6713,1.5544,1.4183,1.268,0.0,0.0,0.0,0.0,1.2378,1.2362,1.2292,1.2247,1.2247,1.2163,1.1946,1.1609,1.1298,1.1117,1.1117,1.0812,1.0545,1.025,1.0137,0.0,0.0,0.0,0.0,0.0,0.0,0.0,0.0,0.0,0.0,0.0,0.0,0.0,0.0,0.0,0.0,0.0,0.0,0.0,1.0657,1.01,0.9999,0.0,0.0,0.0,0.0,0.0,0.0,0.0,0.0,0.0,0.9824,0.9612,0.9547,0.0,0.0,0.9624,0.9624,0.8673,0.7872,0.7475,0.0,0.0,0.0,0.3274,0.2771,0.1768,0.0706,-0.0101,-0.04,-0.1293,-0.2231,-0.2973,-0.3503,-0.4121,-0.5158,-0.5301,-0.5302,-0.5599,-0.5688,-0.603,-0.7085,-0.8028,-0.8945,2.6115,2.5538,2.4266,2.3844,2.4104,2.4057,2.4384,2.4944,2.4241,2.4386,2.5054,2.3724,2.3086,2.2922,2.228,0.0,0.0,0.0,2.1662,2.189,2.1662,2.1548,2.152,2.0905,2.0477,2.0194,1.9467,1.8791,1.8114,1.7252,1.598,1.4292,0.0,0.0,1.29,1.29,1.29,1.2914,1.2818,1.2739,1.2777,1.2564,1.2382,1.2209,1.1928,1.1818,1.1818,1.1818,1.1706,1.1446,1.1446,1.1527,0.0,0.0,0.0,0.0,0.0,0.0,0.0,0.0,0.0,0.0,0.0,1.0368,0.0,0.0,0.0,0.0,1.1714,1.2082,1.2424,1.1817,0.0,0.0,0.0,0.0,0.0,0.0,0.0,1.226,1.2135,1.1647,1.076,1.0502,1.0212,0.9673,0.9624,0.9624,0.9624,0.0,0.8474,0.8071,0.7325,0.6276,0.4874,0.4123,0.3271,0.1818,0.106,0.0656,0.0605,-0.0252,-0.1159,-0.1813,-0.2418,-0.3224,-0.458,-0.4602,-0.4791,-0.5777,-0.5966,-0.6276,-0.7096,-0.8116,-0.9084,2.7828,2.7663,2.5862,2.5389,2.5854,2.6288,2.6444,2.6444,2.6001,2.5864,2.579,2.4498,2.3859,2.3755,2.2745,0.0,2.3001,2.244,2.2467,2.2964,2.2451,2.2176,2.2138,2.1558,2.128,2.128,2.0788,2.012,1.9269,1.8784,1.7899,1.6616,1.4977,1.3783,1.3112,1.3083,1.3076,1.3046,1.3248,1.3313,1.3275,1.3275,1.3275,1.323,1.301,1.29,1.29,1.29,1.29,1.29,1.29,1.29,1.2929,0.0,0.0,0.0,0.0,0.0,0.0,0.0,0.0,0.0,0.0,0.0,0.0,0.0,0.0,0.0,1.2805,0.0,1.4462,1.4072,0.0,0.0,0.0,1.3127,1.3297,1.342,1.3485,1.3409,0.0,0.0,1.1945,0.0,1.1277,1.0068,0.9727,0.9624,0.9624,0.9579,0.9278,0.8322,0.817,0.7574,0.5974,0.4824,0.3623,0.2321,0.1768,0.1716,0.1662,0.0855,0.0201,-0.015,-0.0853,-0.1904,-0.3207,-0.3589,-0.4161,-0.5825,-0.6242,-0.6569,-0.7321,-0.823,-0.9091,2.8999,2.8909,2.7992,2.7062,2.6165,2.6024,2.6109,2.6329,2.5954,2.6161,2.6732,2.6119,2.5419,2.4726,2.411,2.3539,2.3001,2.2852,2.2852,2.2964,2.2852,2.2777,2.274,2.2176,2.1873,2.1863,2.1318,2.0903,2.0688,1.9973,1.9285,1.8585,1.7593,1.6279,1.4705,1.4661,1.4482,1.4201,1.3879,1.344,1.3012,1.3005,1.3005,1.3005,1.2942,1.29,1.29,1.29,1.29,1.29,1.29,1.3112,1.3542,1.3032,0.0,0.0,0.0,0.0,0.0,0.0,0.0,0.0,0.0,1.2268,1.2224,0.0,1.3398,0.0,1.4173,1.4583,1.4791,1.4532,0.0,0.0,1.444,1.4352,1.5798,1.5503,1.5189,1.516,1.5035,1.4543,1.3494,1.3017,1.2635,1.2252,1.0694,0.9624,0.9624,0.9624,0.9529,0.9274,0.9175,0.8627,0.7015,0.5575,0.4474,0.4124,0.3323,0.2809,0.2818,0.1925,0.0934,0.0145,-0.0241,-0.0964,-0.2219,-0.3036,-0.3761,-0.4676,-0.5458,-0.6149,-0.656,-0.7879,-0.9065,2.9793,2.9755,2.9457,2.8827,2.8044,2.7287,2.7116,2.7248,2.6922,2.6904,2.7046,2.6445,2.589,2.541,2.5126,2.4616,2.3903,2.3892,2.3769,2.353,2.3372,2.3261,2.3261,2.2729,2.2515,2.2478,2.2166,2.1852,2.1565,2.0947,2.0233,1.9528,1.888,1.7846,1.6499,1.6044,1.5515,1.4883,1.4589,1.4165,1.3659,1.3666,1.3659,1.3651,1.3659,1.3659,1.3659,1.3659,1.3659,1.3666,1.3666,1.3804,1.4129,1.384,1.4017,0.0,0.0,0.0,0.0,0.0,0.0,0.0,0.0,0.0,0.0,0.0,1.4463,1.4896,1.5319,1.5577,1.5577,1.5583,1.5779,1.6286,1.5801,1.5891,1.697,1.6696,1.6466,1.6466,1.6365,1.5839,1.4734,1.431,1.3836,1.3216,1.2009,1.0935,1.0355,0.9916,0.9624,0.9624,0.9624,0.8992,0.7389,0.6197,0.5246,0.4716,0.4121,0.3619,0.3198,0.2662,0.1881,0.0859,0.0619,0.0238,-0.0951,-0.1568,-0.2329,-0.3661,-0.4472,-0.5168,-0.6077,-0.7355,-0.8318,3.0431,3.0431,3.0317,3.0292,3.0203,2.9184,2.8736,2.87,2.8423,2.7997,2.7442,2.6732,2.6305,2.6208,2.6138,2.5748,2.5208,2.5064,2.4761,2.4261,2.3897,2.3677,2.3666,2.3335,2.3113,2.3075,2.301,2.268,2.2109,2.1655,2.0928,1.9961,1.955,1.8927,1.8124,1.731,1.6455,1.5471,1.5374,1.5125,1.4776,1.4776,1.474,1.474,1.484,1.4911,1.4919,1.4947,1.4947,1.4955,1.4911,1.4911,1.4911,1.4987,1.5158,0.0,1.5614,0.0,0.0,0.0,0.0,0.0,0.0,0.0,0.0,1.5014,1.5459,1.6177,1.6543,1.6736,1.6684,1.6861,1.6961,1.6969,1.7157,1.7286,1.7286,1.7286,1.7286,1.7286,1.7286,1.685,1.5832,1.565,1.5026,1.398,1.3457,1.2823,1.1804,1.0645,0.9871,0.9821,0.9657,0.8924,0.7559,0.6807,0.6101,0.5104,0.4715,0.4318,0.3605,0.3179,0.2702,0.1891,0.151,0.1133,0.0236,-0.0047,-0.0801,-0.2633,-0.3393,-0.4264,-0.5691,-0.6747,-0.7556,3.1033,3.0996,3.0507,3.0292,3.0292,3.005,2.9947,2.9935,2.9897,2.9808,2.9706,2.9517,2.905,2.8362,2.7879,2.7201,2.6323,2.5421,2.4944,2.485,2.4322,2.408,2.408,2.4007,2.3787,2.346,2.3117,2.2712,2.2262,2.1786,2.1263,2.0708,2.0622,1.9917,1.8721,0.0,0.0,0.0,1.6219,1.5807,1.5763,1.5648,1.5551,1.5586,1.6254,0.0,1.6627,1.6775,1.6888,1.6844,1.6697,0.0,0.0,0.0,0.0,0.0,0.0,0.0,0.0,0.0,0.0,0.0,1.8002,1.7386,1.602,1.7286,1.8527,1.9096,1.8796,1.8435,1.8301,1.7819,1.7485,1.7245,1.7296,1.7286,1.7286,1.7333,1.7286,1.7286,1.7286,1.7232,1.699,1.6817,1.6588,1.6109,1.5194,1.437,1.4022,1.2178,1.0925,1.0828,0.9968,0.8912,0.8168,0.7769,0.7335,0.6979,0.6214,0.5654,0.5206,0.3898,0.2954,0.26,0.1951,0.1408,0.109,0.0544,-0.0182,-0.0906,-0.2391,-0.4031,-0.5407,-0.6475,-0.7402,3.169,0.0,3.1357,3.1246,0.0,3.1246,3.1246,3.1209,3.0897,3.0733,3.0733,3.0431,3.005,2.9593,2.9009,2.8342,2.7595,2.6772,2.6247,2.5953,2.5229,2.4909,2.4874,2.4431,2.3954,2.3487,2.3273,2.2918,2.2449,2.1818,2.1384,2.1152,2.0731,2.0149,1.9462,1.9627,1.9044,1.7711,1.7223,1.6888,1.6697,1.6611,1.6585,1.6611,0.0,0.0,0.0,0.0,0.0,0.0,0.0,0.0,0.0,0.0,0.0,1.857,1.8898,1.9212,1.9467,1.9278,1.9098,1.8955,1.941,1.9191,1.7845,1.9097,2.0078,2.0382,2.0123,1.9896,1.9815,1.9488,1.9193,1.8964,1.8918,1.8742,1.8149,1.8056,1.8064,1.7971,1.7606,1.7458,1.7971,1.7473,1.7113,1.6965,1.6221,1.5498,1.5217,1.3311,1.171,1.151,1.0418,0.9482,0.9083,0.8406,0.7912,0.7538,0.7096,0.6515,0.5907,0.4949,0.4029,0.3141,0.2465,0.2017,0.1435,0.0987,0.0493,-0.0268,-0.1331,-0.274,-0.4336,-0.5589,-0.6656,3.2205,3.2205,3.2205,3.2205,3.2205,3.2205,3.2205,3.2169,0.0,0.0,0.0,3.0859,3.0581,3.0401,2.9859,2.9254,2.8721,2.8096,2.7559,2.7108,2.6264,2.5836,2.5802,2.4957,2.4248,2.3781,2.3583,2.3178,2.2614,2.1865,2.1439,2.1318,2.0566,2.0172,2.0118,2.0118,1.9528,1.8408,1.8196,1.7993,1.7677,1.7609,1.7575,1.7609,1.7745,1.7847,1.7847,1.7847,1.7881,1.7881,1.7847,1.8066,1.85,1.8633,1.9033,1.9757,1.9979,2.0146,2.0372,1.9965,1.9686,1.9659,2.0633,2.0958,2.0235,2.089,2.1376,2.1451,2.1342,2.1293,2.1203,2.1025,2.089,2.0674,2.0638,2.0223,1.933,1.9155,1.9109,1.9018,1.8427,1.8102,1.8872,1.8134,1.7424,1.7208,1.6692,1.6287,1.5745,1.3952,1.2371,1.1808,1.0968,1.0342,1.0024,0.9392,0.8446,0.8034,0.7827,0.7323,0.634,0.5836,0.5068,0.3776,0.3154,0.2521,0.1815,0.1459,0.1064,0.0089,-0.0481,-0.1208,-0.2848,-0.4282,-0.5561,3.2205,3.2205,3.2205,3.2205,3.2205,3.2205,3.2205,3.2205,3.2109,3.2059,3.2059,3.1973,3.1617,3.1119,3.054,2.9948,2.9329,2.8305,2.7755,0.0,2.7074,2.6803,2.6765,2.6139,2.5628,2.5153,2.4285,2.3408,2.2624,2.2087,2.1631,2.1241,2.0733,2.0388,2.0118,2.0118,2.0009,1.9802,1.9077,1.8667,1.859,1.8432,1.8321,1.8398,1.911,1.9551,1.9561,1.9627,1.9736,1.9704,1.9605,1.9774,2.0207,2.061,2.1101,2.1611,2.2173,2.243,2.2295,2.1861,2.1713,2.1947,2.2832,2.3344,2.3258,2.341,2.3591,2.3904,2.3197,2.2683,2.2463,2.1747,2.1248,2.0971,2.0881,2.0755,2.0541,2.0406,2.0271,2.0262,2.0042,1.9708,1.9785,1.8901,1.811,1.7936,1.7123,1.5999,1.5491,1.4289,1.3038,1.1958,1.1492,1.1214,1.096,1.0753,1.0047,0.9113,0.8834,0.8388,0.7365,0.6402,0.5607,0.5127,0.3824,0.2808,0.2465,0.1782,0.1407,0.0981,0.017,-0.076,-0.1349,-0.2495,-0.4063,3.308,3.3023,3.2646,3.2717,3.3044,3.2846,3.2632,3.2467,3.2467,3.2336,3.2191,3.1843,3.1558,3.1219,3.031,2.9754,2.9442,2.8616,2.8229,2.8183,2.7689,2.7274,2.6908,2.6387,2.5677,2.4906,2.4412,2.3809,2.317,2.2757,2.2433,2.2218,2.1865,2.1553,2.1302,2.1302,2.125,2.1155,2.0063,1.9495,1.9495,1.9429,1.9353,1.9396,1.9802,2.0009,2.0009,2.0074,2.0118,2.0118,2.0053,2.0346,2.1107,2.1322,2.1803,2.2509,2.2844,2.2964,2.2889,2.2572,2.2428,2.2553,2.3079,2.3568,2.3831,2.419,2.4439,2.4476,2.409,2.382,2.3681,2.327,2.2834,2.2375,2.2303,2.1949,2.113,2.0878,2.08,2.0627,2.0114,1.9896,2.0245,1.9356,1.8688,1.8611,1.7821,1.7121,1.6617,1.6159,1.5184,1.3477,1.2602,1.2178,1.1935,1.1488,1.0871,1.0037,0.9843,0.9285,0.828,0.7365,0.6667,0.5732,0.4671,0.394,0.3435,0.298,0.2477,0.1804,0.1369,0.0619,-0.0412,-0.1674,-0.3245,3.4007,3.3953,3.3402,3.3506,3.3973,3.3699,3.3422,3.3192,3.3031,3.28,3.2512,3.1922,3.1439,3.1027,3.0097,2.9566,2.9257,2.8836,2.8587,2.8541,2.8017,2.7529,2.7046,2.638,2.5566,2.4788,2.4607,2.4266,2.3763,2.3475,2.3267,2.3088,2.2847,2.2592,2.2366,2.2366,2.2274,2.2101,2.1123,2.0571,2.0539,2.055,2.055,2.0539,2.0539,2.0539,2.0539,2.0539,2.0539,2.0539,2.0539,2.0919,2.1737,2.1825,2.2185,2.2907,2.3001,2.3021,2.3069,2.3047,2.3091,2.3298,2.3578,2.3946,2.4331,2.4732,2.4797,2.444,2.423,2.4251,2.4188,2.4156,2.4,2.3494,2.3411,2.2853,2.1719,2.1435,2.1352,2.1112,2.0475,2.0292,2.0484,1.9907,1.9134,1.8752,1.8539,1.824,1.7846,1.7688,1.6726,1.5427,1.415,1.3439,1.3109,1.2524,1.1771,1.101,1.0745,1.0145,0.9196,0.8679,0.8057,0.6825,0.5977,0.529,0.4526,0.3955,0.3456,0.275,0.2274,0.1569,0.004,-0.1034,-0.2478,3.4699,3.4699,3.4618,3.4633,3.4666,3.4651,3.4633,3.4493,3.3952,3.3688,3.3543,3.2968,3.1834,3.0583,3.0354,2.9762,2.8806,2.8614,2.8651,2.857,2.7967,2.7651,2.748,2.6458,2.5848,2.5659,2.5156,2.47,2.4263,2.4205,2.3842,2.3177,2.3058,2.2925,2.2622,2.2592,2.25,2.2274,2.2151,2.2039,2.1928,2.1928,2.1928,2.1928,2.1896,2.1928,2.1834,2.1916,2.1916,2.1928,2.1854,2.2086,2.2456,2.2503,2.2645,2.2977,2.3027,2.3099,2.3356,2.3724,2.4276,2.5016,2.5347,2.5722,2.5978,2.5499,2.4818,2.4146,2.3754,2.3736,2.3592,2.3512,2.3472,2.3469,2.3327,2.3134,2.295,2.2808,2.2625,2.2594,2.2117,2.2144,2.1687,2.0803,1.9593,1.8559,1.8391,1.8287,1.8077,1.7677,1.7271,1.676,1.6317,1.54,1.4312,1.4008,1.3214,1.203,1.1531,1.0992,1.0188,0.9587,0.9173,0.8405,0.7434,0.6425,0.5749,0.4906,0.3944,0.3596,0.2874,0.1885,0.0748,-0.0117,-0.1403,3.58,3.5769,3.532,3.5011,3.4865,3.5272,3.5337,3.5083,3.4396,3.4126,3.406,3.347,3.2429,3.1209,3.0848,3.0393,2.9872,2.9842,2.9582,2.9134,2.8866,2.8208,2.7114,2.6657,2.6043,2.54,2.5113,2.4907,2.4736,2.4708,2.4551,2.4263,2.4221,2.4105,2.3901,2.3901,2.3813,2.3653,2.3653,2.3636,2.3446,2.2604,2.2101,2.2101,2.2101,2.2101,2.2101,2.2101,2.2101,2.2101,2.2194,2.2438,2.287,2.2959,2.3278,2.3898,2.4233,2.4422,2.4543,2.4673,2.4933,2.5276,2.5457,2.5649,2.572,2.5464,2.5096,2.4768,2.4459,2.4478,2.4837,2.4428,2.4115,2.4216,2.384,2.3537,2.3732,2.3236,2.2889,2.2713,2.2228,2.1867,2.157,2.1026,2.0204,1.9338,1.9119,1.9045,1.8823,1.8534,1.8179,1.7701,1.7568,1.6846,1.5405,1.468,1.4069,1.3301,1.2596,1.1942,1.0987,1.0467,1.01,0.9576,0.8603,0.7749,0.7211,0.6608,0.5755,0.4849,0.3582,0.255,0.1576,0.1125,0.0075,3.6754,3.6693,3.6196,3.5802,3.558,3.6102,3.6073,3.5595,3.4896,3.4513,3.4322,3.3686,3.2951,3.2179,3.1483,3.1013,3.0763,3.0734,3.0353,2.9624,2.9464,2.8525,2.7087,2.6818,2.63,2.5605,2.5508,2.5467,2.5453,2.5453,2.5411,2.5272,2.5258,2.5104,2.4892,2.4835,2.4791,2.4649,2.4649,2.4649,2.4434,2.3416,2.2774,2.2786,2.2786,2.2774,2.2774,2.2786,2.2774,2.2786,2.2852,2.3083,2.341,2.3516,2.389,2.4609,2.5004,2.5388,2.5697,2.5756,2.5814,2.6035,2.607,2.6035,2.5953,2.5814,2.5756,2.5865,2.5572,2.5503,2.5515,2.5074,2.4774,2.4902,2.4299,2.3981,2.4091,2.3632,2.3217,2.2867,2.2482,2.1838,2.1547,2.1308,2.0941,2.0481,2.0373,2.0266,1.9907,1.9633,1.919,1.8745,1.8553,1.7559,1.6134,1.5506,1.4855,1.4283,1.365,1.3063,1.2035,1.1657,1.1156,1.0699,0.9894,0.907,0.8333,0.7864,0.7039,0.5529,0.4403,0.3519,0.2488,0.2184,0.1456,3.745,3.7435,3.7421,3.7315,3.7391,3.7375,3.6997,3.6252,3.5616,3.4948,3.427,3.3592,3.3277,3.3117,3.2256,3.1519,3.0984,3.0954,3.057,2.9922,2.9346,2.8576,2.7756,2.7185,2.68,2.6534,2.6493,2.652,2.6546,2.6573,2.6363,2.5879,2.5866,2.5591,2.5174,2.5118,2.4948,2.4948,2.492,2.4778,2.4649,2.452,2.4421,2.4376,2.4434,2.4376,2.4405,2.4476,2.4434,2.4434,2.4405,2.438,2.4241,2.4256,2.4488,2.4846,2.4955,2.5505,2.6544,2.6722,2.7043,2.7709,2.7709,2.7802,2.7477,2.7015,2.6947,2.7323,2.679,2.6148,2.5443,2.5111,2.4848,2.4897,2.4587,2.4409,2.4433,2.4173,2.3796,2.3405,2.3115,2.2685,2.219,2.1987,2.1706,2.1466,2.1433,2.1298,2.0946,2.0254,1.9927,1.9905,1.9097,1.7578,1.6299,1.5939,1.5675,1.5111,1.4588,1.4338,1.3833,1.3281,1.2532,1.1749,1.0851,1.005,0.9373,0.8453,0.733,0.624,0.5681,0.4793,0.3626,0.2707,0.2089,3.751,3.751,3.751,3.751,3.751,3.751,3.7069,3.6329,3.5695,3.4984,3.4257,3.3593,3.3293,3.3293,3.2958,3.2629,3.2266,3.1823,3.1186,3.0464,2.9822,2.893,2.7899,2.763,2.7323,2.7001,2.6949,2.6912,2.6834,2.6808,2.6692,2.6469,2.6402,2.6283,2.6135,2.6108,2.6054,2.6013,2.6013,2.5824,2.5481,2.5425,2.5258,2.4863,2.4706,2.4591,2.4591,2.4591,2.4591,2.4591,2.4677,2.47,2.4681,2.4935,2.5201,2.5361,2.563,2.6005,2.6463,2.6881,2.7202,2.7482,2.7893,2.8072,2.8052,2.8097,2.8266,2.8298,2.8163,2.7591,2.6895,2.6126,2.5789,2.6146,2.5414,2.4953,2.5178,2.4709,2.3988,2.3766,2.3346,2.2708,2.2434,2.215,2.1889,2.1441,2.1273,2.1185,2.0886,2.0335,2.0116,2.026,1.9844,1.9048,1.8261,1.7023,1.6245,1.573,1.5215,1.4595,1.405,1.3662,1.2981,1.2586,1.1757,1.0978,1.0268,0.8962,0.7842,0.7263,0.6678,0.5971,0.4776,0.3933,0.3338,3.751,3.751,3.751,3.751,3.7494,3.7227,3.6738,3.6014,3.5347,3.4636,3.3972,3.3498,3.3293,3.3293,3.3293,3.3256,3.3097,3.241,3.1677,3.0927,3.0244,2.9306,2.8372,2.8207,2.8012,2.7715,2.7665,2.759,2.753,2.7504,2.7352,2.7056,2.703,2.6901,2.6756,2.6704,2.6704,2.6704,2.6704,2.6522,2.619,2.6163,2.5974,2.5577,2.5384,2.5076,2.4778,2.4892,2.5005,2.5061,2.5272,2.5412,2.5467,2.5742,2.5958,2.6004,2.6253,2.6535,2.6738,2.7101,2.7424,2.7609,2.7982,2.8197,2.8197,2.8529,2.8686,2.8669,2.8591,2.8335,2.7916,2.7147,2.6733,2.6726,2.58,2.5375,2.5767,2.5061,2.4566,2.4437,2.4041,2.3433,2.2994,2.3079,2.2803,2.2142,2.1938,2.1794,2.158,2.0814,2.043,2.0565,1.9976,1.9514,1.8953,1.8053,1.7147,1.6562,1.6105,1.5328,1.4522,1.4098,1.3638,1.3278,1.2696,1.1924,1.0883,0.9548,0.8754,0.8189,0.7707,0.712,0.6106,0.5193,0.4548,3.751,3.751,3.751,3.7462,3.7336,3.6769,3.6029,3.5331,3.4679,3.4036,3.3467,3.3309,3.3293,3.3293,3.3293,3.3309,3.3156,3.2503,3.1823,3.1126,3.0409,2.9643,2.8865,2.8811,2.8795,2.8645,2.8747,2.8732,2.8621,2.8597,2.8301,2.7805,2.7705,2.7464,2.6782,2.6912,2.6834,2.686,2.6912,2.6808,2.6704,2.6718,2.6666,2.6599,2.6546,2.6081,2.5104,2.5578,2.5852,2.5934,2.6322,2.6651,2.6546,2.6578,2.6662,2.661,2.6694,2.6946,2.7408,2.7491,2.7794,2.8154,2.844,2.8383,2.8267,2.834,2.8355,2.8325,2.821,2.8082,2.8025,2.772,2.7198,2.6105,2.5806,2.5647,2.5584,2.5414,2.5301,2.5216,2.502,2.4919,2.4578,2.448,2.4308,2.3828,2.3518,2.3408,2.3077,2.1944,2.1248,2.1123,2.0623,2.0069,1.9533,1.8936,1.8178,1.7523,1.7098,1.6505,1.5524,1.4905,1.4314,1.3903,1.3219,1.2455,1.1628,1.0418,0.9853,0.9288,0.8828,0.8275,0.7335,0.6416,0.5694,3.751,3.751,3.751,3.718,3.6769,3.6487,3.5774,3.4679,3.4352,3.3909,3.3388,3.3293,3.3293,3.3293,3.3293,3.3309,3.3198,3.2124,3.1428,3.1049,3.0006,2.9351,2.9099,2.9013,2.9006,2.9021,2.8998,2.8951,2.8889,2.8865,2.87,2.8501,2.8453,2.8341,2.8107,2.8057,2.8018,2.7993,2.7993,2.778,2.7338,2.7338,2.717,2.6756,2.6704,2.6493,2.6215,2.6349,2.6455,2.6455,2.6599,2.6704,2.6704,2.6704,2.67,2.67,2.6716,2.6732,2.6976,2.7365,2.7679,2.7932,2.8263,2.8438,2.8481,2.8759,2.8937,2.8912,2.8886,2.8713,2.8219,2.7663,2.73,2.7181,2.6658,2.6265,2.6165,2.5908,2.5638,2.5504,2.548,2.5328,2.5147,2.5189,2.5037,2.4715,2.4206,2.3813,2.3636,2.2728,2.1947,2.1809,2.1225,2.0686,2.0181,1.9825,1.939,1.8496,1.7878,1.7241,1.6355,1.5657,1.5065,1.4407,1.3725,1.298,1.2151,1.1485,1.0885,1.0413,0.9958,0.9265,0.8441,0.7725,0.7028,3.777,3.7783,3.7712,3.7444,3.6933,3.6467,3.562,3.4638,3.434,3.3884,3.3382,3.3293,3.3293,3.3346,3.3503,3.3607,3.3473,3.228,3.1718,3.1414,2.9847,2.913,2.9114,2.9114,2.9114,2.9114,2.9114,2.9052,2.8967,2.8967,2.8912,2.8834,2.885,2.8803,2.8794,2.8723,2.8684,2.8684,2.866,2.8438,2.8091,2.8067,2.7894,2.753,2.7439,2.7388,2.7429,2.7352,2.7236,2.7108,2.7185,2.7327,2.7327,2.7338,2.7251,2.7056,2.699,2.7004,2.7034,2.7389,2.7674,2.7909,2.8258,2.8438,2.8533,2.8877,2.9007,2.9007,2.8899,2.8752,2.8351,2.788,2.7664,2.7892,2.7028,2.6552,2.6426,2.6282,2.6138,2.6096,2.6176,2.6095,2.5864,2.5665,2.5447,2.516,2.4461,2.3876,2.3753,2.3043,2.2498,2.2036,2.1629,2.1173,2.0823,2.0604,2.0501,1.9585,1.8611,1.7794,1.6919,1.6379,1.5819,1.5076,1.4375,1.3649,1.284,1.2381,1.1857,1.1471,1.1121,1.0721,1.0116,0.9201,0.8511,3.8302,3.8244,3.807,3.7857,3.7543,3.6422,3.5578,3.5003,3.4459,3.3931,3.3513,3.3539,3.3477,3.3539,3.3975,3.4077,3.386,3.2987,3.2374,3.1794,3.0361,2.9335,2.9335,2.9373,2.9357,2.9328,2.9305,2.9236,2.9213,2.9266,2.9075,2.8943,2.899,2.8928,2.8873,2.8818,2.8803,2.8818,2.8794,2.8755,2.8708,2.8732,2.8747,2.866,2.8525,2.8462,2.8429,2.8332,2.8097,2.772,2.8057,2.8299,2.8372,2.8411,2.8097,2.763,2.7565,2.7565,2.7565,2.7665,2.7861,2.8308,2.8388,2.8411,2.8459,2.8486,2.8535,2.8529,2.8498,2.8446,2.8376,2.8213,2.817,2.8029,2.7229,2.6553,2.6242,2.6563,2.6747,2.6811,2.71,2.7133,2.6442,2.621,2.5742,2.5209,2.4538,2.4098,2.3775,2.3164,2.238,2.2049,2.1923,2.168,2.1309,2.1394,2.1253,2.0577,1.964,1.8792,1.7718,1.7117,1.6433,1.5689,1.5138,1.4344,1.3816,1.3476,1.3023,1.2588,1.2373,1.2258,1.1633,1.062,0.9952,3.8634,3.8081,3.8015,3.7415,3.6489,3.5993,3.5522,3.4914,3.4716,3.4545,3.4399,3.4382,3.4374,3.4407,3.4521,3.4347,3.3792,3.3122,3.2348,3.1709,3.0797,3.0199,3.014,3.0118,3.0097,3.0075,3.0016,2.9962,2.9677,2.9903,2.9728,2.9059,2.9409,2.9364,2.9091,2.8982,2.8873,2.8889,2.8889,2.8858,2.8818,2.8858,2.8858,2.8794,2.8779,2.8755,2.8747,2.8723,2.8589,2.8365,2.8541,2.87,2.8676,2.8676,2.8541,2.8341,2.8293,2.8317,2.8293,2.8293,2.8429,2.8628,2.8636,2.8525,2.8525,2.8444,2.8436,2.8411,2.8411,2.846,2.8411,2.8396,2.8372,2.8299,2.7845,2.7494,2.7433,2.7499,2.7514,2.7494,2.7116,2.6808,2.656,2.607,2.5607,2.5267,2.4688,2.4094,2.3869,2.3477,2.2757,2.2475,2.2264,2.2066,2.194,2.2058,2.1902,2.1437,2.0747,2.0093,1.8948,1.7913,1.7079,1.6234,1.6034,1.5448,1.5177,1.4923,1.4382,1.3747,1.3485,1.3304,1.2604,1.1719,1.1301,3.8765,3.8036,3.7954,3.7442,3.6671,3.6366,3.5869,3.5356,3.5266,3.5128,3.4971,3.4925,3.4925,3.4948,3.5134,3.4824,3.4124,3.366,3.3036,3.2209,3.1484,3.0925,3.0621,3.0497,3.0497,3.0497,3.0497,3.033,3.0182,3.0393,3.0145,2.9859,2.9968,2.9946,2.9766,2.9617,2.9461,2.9325,2.9273,2.9198,2.8967,2.8959,2.9106,2.9144,2.9167,2.919,2.9335,2.9387,2.9236,2.8834,2.8747,2.881,2.881,2.881,2.8747,2.8684,2.8684,2.8668,2.8684,2.8684,2.8723,2.8803,2.8858,2.8943,2.8974,2.8974,2.9028,2.9074,2.9013,2.9006,2.9006,2.899,2.899,2.9013,2.885,2.8581,2.8177,2.8073,2.7905,2.7622,2.7215,2.6821,2.6733,2.6054,2.5674,2.5408,2.4871,2.4475,2.417,2.3695,2.3348,2.3127,2.2904,2.2731,2.2549,2.2572,2.2495,2.2077,2.167,2.1077,2.0093,1.8874,1.8097,1.7374,1.7024,1.6669,1.6358,1.6026,1.5478,1.4933,1.4658,1.4392,1.3888,1.3114,1.2694,3.8755,3.8054,3.7863,3.7742,3.7526,3.6977,3.6391,3.6049,3.595,3.5737,3.5414,3.5284,3.5391,3.5307,3.5764,3.5472,3.4637,3.4323,3.3717,3.2899,3.2131,3.1452,3.0905,3.0828,3.0804,3.0764,3.0645,3.0625,3.0642,3.0642,3.058,3.0456,3.0477,3.0518,3.0351,3.0393,3.0246,2.9924,2.9859,2.9683,2.9432,2.9387,2.9544,2.9772,2.9766,2.9837,3.0021,3.0128,2.9903,2.9021,2.8967,2.9107,2.906,2.9014,2.9014,2.9045,2.9075,2.9052,2.8998,2.9091,2.9021,2.9144,2.9393,2.9496,2.954,2.9657,2.9751,2.9723,2.9843,2.9705,2.9661,2.9728,2.9661,2.9639,2.9728,2.9371,2.8693,2.8456,2.8241,2.7589,2.7334,2.6969,2.6714,2.6262,2.5716,2.5304,2.4864,2.4615,2.4413,2.4191,2.4,2.3931,2.3702,2.3508,2.329,2.3127,2.2949,2.27,2.2374,2.1833,2.104,2.0054,1.9308,1.8715,1.8274,1.7759,1.7235,1.6817,1.6518,1.6252,1.6032,1.5977,1.5767,1.4728,1.4088,3.8547,3.7854,3.7822,3.7447,3.698,3.6771,3.6623,3.6523,3.6523,3.6423,3.636,3.6322,3.6322,3.6322,3.6319,3.5795,3.4579,3.4338,3.3768,3.2493,3.2212,3.1984,3.1711,3.16,3.1526,3.1487,3.1545,3.1357,3.1142,3.122,3.1142,3.0662,3.0885,3.0808,3.0584,3.0605,3.0477,3.0372,3.0335,3.0288,3.0145,3.0118,3.0182,3.033,3.0314,3.0351,3.0393,3.0439,3.0335,3.0204,3.0118,3.0097,3.0011,3.0032,2.9968,2.9903,2.9924,2.9924,2.993,2.9903,3.0011,3.0011,3.0038,3.0086,3.0086,3.0091,3.0031,2.9924,2.9897,2.9957,2.9924,2.9815,2.9881,2.9968,3.0161,3.014,2.9536,2.8892,2.8443,2.8017,2.7089,2.6246,2.6208,2.5715,2.531,2.5084,2.4965,2.4724,2.4668,2.4659,2.4599,2.4578,2.4313,2.4084,2.3894,2.3653,2.3407,2.3275,2.3001,2.2703,2.1913,2.1221,2.0506,1.9953,1.9475,1.89,1.8236,1.817,1.7943,1.7698,1.7368,1.7113,1.6705,1.5967,1.542,3.8101,3.7437,3.744,3.7196,3.6881,3.6846,3.6846,3.6846,3.6846,3.6846,3.6846,3.6829,3.6846,3.6811,3.6444,3.5603,3.4574,3.3771,3.3107,3.2389,3.2196,3.2144,3.2126,3.209,3.2019,3.1964,3.1948,3.1785,3.1728,3.1747,3.1674,3.1298,3.1413,3.1395,3.1164,3.1103,3.1021,3.0825,3.0784,3.0703,3.0539,3.0497,3.0642,3.0804,3.0965,3.112,3.1157,3.114,3.1103,3.1103,3.1083,3.0868,3.0559,3.0497,3.0477,3.0398,3.0377,3.0377,3.0393,3.0414,3.0377,3.0518,3.0601,3.0683,3.0727,3.073,3.0774,3.0694,3.069,3.0642,3.0518,3.0456,3.0452,3.0493,3.0675,3.0695,3.034,2.9501,2.8635,2.8204,2.7187,2.6587,2.6088,2.5656,2.5632,2.5724,2.5683,2.5495,2.5365,2.5343,2.5227,2.5111,2.4855,2.4619,2.4451,2.4183,2.3861,2.3732,2.3625,2.3377,2.2913,2.2331,2.1734,2.111,2.0446,1.9888,1.9347,1.9334,1.9206,1.8797,1.8397,1.8062,1.7654,1.713,1.6631,3.7567,3.6989,3.6989,3.6989,3.6989,3.697,3.697,3.6987,3.6989,3.6968,3.6989,3.6989,3.6968,3.6829,3.6178,3.539,3.4302,3.3213,3.2459,3.2406,3.2267,3.2249,3.2232,3.2232,3.2196,3.2144,3.2108,3.2073,3.2055,3.209,3.2001,3.2037,3.1966,3.184,3.1875,3.1856,3.1617,3.1317,3.1298,3.1181,3.0945,3.0868,3.1007,3.124,3.1506,3.1691,3.1691,3.1746,3.1783,3.1819,3.1801,3.1411,3.0945,3.0703,3.072,3.0723,3.0784,3.0825,3.0845,3.0784,3.0784,3.0723,3.0985,3.1198,3.1257,3.1372,3.143,3.1449,3.1389,3.131,3.1332,3.1193,3.1171,3.119,3.121,3.123,3.1016,3.0089,2.9152,2.8345,2.7575,2.6953,2.6568,2.6222,2.6294,2.6329,2.6292,2.6203,2.6079,2.5952,2.5789,2.5624,2.5362,2.515,2.4974,2.4771,2.4426,2.4302,2.4234,2.403,2.3809,2.3413,2.2809,2.1983,2.1318,2.0855,2.057,2.0544,2.0294,1.9838,1.9463,1.9151,1.8744,1.8328,1.7825,3.7112,3.6989,3.6989,3.6989,3.6989,3.6989,3.6989,3.6989,3.6989,3.6989,3.6989,3.6989,3.6989,3.6759,3.6162,3.5039,3.3722,3.2774,3.2406,3.2406,3.2354,3.2354,3.2354,3.2336,3.2336,3.2319,3.2249,3.2161,3.2126,3.209,3.2143,3.2126,3.2073,3.2055,3.2055,3.2037,3.1983,3.1839,3.182,3.1748,3.1693,3.1674,3.1638,3.173,3.1839,3.1875,3.1912,3.1966,3.1984,3.1894,3.1893,3.1765,3.156,3.1504,3.1504,3.1466,3.1447,3.1428,3.1447,3.1504,3.1542,3.1596,3.1615,3.1634,3.1671,3.1726,3.169,3.1634,3.154,3.1481,3.1462,3.1423,3.1423,3.1423,3.1387,3.1332,3.1157,3.0603,2.9796,2.9105,2.8222,2.7374,2.706,2.6775,2.664,2.6624,2.6573,2.6538,2.6435,2.6313,2.6187,2.6061,2.5915,2.5715,2.5511,2.5282,2.5064,2.495,2.4831,2.4645,2.4467,2.44,2.3873,2.3098,2.2606,2.2285,2.203,2.1748,2.1476,2.1075,2.067,2.0245,1.9838,1.9426,1.8876,3.6989,3.6989,3.6989,3.6989,3.6989,3.6989,3.6989,3.6989,3.6989,3.6989,3.6989,3.6989,3.6989,3.6691,3.5706,3.4389,3.3161,3.2616,3.2406,3.2406,3.2406,3.2406,3.2406,3.2406,3.2406,3.2388,3.2336,3.2301,3.2267,3.2267,3.2267,3.2232,3.2179,3.2144,3.2144,3.2108,3.2108,3.2108,3.2126,3.2126,3.2108,3.2108,3.2055,3.2037,3.2019,3.2019,3.2019,3.2055,3.2073,3.2037,3.2019,3.193,3.1875,3.1839,3.182,3.1818,3.18,3.18,3.18,3.18,3.1781,3.1781,3.18,3.18,3.18,3.1781,3.1781,3.1709,3.1615,3.154,3.154,3.1555,3.1517,3.1519,3.1581,3.1638,3.1588,3.1386,3.0817,3.0023,2.8764,2.7979,2.764,2.7333,2.7009,2.689,2.6873,2.684,2.679,2.6708,2.6606,2.6503,2.6365,2.61,2.5903,2.5717,2.5586,2.553,2.5416,2.5224,2.5088,2.4989,2.4751,2.4256,2.3885,2.352,2.2995,2.2538,2.2429,2.2282,2.1785,2.1293,2.093,2.0509,1.9953,3.6989,3.6989,3.6989,3.6989,3.6989,3.6989,3.6989,3.7007,3.7029,3.7048,3.7048,3.7089,3.702,3.6507,3.5274,3.3812,3.2544,3.2491,3.2457,3.2457,3.2423,3.2406,3.2406,3.2406,3.2406,3.2406,3.2388,3.2406,3.2388,3.2388,3.2388,3.2371,3.2267,3.2249,3.2232,3.2214,3.2161,3.2161,3.2161,3.2161,3.2161,3.2126,3.2108,3.2108,3.2126,3.2108,3.2108,3.2179,3.2144,3.2126,3.2108,3.2073,3.1966,3.1948,3.1912,3.1856,3.1855,3.1819,3.1855,3.1819,3.1819,3.182,3.1801,3.18,3.18,3.18,3.18,3.1781,3.1709,3.1653,3.1653,3.1671,3.1671,3.1764,3.1966,3.2127,3.2144,3.2022,3.1898,3.0853,2.9386,2.8664,2.8415,2.8035,2.7739,2.7274,2.7239,2.7191,2.7159,2.7131,2.7069,2.6972,2.6791,2.6487,2.6279,2.6101,2.603,2.6012,2.5905,2.5758,2.5663,2.5551,2.5326,2.5176,2.4953,2.4534,2.393,2.3348,2.3106,2.2883,2.2657,2.23,2.1833,2.1417,2.0942,3.6989,3.6989,3.6989,3.6989,3.7009,3.7009,3.7009,3.7029,3.7201,3.7259,3.7278,3.7394,3.7093,3.6185,3.4816,3.3658,3.2985,3.2657,3.259,3.2574,3.2491,3.244,3.2423,3.2406,3.2423,3.2423,3.2423,3.2406,3.2423,3.2423,3.2406,3.2406,3.2388,3.2371,3.2354,3.2336,3.2371,3.2354,3.2354,3.2354,3.2336,3.2249,3.2197,3.2179,3.2179,3.2214,3.2266,3.2318,3.2353,3.2284,3.2214,3.2144,3.209,3.209,3.209,3.2037,3.1983,3.193,3.2055,3.2055,3.2003,3.2003,3.193,3.1819,3.1911,3.1911,3.1911,3.18,3.1801,3.1819,3.1893,3.2055,3.2144,3.2266,3.2402,3.2553,3.2586,3.2684,3.2537,3.2296,3.1028,2.9982,2.9361,2.8928,2.8478,2.7972,2.7589,2.7572,2.7557,2.7577,2.7428,2.7322,2.7228,2.6939,2.6691,2.6521,2.6436,2.6453,2.6367,2.6245,2.6138,2.6049,2.6139,2.5982,2.5768,2.5382,2.4705,2.4168,2.38,2.3493,2.3282,2.2972,2.2649,2.2244,2.1823,3.7336,3.7336,3.7336,3.7353,3.7353,3.7336,3.7336,3.7372,3.7447,3.7484,3.7466,3.754,3.6934,3.5685,3.4473,3.3617,3.3009,3.2802,3.277,3.2721,3.2607,3.2524,3.2489,3.2457,3.2422,3.249,3.2439,3.2456,3.2456,3.2457,3.2406,3.2406,3.2406,3.2406,3.2406,3.2406,3.2406,3.2406,3.2406,3.2406,3.2388,3.2354,3.2336,3.2336,3.2319,3.2387,3.2521,3.2588,3.2719,3.2766,3.283,3.2798,3.275,3.275,3.2732,3.275,3.27,3.2587,3.242,3.2469,3.2467,3.2483,3.2434,3.2453,3.2385,3.2335,3.2249,3.2091,3.2266,3.2266,3.2179,3.2385,3.2519,3.2668,3.2844,3.2923,3.3034,3.3187,3.316,3.2976,3.2706,3.1646,3.0544,2.9813,2.9368,2.8877,2.8427,2.8196,2.8146,2.8097,2.7872,2.7612,2.7519,2.7398,2.7165,2.694,2.6891,2.6874,2.6808,2.6691,2.6573,2.6556,2.6607,2.6522,2.6212,2.5803,2.5357,2.5086,2.4772,2.4328,2.3879,2.3651,2.3398,2.2972,2.2643,3.7757,3.7757,3.7649,3.7595,3.7595,3.7595,3.7613,3.7685,3.7667,3.7739,3.7684,3.7395,3.6373,3.5124,3.4228,3.3526,3.3062,3.2961,3.2945,3.29,3.277,3.2688,3.2639,3.2574,3.2574,3.2688,3.2722,3.2688,3.2688,3.2655,3.259,3.2423,3.2439,3.244,3.2405,3.244,3.2457,3.2406,3.2406,3.2406,3.2423,3.2491,3.2507,3.2523,3.259,3.2721,3.2892,3.2939,3.3078,3.3184,3.3232,3.3169,3.3172,3.3124,3.3124,3.3154,3.3184,3.3199,3.3016,3.2983,3.3057,3.3024,3.2963,3.2809,3.2777,3.2827,3.2765,3.2437,3.2569,3.2586,3.2569,3.2715,3.2874,3.3029,3.3196,3.3306,3.3383,3.3455,3.3526,3.3411,3.3245,3.315,3.2071,3.0954,3.0269,2.9786,2.9355,2.8889,2.8657,2.8526,2.8268,2.7947,2.7904,2.7832,2.7672,2.7461,2.7369,2.7276,2.7228,2.7213,2.7149,2.7052,2.7051,2.6872,2.6691,2.6505,2.6265,2.6016,2.5723,2.5278,2.4855,2.4491,2.4163,2.37,2.3304,3.8158,3.8123,3.7757,3.7631,3.7631,3.7595,3.7721,3.7947,3.7915,3.8099,3.8097,3.6979,3.5757,3.4727,3.3994,3.3505,3.3345,3.318,3.3178,3.3101,3.2961,3.2928,3.2912,3.293,3.2882,3.2928,3.3006,3.3065,3.3063,3.3063,3.28,3.2473,3.259,3.2524,3.2524,3.259,3.259,3.2558,3.2541,3.2542,3.2574,3.2688,3.2781,3.2862,3.3065,3.3262,3.3276,3.3273,3.3346,3.3419,3.3447,3.3433,3.3447,3.3433,3.3433,3.3476,3.3634,3.3648,3.3588,3.3419,3.3225,3.3166,3.3133,3.3115,3.3069,3.2965,3.2874,3.2827,3.2952,3.2872,3.2905,3.3029,3.3258,3.3346,3.3494,3.3569,3.3611,3.3611,3.3666,3.3739,3.3639,3.3474,3.3341,3.2183,3.1252,3.0757,2.9831,2.9346,2.8915,2.8724,2.8551,2.8353,2.8327,2.8242,2.816,2.8021,2.7861,2.7774,2.773,2.7777,2.7806,2.7701,2.7504,2.7489,2.7365,2.7257,2.7132,2.6774,2.6437,2.6158,2.5783,2.5281,2.4792,2.4343,2.3849,3.8621,3.8606,3.8462,3.8318,3.8152,3.817,3.83,3.8507,3.851,3.8258,3.7886,3.6785,3.579,3.4903,3.417,3.378,3.3766,3.3707,3.3634,3.3588,3.3504,3.34,3.3372,3.3317,3.3299,3.3357,3.34,3.3443,3.3468,3.3425,3.3332,3.3111,3.2928,3.2787,3.2771,3.2864,3.2894,3.2941,3.2988,3.305,3.305,3.3078,3.3166,3.3214,3.3258,3.3504,3.3671,3.3716,3.381,3.3876,3.3889,3.3845,3.3805,3.3805,3.3792,3.3792,3.3954,3.4011,3.4023,3.3889,3.3805,3.3752,3.3707,3.362,3.351,3.3556,3.34,3.3375,3.3357,3.3354,3.3225,3.3462,3.3675,3.3707,3.3734,3.3793,3.3793,3.3766,3.3748,3.378,3.3766,3.3689,3.357,3.3346,3.2475,3.1687,3.0691,2.981,2.9372,2.8971,2.8799,2.8585,2.8523,2.8458,2.8367,2.8327,2.83,2.8246,2.816,2.815,2.8122,2.8109,2.7947,2.7979,2.7936,2.773,2.7535,2.7365,2.705,2.659,2.6281,2.5944,2.5449,2.4946,2.4588,3.891,3.891,3.891,3.8788,3.8634,3.8618,3.8755,3.8894,3.8578,3.7862,3.6865,3.6305,3.5658,3.4861,3.4299,3.3985,3.3959,3.3959,3.3985,3.3915,3.3818,3.38,3.376,3.3707,3.3684,3.3778,3.38,3.38,3.3808,3.3773,3.372,3.3597,3.339,3.3265,3.3111,3.3202,3.3302,3.3328,3.34,3.3472,3.34,3.3532,3.3574,3.3616,3.3698,3.3845,3.4043,3.4111,3.4161,3.4233,3.4269,3.4281,3.4257,3.4245,3.4252,3.4221,3.4209,3.4197,3.4216,3.4216,3.4191,3.4055,3.4068,3.4043,3.4049,3.4023,3.381,3.3643,3.3823,3.3876,3.3592,3.377,3.3855,3.3829,3.3802,3.386,3.382,3.3793,3.3793,3.3807,3.378,3.378,3.373,3.3579,3.3013,3.216,3.124,3.037,2.978,2.941,2.9075,2.8856,2.8637,2.8574,2.8528,2.8497,2.8453,2.8388,2.8335,2.8286,2.8259,2.8273,2.8214,2.8119,2.8063,2.8053,2.7922,2.7713,2.735,2.6938,2.664,2.6385,2.607,2.5598,2.5406,3.8939,3.891,3.8902,3.8851,3.8814,3.8859,3.8952,3.8914,3.8076,3.6883,3.5689,3.5566,3.5089,3.4346,3.4136,3.4111,3.4136,3.4148,3.4222,3.429,3.4525,3.4239,3.4258,3.4332,3.4561,3.4172,3.4414,3.4624,3.442,3.4618,3.4506,3.4439,3.441,3.3972,3.3583,3.3518,3.35,3.3518,3.3611,3.3611,3.3812,3.3968,3.3954,3.4005,3.413,3.425,3.4316,3.437,3.4374,3.4374,3.4386,3.4374,3.4351,3.4316,3.4305,3.4293,3.4233,3.4209,3.4216,3.4216,3.4197,3.4185,3.4173,3.4148,3.4093,3.4086,3.4061,3.3889,3.3979,3.4011,3.3972,3.3972,3.3959,3.3952,3.3939,3.3881,3.3873,3.386,3.3873,3.3847,3.382,3.3807,3.3807,3.3688,3.3268,3.2574,3.173,3.1011,3.0463,3.0118,2.9893,2.9649,2.9436,2.9252,2.9204,2.8779,2.8619,2.8556,2.8531,2.8531,2.8479,2.8461,2.8383,2.8268,2.8255,2.8282,2.8187,2.8063,2.7713,2.7396,2.705,2.6774,2.6505,2.6245,2.5979,3.9367,3.9298,3.8743,3.8501,3.8488,3.8356,3.8441,3.8415,3.7642,3.6652,3.5824,3.5745,3.5259,3.464,3.443,3.4437,3.4505,3.5133,3.5245,3.5289,3.5632,3.6023,3.5973,3.5819,3.5905,3.6053,3.6113,3.6,3.6206,3.5963,3.6056,3.6108,3.5688,3.5188,3.4306,3.3996,3.4209,3.4654,3.4563,3.4462,3.4878,3.4641,3.4409,3.4447,3.4558,3.4634,3.4693,3.4742,3.4731,3.4678,3.4697,3.4648,3.4596,3.4542,3.4493,3.4426,3.436,3.4245,3.424,3.4216,3.4216,3.4271,3.4216,3.4204,3.4173,3.4173,3.4136,3.4099,3.4099,3.4099,3.4074,3.4043,3.4049,3.4036,3.4011,3.3972,3.3947,3.3947,3.3934,3.3895,3.3887,3.3847,3.3834,3.3834,3.3486,3.3253,3.253,3.2125,3.1636,3.1323,3.1068,3.0826,3.0572,3.0257,2.9957,2.9543,2.9235,2.9168,2.903,2.8862,2.8803,2.8707,2.87,2.8651,2.8576,2.8518,2.8422,2.8331,2.816,2.789,2.7532,2.7225,2.6971,2.6708,2.6436,3.9157,3.9032,3.8244,3.7887,3.7863,3.7742,3.7629,3.7406,3.6873,3.6216,3.5559,3.5428,3.5146,3.4771,3.4902,3.5052,3.5146,3.5897,3.631,3.6385,3.6779,3.6888,3.6974,3.7167,3.6839,3.7129,3.7129,3.7024,3.6918,3.7054,3.6986,3.6937,3.711,3.6302,3.5478,3.5409,3.5562,3.5892,3.5764,3.5773,3.5937,3.581,3.5473,3.5492,3.5514,3.5507,3.5492,3.5446,3.5417,3.5364,3.5353,3.5342,3.5308,3.5303,3.5292,3.5287,3.5252,3.5242,3.5261,3.5249,3.5361,3.5287,3.4667,3.4234,3.4216,3.4197,3.4173,3.4161,3.4241,3.4247,3.426,3.4229,3.4253,3.4278,3.4166,3.4129,3.4085,3.4072,3.3985,3.3947,3.3921,3.3895,3.3868,3.3842,3.3737,3.3571,3.3374,3.3036,3.2706,3.241,3.2072,3.1812,3.1576,3.1256,3.0816,3.0315,3.0041,2.982,2.9617,2.941,2.906,2.8971,2.9,2.9007,2.8897,2.8791,2.8725,2.8601,2.8422,2.8224,2.7961,2.7669,2.7446,2.718,2.6923,3.8263,3.815,3.738,3.7073,3.7073,3.6956,3.6554,3.5916,3.5859,3.5428,3.4744,3.4864,3.4969,3.5015,3.5597,3.5897,3.6085,3.6791,3.7054,3.7223,3.7505,3.7448,3.7467,3.7486,3.7655,3.7429,3.7429,3.7749,3.7317,3.7598,3.7561,3.7411,3.7617,3.7314,3.7171,3.7115,3.712,3.7045,3.6756,3.6817,3.6956,3.6873,3.6648,3.6629,3.6648,3.6667,3.6678,3.6716,3.6791,3.6836,3.6892,3.696,3.6993,3.7014,3.6991,3.6911,3.675,3.6633,3.6552,3.6466,3.6509,3.6168,3.5262,3.4612,3.4506,3.4767,3.486,3.4791,3.481,3.4624,3.4513,3.4556,3.4618,3.4519,3.4402,3.4327,3.4234,3.4153,3.406,3.3998,3.3985,3.3972,3.3947,3.3934,3.3908,3.386,3.3707,3.3555,3.3284,3.3276,3.2948,3.262,3.2402,3.2228,3.1786,3.1374,3.1054,3.0932,3.0365,3.0078,2.9688,2.9394,2.9442,2.9421,2.9214,2.9049,2.8913,2.8803,2.8682,2.8482,2.8326,2.8059,2.7832,2.7701,2.7459,3.7467,3.7354,3.6573,3.6254,3.6141,3.5597,3.5195,3.4977,3.4977,3.5071,3.554,3.5522,3.5777,3.6397,3.6648,3.6723,3.7042,3.7474,3.785,3.8112,3.8425,3.8725,3.8819,3.8725,3.8838,3.88,3.8782,3.8669,3.8819,3.8819,3.8782,3.8913,3.8631,3.8707,3.8744,3.8838,3.8425,3.7981,3.7561,3.7655,3.7681,3.7542,3.7411,3.7336,3.7336,3.7336,3.7336,3.7298,3.7298,3.7223,3.7167,3.7129,3.711,3.7068,3.7038,3.6991,3.6948,3.6924,3.6907,3.6913,3.7013,3.7094,3.6416,3.6218,3.6044,3.5925,3.5913,3.5696,3.5628,3.5566,3.5535,3.5547,3.5535,3.5454,3.5292,3.5045,3.4945,3.4741,3.4599,3.4265,3.4234,3.4023,3.4029,3.3998,3.3967,3.4005,3.3994,3.3913,3.389,3.3885,3.3824,3.3489,3.3412,3.327,3.3029,3.2648,3.2319,3.1981,3.1411,3.0932,3.0678,3.0396,3.0105,2.9869,2.9695,2.9392,2.9053,2.8982,2.8932,2.8874,2.8731,2.8461,2.8214,2.8045,2.795,3.6641,3.6498,3.5728,3.539,3.5353,3.5202,3.5108,3.5108,3.5127,3.5597,3.6321,3.6378,3.6659,3.7035,3.7361,3.7568,3.7643,3.8394,3.8826,3.8969,3.9345,3.9401,3.957,3.9608,3.9495,3.9608,3.9608,3.9401,3.9608,3.9608,3.9552,3.9495,3.9608,3.9608,3.9514,3.9383,3.9232,3.8819,3.8519,3.8462,3.8368,3.8293,3.8181,3.8012,3.7993,3.7993,3.8012,3.8012,3.8049,3.8068,3.8087,3.8087,3.8124,3.8124,3.8124,3.8133,3.817,3.8177,3.8171,3.8122,3.8003,3.7916,3.7879,3.7904,3.7467,3.7162,3.6851,3.659,3.664,3.6683,3.6713,3.6706,3.6675,3.663,3.6315,3.598,3.5739,3.5497,3.5138,3.4729,3.4445,3.4179,3.4061,3.4067,3.4111,3.4221,3.4344,3.4394,3.4408,3.4466,3.4479,3.4349,3.4374,3.4369,3.4077,3.3718,3.3353,3.2896,3.2362,3.1951,3.1679,3.1399,3.11,3.0659,3.0218,2.9924,2.9627,2.9318,2.9188,2.9134,2.9068,2.8832,2.854,2.8291,2.821,3.5784,3.5728,3.4921,3.4752,3.4838,3.554,3.5953,3.6085,3.616,3.6517,3.7099,3.7185,3.7317,3.773,3.815,3.8394,3.8563,3.912,3.9364,3.9552,3.9533,3.9608,3.9608,3.9608,3.9608,3.9608,3.9608,3.9608,3.9608,3.9608,3.9608,3.9608,3.9608,3.9608,3.9608,3.9608,3.9495,3.9364,3.927,3.9289,3.9401,3.9514,3.9608,3.9477,3.9439,3.9458,3.9477,3.9533,3.9608,3.957,3.9514,3.942,3.9364,3.9345,3.9364,3.9364,3.9201,3.9201,3.9133,3.9133,3.9221,3.9302,3.9521,3.9221,3.8646,3.8147,3.7785,3.7648,3.771,3.7697,3.7709,3.7651,3.7607,3.7463,3.719,3.693,3.6725,3.639,3.5937,3.5472,3.4958,3.4692,3.4488,3.4507,3.4228,3.4404,3.4575,3.4693,3.4822,3.4935,3.4943,3.4971,3.4944,3.4901,3.4797,3.4483,3.4235,3.3802,3.3315,3.2975,3.2716,3.2427,3.211,3.1632,3.1127,3.0628,3.0292,3.0049,2.9755,2.9414,2.9324,2.918,2.8929,2.8658,2.8482,3.4921,3.4902,3.4677,3.4958,3.5578,3.5803,3.6648,3.7699,3.7737,3.7831,3.8,3.8056,3.8368,3.8838,3.9007,3.9176,3.9326,3.9401,3.957,3.9589,3.9608,3.9608,3.9608,3.9608,3.9608,3.9608,3.9608,3.9608,3.9608,3.9608,3.9608,3.9608,3.9608,3.9608,3.9608,3.9608,3.9608,3.9614,3.9608,3.962,3.9614,3.962,3.9608,3.9608,3.9608,3.9608,3.9608,3.9608,3.9608,3.9589,3.9608,3.9589,3.9589,3.9608,3.9608,3.9608,3.9608,3.9608,3.9608,3.9608,3.9596,3.9596,3.9596,3.9583,3.9389,3.9039,3.8833,3.8739,3.8695,3.8644,3.8613,3.8542,3.846,3.8247,3.8066,3.788,3.7694,3.7216,3.6744,3.621,3.564,3.5324,3.512,3.4815,3.4507,3.4509,3.4722,3.4889,3.5062,3.5171,3.5176,3.5195,3.5209,3.5181,3.5173,3.507,3.4745,3.4729,3.4402,3.4069,3.3734,3.3345,3.2936,3.253,3.206,3.16,3.1206,3.0934,3.06,3.0199,2.9776,2.9726,2.9446,2.9156,2.8957,3.5702,3.572,3.5709,3.6017,3.6531,3.6889,3.7574,3.8345,3.8759,3.8893,3.8876,3.8913,3.9157,3.9589,3.9608,3.9608,3.9608,3.9608,3.9608,3.9608,3.9608,3.9608,3.9608,3.962,3.9608,3.9608,3.9608,3.9608,3.962,3.9608,3.9608,3.962,3.962,3.962,3.962,3.9608,3.9626,3.9637,3.9626,3.9626,3.9631,3.9626,3.962,3.9608,3.9608,3.9608,3.9608,3.9608,3.9608,3.9608,3.9608,3.9608,3.9608,3.9608,3.9608,3.9608,3.9608,3.9608,3.9608,3.9608,3.9608,3.9608,3.9608,3.9596,3.9596,3.9296,3.9277,3.9202,3.9221,3.9189,3.9138,3.9081,3.9042,3.8917,3.8829,3.8704,3.8406,3.7983,3.7647,3.7311,3.6714,3.6174,3.5864,3.5374,3.5135,3.5197,3.5315,3.5139,3.5307,3.5335,3.5364,3.5372,3.5346,3.5324,3.5258,3.5243,3.5151,3.5192,3.5234,3.4912,3.4456,3.4119,3.3762,3.3375,3.2999,3.2615,3.2256,3.1906,3.1684,3.1371,3.0827,3.0348,3.0039,2.9773,2.9473,3.7047,3.7133,3.7096,3.725,3.7538,3.818,3.8565,3.881,3.9407,3.967,3.958,3.9575,3.9626,3.962,3.9608,3.9608,3.9608,3.9608,3.9608,3.9608,3.9608,3.9626,3.9626,3.9614,3.962,3.9614,3.9626,3.9626,3.9638,3.9662,3.9674,3.9626,3.9614,3.9614,3.962,3.9626,3.9656,3.9684,3.9684,3.9703,3.9679,3.9644,3.9614,3.9608,3.9608,3.9608,3.9608,3.9608,3.9608,3.9614,3.9626,3.9662,3.9662,3.9662,3.9638,3.9638,3.9602,3.962,3.9608,3.9608,3.9608,3.9608,3.9608,3.9608,3.9608,3.9608,3.9589,3.9589,3.9577,3.9583,3.9533,3.9482,3.9457,3.9444,3.9393,3.933,3.9006,3.8695,3.847,3.8227,3.7685,3.7075,3.6658,3.6137,3.5956,3.6,3.5865,3.5649,3.5507,3.5448,3.5427,3.5427,3.5424,3.5383,3.5342,3.53,3.5304,3.5289,3.5273,3.525,3.5149,3.4735,3.444,3.4268,3.3892,3.3536,3.3149,3.2771,3.2607,3.2412,3.1846,3.1273,3.1022,3.0678,3.0095,3.7149,3.7249,3.7268,3.771,3.8393,3.862,3.9026,3.9583,3.9754,3.9856,3.9823,3.9811,3.9773,3.962,3.9608,3.9633,3.965,3.9638,3.962,3.9608,3.9638,3.9649,3.9661,3.9668,3.9633,3.9638,3.9661,3.9677,3.9708,3.9796,3.9808,3.9708,3.9689,3.9654,3.9607,3.9637,3.9712,3.9739,3.9811,3.9823,3.9777,3.9738,3.9614,3.9608,3.9608,3.9608,3.9608,3.9608,3.9608,3.9626,3.9668,3.9731,3.9754,3.9731,3.9708,3.9672,3.9656,3.9626,3.9626,3.962,3.962,3.9608,3.9608,3.9608,3.9608,3.9608,3.9608,3.9608,3.9608,3.9608,3.9571,3.952,3.9495,3.952,3.9502,3.9476,3.9295,3.9195,3.9107,3.8808,3.8421,3.8041,3.7785,3.7317,3.6945,3.6879,3.6594,3.6383,3.6356,3.6012,3.5603,3.5577,3.5582,3.5427,3.5379,3.533,3.5315,3.532,3.5312,3.5289,3.5258,3.5226,3.4988,3.4759,3.4721,3.4506,3.4099,3.3664,3.3372,3.3111,3.2686,3.2254,3.2022,3.1638,3.1047]}]]